[[{"header":{"parameterUnit":"m.s-1","parameterCategory":1,"la1":31.0,"la2":29.5877,"lo1":-88.7671,"lo2":-86.6584,"dy":0.0162,"dx":0.0185,"nx":115,"ny":88,"refTime":"2023-09-02T12:00:00:Z","depth":0,"parameterNumber":2,"parameterNumberName":"U-component_of_WINDS"},"data":[0.0,0.0,0.0,0.0,0.0,0.0,0.0,0.0,0.0,0.0,0.0,0.0,0.0,0.0,0.0,0.0,0.0,0.0,0.0,0.0,0.0,0.0,0.0,0.0,0.0,0.0,0.0,0.0,0.0,0.0,0.0,0.0,0.0,0.0,0.0,0.0,0.0,0.0,0.0,0.0,0.0,0.0,0.0,0.0,0.0,0.0,0.0,0.0,0.0,0.0,0.0,0.0,0.0,0.0,0.0,0.0,0.0,0.0,0.0,0.0,0.0,0.0,0.0,0.0,0.0,0.0,0.0,0.0,0.0,0.0,0.0,0.0,0.0,0.0,0.0,0.0,0.0,0.0,0.0,0.0,0.0,0.0,0.0,0.0,0.0,0.0,0.0,0.0,0.0,0.0,0.0,0.0,0.0,0.0,0.0,0.0,0.0,0.0,0.0,0.0,0.0,0.0,0.0,0.0,0.0,0.0,0.0,0.0,0.0,0.0,0.0,0.0,0.0,0.0,0.0,0.0,0.0,0.0,0.0,0.0,0.0,0.0,0.0,0.0,0.0,0.0,0.0,0.0,0.0,0.0,0.0,0.0,0.0,0.0,0.0,0.0,0.0,0.0,0.0,0.0,0.0,0.0,0.0,0.0,0.0,0.0,0.0,0.0,0.0,0.0,0.0,0.0,0.0,0.0,0.0,0.0,0.0,0.0,0.0,0.0,0.0,0.0,0.0,0.0,0.0,0.0,0.0,0.0,0.0,0.0,0.0,0.0,0.0,0.0,0.0,0.0,0.0,0.0,0.0,0.0,0.0,0.0,0.0,0.0,0.0,0.0,0.0,0.0,0.0,0.0,0.0,0.0,0.0,0.0,0.0,0.0,0.0,0.0,0.0,0.0,0.0,0.0,0.0,0.0,0.0,0.0,0.0,0.0,0.0,0.0,0.0,0.0,0.0,0.0,0.0,0.0,0.0,0.0,0.0,0.0,0.0,0.0,0.0,0.0,0.0,0.0,0.0,0.0,0.0,0.0,0.0,0.0,0.0,0.0,0.0,0.0,0.0,0.0,0.0,0.0,0.0,0.0,0.0,0.0,0.0,0.0,0.0,0.0,0.0,0.0,0.0,0.0,0.0,0.0,0.0,0.0,0.0,0.0,0.0,0.0,0.0,0.0,0.0,0.0,0.0,0.0,0.0,0.0,0.0,0.0,0.0,0.0,0.0,0.0,0.0,0.0,0.0,0.0,0.0,0.0,0.0,0.0,0.0,0.0,0.0,0.0,0.0,0.0,0.0,0.0,0.0,0.0,0.0,0.0,0.0,0.0,0.0,0.0,0.0,0.0,0.0,0.0,0.0,0.0,0.0,0.0,0.0,0.0,0.0,0.0,0.0,0.0,0.0,0.0,0.0,0.0,0.0,0.0,0.0,0.0,0.0,0.0,0.0,0.0,0.0,0.0,0.0,0.0,0.0,0.0,0.0,0.0,0.0,0.0,0.0,0.0,0.0,0.0,0.0,0.0,0.0,0.0,0.0,0.0,0.0,0.0,0.0,0.0,0.0,0.0,0.0,0.0,0.0,0.0,0.0,0.0,0.0,0.0,0.0,0.0,0.0,0.0,0.0,0.0,0.0,0.0,0.0,0.0,0.0,0.0,0.0,0.0,0.0,0.0,0.0,0.0,0.0,0.0,0.0,0.0,0.0,0.0,0.0,0.0,0.0,0.0,0.0,0.0,0.0,0.0,0.0,0.0,0.0,0.0,0.0,0.0,0.0,0.0,0.0,0.0,0.0,0.0,0.0,0.0,0.0,0.0,0.0,0.0,0.0,0.0,0.0,0.0,0.0,0.0,0.0,0.0,0.0,0.0,0.0,0.0,0.0,0.0,0.0,0.0,0.0,0.0,0.0,0.0,0.0,0.0,0.0,0.0,0.0,0.0,0.0,0.0,0.0,0.0,0.0,0.0,0.0,0.0,0.0,0.0,0.0,0.0,0.0,0.0,0.0,0.0,0.0,0.0,0.0,0.0,0.0,0.0,0.0,0.0,0.0,0.0,0.0,0.0,0.0,0.0,0.0,0.0,0.0,0.0,0.0,0.0,0.0,0.0,0.0,0.0,0.0,0.0,0.0,0.0,0.0,0.0,0.0,0.0,0.0,0.0,0.0,0.0,0.0,0.0,0.0,0.0,0.0,0.0,0.0,0.0,0.0,0.0,0.0,0.0,0.0,0.0,0.0,0.0,0.0,0.0,0.0,0.0,0.0,0.0,0.0,0.0,0.0,0.0,0.0,0.0,0.0,0.0,0.0,0.0,0.0,0.0,0.0,0.0,0.0,0.0,0.0,0.0,0.0,0.0,0.0,0.0,0.0,0.0,0.0,0.0,0.0,0.0,0.0,0.0,0.0,0.0,0.0,0.0,0.0,0.0,0.0,0.0,0.0,0.0,0.0,0.0,0.0,0.0,0.0,0.0,0.0,0.0,0.0,0.0,0.0,0.0,0.0,0.0,0.0,0.0,0.0,0.0,0.0,0.0,0.0,0.0,0.0,0.0,0.0,0.0,0.0,0.0,0.0,0.0,0.0,0.0,0.0,0.0,0.0,0.0,0.0,0.0,0.0,0.0,0.0,0.0,0.0,0.0,0.0,0.0,0.0,0.0,0.0,0.0,0.0,0.0,0.0,0.0,0.0,0.0,0.0,0.0,0.0,0.0,0.0,0.0,0.0,0.0,0.0,0.0,0.0,0.0,0.0,0.0,0.0,0.0,0.0,0.0,0.0,0.0,0.0,0.0,0.0,0.0,0.0,0.0,0.0,0.0,0.0,0.0,0.0,0.0,0.0,0.0,0.0,0.0,0.0,0.0,0.0,0.0,0.0,0.0,0.0,0.0,0.0,0.0,0.0,0.0,0.0,0.0,0.0,0.0,0.0,0.0,0.0,0.0,0.0,0.0,0.0,0.0,0.0,0.0,0.0,0.0,0.0,0.0,0.0,0.0,0.0,0.0,0.0,0.0,0.0,0.0,0.0,0.0,0.0,0.0,0.0,0.0,0.0,0.0,0.0,0.0,0.0,0.0,0.0,0.0,0.0,0.0,0.0,0.0,0.0,0.0,0.0,0.0,0.0,0.0,0.0,0.0,0.0,0.0,0.0,0.0,0.0,0.0,0.0,0.0,0.0,0.0,0.0,0.0,0.0,0.0,0.0,0.0,0.0,0.0,0.0,0.0,0.0,0.0,0.0,0.0,0.0,0.0,0.0,0.0,0.0,0.0,0.0,0.0,0.0,0.0,0.0,0.0,0.0,0.0,0.0,0.0,0.0,0.0,0.0,0.0,0.0,0.0,0.0,0.0,0.0,0.0,0.0,0.0,0.0,0.0,0.0,0.0,0.0,0.0,0.0,0.0,0.0,0.0,0.0,0.0,0.0,0.0,0.0,0.0,0.0,0.0,0.0,0.0,0.0,0.0,0.0,0.0,0.0,0.0,0.0,0.0,0.0,0.0,0.0,0.0,0.0,0.0,0.0,0.0,0.0,0.0,0.0,0.0,0.0,0.0,0.0,0.0,0.0,0.0,0.0,0.0,0.0,0.0,0.0,0.0,0.0,0.0,0.0,0.0,0.0,0.0,0.0,0.0,0.0,0.0,0.0,0.0,0.0,0.0,0.0,0.0,0.0,0.0,0.0,0.0,0.0,0.0,0.0,0.0,0.0,0.0,0.0,0.0,0.0,0.0,0.0,0.0,0.0,0.0,0.0,0.0,0.0,0.0,0.0,0.0,0.0,0.0,0.0,0.0,0.0,0.0,0.0,0.0,0.0,0.0,0.0,0.0,0.0,0.0,0.0,0.0,0.0,0.0,0.0,0.0,0.0,0.0,0.0,0.0,0.0,0.0,0.0,0.0,0.0,0.0,0.0,0.0,0.0,0.0,0.0,0.0,0.0,0.0,0.0,0.0,0.0,0.0,0.0,0.0,0.0,0.0,0.0,0.0,0.0,0.0,0.0,0.0,0.0,0.0,0.0,0.0,0.0,0.0,0.0,0.0,0.0,0.0,0.0,0.0,0.0,0.0,0.0,0.0,0.0,0.0,0.0,0.0,0.0,0.0,0.0,0.0,0.0,0.0,0.0,0.0,0.0,0.0,0.0,0.0,0.0,0.0,0.0,0.0,0.0,0.0,0.0,0.0,0.0,0.0,0.0,0.0,0.0,0.0,0.0,0.0,0.0,0.0,0.0,0.0,0.0,0.0,0.0,0.0,0.0,0.0,0.0,0.0,0.0,0.0,0.0,0.0,0.0,0.0,0.0885,0.0,0.0,0.0,0.0,0.0,0.0,0.0,0.0,0.0,0.0,0.0,0.0,0.0,0.0,0.0,0.0,0.0,0.0,0.0,0.0,0.0,0.0,0.0,0.0,0.0,0.0,0.0,0.0,0.0,0.0,0.0,0.0,0.0,0.0,0.0,0.0,0.0,0.0,0.0,0.0,0.0,0.0,0.0,0.0,0.0,0.0,0.0,0.0,0.0,0.0,0.0,0.0,0.0,0.0,0.0,0.0,0.0,0.0,0.0,0.0,0.0,0.0,0.0,0.0,0.0,0.0,0.0,0.0,0.0,0.0,0.0,0.0,0.0,0.0,0.0,0.0,0.0,0.0,0.0,0.0,0.0,0.0,0.0,0.0,0.0,0.0,0.0,0.0,0.0,0.0,0.0,0.0,0.0,0.0,0.0,0.0,0.0,0.0,0.0,0.0,0.0,0.0,0.0,0.0,0.0,0.0,0.0,0.0,0.0,0.0,0.1942,0.1704,0.1562,0.1358,0.1014,0.0,0.0,0.0,0.0,0.0,0.0,0.0,0.0,0.0,0.0,0.0,0.0,0.0,0.0,0.0,0.0,0.0,0.0,0.0,0.0,0.0,0.0,0.0,0.0,0.0,0.0,0.0,0.0,0.0,0.0,0.0,0.0,0.0,0.0,0.0,0.0,0.0,0.0,0.0,0.0,0.0,0.0,0.0,0.0,0.0,0.0,0.0,0.0,0.0,0.0,0.0,0.0,0.0,0.0,0.0,0.0,0.0,0.0,0.0,0.0,0.0,0.0,0.0,0.0,0.0,0.0,0.0,0.0,0.0,0.0,0.0,0.0,0.0,0.0,0.0,0.0,0.0,0.0,0.0,0.0,0.0,0.0,0.0,0.0,0.0,0.0,0.0,0.0,0.0,0.0,0.0,0.0,0.0,0.0,0.0,0.0,0.0,0.0,0.0,0.0,0.0,0.0,0.0,0.0,0.0,0.0,0.0,0.0,0.0,0.0,0.0,0.0,0.1986,0.1677,0.1209,0.0,0.0,0.0,0.0,0.0,0.0,0.0,0.0,0.0,0.0,0.0,0.0,0.0,0.0,0.0,0.0,0.0,0.0,0.0,0.0,0.0,0.0,0.0,0.0,0.0,0.0,0.0,0.0,0.0,0.0,0.0,0.0,0.0,0.0,0.0,0.0,0.0,0.0,0.0,0.0,0.0,0.0,0.0,0.0,0.0,0.0,0.0,0.0,0.0,0.0,0.0,0.0,0.0,0.0,0.0,0.0,0.0,0.0,0.0,0.0,0.0,0.0,0.0,0.0,0.0,0.0,0.0,0.0,0.0,0.0,0.0,0.0,0.0,0.0,0.0,0.0,0.0,0.0,0.0,0.0,0.0,0.0,0.0,0.0,0.0,0.0,0.0,0.0,0.0,0.0,0.0,0.0,0.0,0.0,0.0,0.0,0.0,0.0,0.0,0.0,0.0,0.0,0.0,0.0,0.0,0.0,0.0,0.0,0.0,0.0,0.2286,0.2286,0.2042,0.0,0.1219,0.0,0.0,0.0,0.0,0.0,0.0,0.0,0.0,0.0,0.0,0.0,0.0,0.0,0.0,0.0,0.0,0.0,0.0,0.0,0.0,0.0,0.0,0.0,0.0,0.0,0.0,0.0,0.0,0.0,0.0,0.0,0.0,0.0,0.0,0.0,0.0,0.0,0.0,0.0,0.0,0.0,0.0,0.0,0.0,0.0,0.0,0.0,0.0,0.0,0.0,0.0,0.0,0.0,0.0,0.0,0.0,0.0,0.0,0.0,0.0,0.0,0.0,0.0,0.0,0.0,0.0,0.0,0.0,0.0,0.0,0.0,0.0,0.0,0.0,0.0,0.0,0.0,0.0,0.0,0.0,0.0,0.0,0.0,0.0,0.0,0.0,0.0,0.0,0.0,0.0,0.0,0.0,0.0,0.0,0.0,0.0,0.0,0.0,0.0,0.0,0.0,0.0,0.0,0.0,0.0,0.0,0.0,0.0,0.0,0.0,0.2636,0.2486,0.2374,0.191,0.0,0.0,0.0,0.0,0.0,0.0,0.0,0.0,0.0,0.0,0.0,0.0,0.0,0.0,0.0,0.0,0.0,0.0,0.0,0.0,0.0,0.0,0.0,0.0,0.0,0.0,0.0,0.0,0.0,0.0,0.0,0.0,0.0,0.0,0.0,0.0,0.0,0.0,0.0,0.0,0.0,0.0,0.0,0.0,0.0,0.0,0.0,0.0,0.0,0.0,0.0,0.0,0.0,0.0,0.0,0.0,0.0,0.0,0.0,0.0,0.0,0.0,0.0,0.0,0.0,0.0,0.0,0.0,0.0,0.0,0.0,0.0,0.0,0.0,0.0,0.0,0.0,0.0,0.0,0.0,0.0,0.0,0.0,0.0,0.0,0.0,0.0,0.0,0.0,0.0,0.0,0.0,0.0,0.0,0.0,0.0,0.0,0.0,0.0,0.0,0.0,0.0,0.0,0.0,0.0,0.0,0.0,0.0,0.0,0.0,0.3018,0.2938,0.2682,0.2537,0.2083,0.1187,0.0,0.0,0.0,0.0,0.0,0.0,0.0,0.0,0.0,0.0,0.0,0.0,0.0,0.0,0.0,0.0,0.0,0.0,0.0,0.0,0.0,0.0,0.0,0.0,0.0,0.0,0.0,0.0,0.0,0.0,0.0,0.0,0.0,0.0,0.0,0.0,0.0,0.0,0.0,0.0,0.0,0.0,0.0,0.0,0.0,0.0,0.0,0.0,0.0,0.0,0.0,0.0,0.0,0.0,0.0,0.0,0.0,0.0,0.0,0.0,0.0,0.0,0.0,0.0,0.0,0.0,0.0,0.0,0.0,0.0,0.0,0.0,0.0,0.0,0.0,0.0,0.0,0.0,0.0,0.0,0.0,0.0,0.0,0.0,0.0,0.0,0.0,0.0,0.0,0.0,0.0,0.0,0.0,0.0,0.0,0.0,0.0,0.0,0.0,0.0,0.0,0.0,0.0,0.0,0.0,0.0,0.0,0.0,0.3771,0.3406,0.3061,0.2797,0.2431,0.2,0.0,0.0,0.0,0.0,0.0,0.0,0.0,0.0,0.0,0.0,0.0,0.0,0.0,0.0,0.0,0.0,0.0,0.0,0.0,0.0,0.0,0.0,0.0,0.0,0.0,0.0,0.0,0.0,0.0,0.0,0.0,0.0,0.0,0.0,0.0,0.0,0.0,0.0,0.0,0.0,0.0,0.0,0.0,0.0,0.0,0.0,0.0,0.0,0.0,0.0,0.0,0.0,0.0,0.0,0.0,0.0,0.0,0.0,0.0,0.0,0.0,0.0,0.0,0.0,0.0,0.0,0.0,0.0,0.0,0.0,0.0,0.0,0.0,0.0,0.0,0.0,0.0,0.0,0.0,0.0,0.0,0.0,0.0,0.0,0.0,0.0,0.0,0.0,0.0,0.0,0.0,0.0,0.0,0.0,0.0,0.0,0.0,0.0,0.0,0.0,0.0,0.0,0.0,0.0,0.0,0.0,0.0,0.0,0.0,0.3121,0.3091,0.3013,0.2872,0.2707,0.2249,0.0,0.0,0.0,0.0,0.0,0.0,0.0,0.0,0.0,0.0,0.0,0.0,0.0,0.0,0.0,0.0,0.0,0.0,0.0,0.0,0.0,0.0,0.0,0.0,0.0,0.0,0.0,0.0,0.0,0.0,0.0,0.0,0.0,0.0,0.0,0.0,0.0,0.0,0.0,0.0,0.0,0.0,0.0,0.0,0.0,0.0,0.0,0.0,0.0,0.0,0.0,0.0,0.0,0.0,0.0,0.0,0.0,0.0,0.0,0.0,0.0,0.0,0.0,0.0,0.0,0.0,0.0,0.0,0.0,0.0,0.0,0.0,0.0,0.0,0.0,0.0,0.0,0.0,0.0,0.0,0.0,0.0,0.0,0.0,0.0,0.0,0.0,0.0,0.0,0.0,0.0,0.0,0.0,0.0,0.0,0.0,0.0,0.0,0.0,0.0,0.0,0.0,0.0,0.0,0.0,0.0,0.0,0.0,0.0,0.2866,0.0,0.297,0.2911,0.2693,0.2255,0.0,0.0,0.0,0.0,0.0,0.0,0.0,0.0,0.0,0.0,0.0,0.0,0.0,0.0,0.0,0.0,0.0,0.0,0.0,0.0,0.0,0.0,0.0,0.0,0.0,0.0,0.0,0.0,0.0,0.0,0.0,0.0,0.0,0.0,0.0,0.0,0.0,0.0,0.0,0.0,0.0,0.0,0.0,0.0,0.0,0.0,0.0,0.0,0.0,0.0,0.0,0.0,0.0,0.0,0.0,0.0,0.0,0.0,0.0,0.0,0.0,0.0,0.0,0.0,0.0,0.0,0.0,0.0,0.0,0.0,0.0,0.0,0.0,0.0,0.0,0.0,0.0,0.0,0.0,0.0,0.0,0.0,0.0,0.0,0.0,0.0,0.0,0.0,0.0,0.0,0.0,0.0,0.0,0.0,0.0,0.0,0.0,0.0,0.0,0.0,0.0,0.0,0.0,0.0,0.0,0.0,0.0,0.0,0.2984,0.316,0.3055,0.2964,0.2911,0.2411,0.197,0.0,0.0,0.0,0.0,0.0,0.0,0.0,0.0,0.0,0.0,0.0,0.0,0.0,0.0,0.0,0.0,0.0,0.0,0.0,0.0,0.0,0.0,0.0,0.0,0.0,0.0,0.0,0.0,0.0,0.0,0.0,0.0,0.0,0.0,0.0,0.0,0.0,0.0,0.0,0.0,0.0,0.0,0.0,0.0,0.0,0.0,0.0,0.0,0.0,0.0,0.0,0.0,0.0,0.0,0.0,0.0,0.0,0.0,0.0,0.0,0.0,0.0,0.0,0.0,0.0,0.0,0.0,0.0,0.0,0.0,0.0,0.0,0.0,0.0,0.0,0.0,0.0,0.0,0.0,0.0,0.0,0.0,0.0,0.0,0.0,0.0,0.0,0.0,0.0,0.0,0.0,0.0,0.0,0.0,0.0,0.0,0.0,0.0,0.0,0.0,0.0,0.0,0.0,0.0,0.0,0.0,0.0,0.0,0.0,0.2503,0.2793,0.2929,0.2889,0.2417,0.2123,0.0,0.0,0.0,0.0,0.0,0.0,0.0,0.0,0.0,0.0,0.0,0.0,0.0,0.0,0.0,0.0,0.0,0.0,0.0,0.0,0.0,0.0,0.0,0.0,0.0,0.0,0.0,0.0,0.0,0.0,0.0,0.0,0.0,0.0,0.0,0.0,0.0,0.0,0.0,0.0,0.0,0.0,0.0,0.0,0.0,0.0,0.0,0.0,0.0,0.0,0.0,0.0,0.0,0.0,0.0,0.0,0.0,0.0,0.0,0.0,0.0,0.0,0.0,0.0,0.0,0.0,0.0,0.0,0.0,0.0,0.0,0.0,0.0,0.0,0.0,0.0,0.0,0.0,0.0,0.0,0.0,0.0,0.0,0.0,0.0,0.0,0.0,0.0,0.0,0.0,0.0,0.0,0.0,0.0,0.0,0.0,0.0,0.0,0.0,0.0,0.0,0.0,0.0,0.0,0.0,0.0,0.0,0.0,0.0,0.1729,0.233,0.2722,0.2941,0.2469,0.2214,0.2213,0.0,0.0,0.0,0.0,0.0,0.0,0.0,0.0,0.0,0.0,0.0,0.0,0.0,0.0,0.0,0.0,0.0,0.0,0.0,0.0,0.0,0.0,0.0,0.0,0.0,0.0,0.0,0.0,0.0,0.0,0.0,0.0,0.0,0.0,0.0,0.0,0.0,0.0,0.0,0.0,0.0,0.0,0.0,0.0,0.0,0.0,0.0,0.0,0.0,0.0,0.0,0.0,0.0,0.0,0.0,0.0,0.0,0.0,0.0,0.0,0.0,0.0,0.0,0.0,0.0,0.0,0.0,0.0,0.0,0.0,0.0,0.0,0.0,0.0,0.0,0.0,0.0,0.0,0.0,0.0,0.0,0.0,0.0,0.0,0.0,0.0,0.0,0.0,0.0,0.0,0.0,0.0,0.0,0.0,0.0,0.0,0.0,0.0,0.0,0.0,0.0,0.0,0.0,0.0,0.0,0.0,0.0,0.0,0.0903,0.1712,0.2444,0.2971,0.25,0.2278,0.0,0.0,0.0,0.0,0.0,0.0,0.0,0.0,0.0,0.0,0.0,0.0,0.0,0.0,0.0,0.0,0.0,0.0,0.0,0.0,0.0,0.0,0.0,0.0,0.0,0.0,0.0,0.0,0.0,0.0,0.0,0.0,0.0,0.0,0.0,0.0,0.0,0.0,0.0,0.0,0.0,0.0,0.0,0.0,0.0,0.0,0.0,0.0,0.0,0.0,0.0,0.0,0.0,0.0,0.0,0.0,0.0,0.0,0.0,0.0,0.0,0.0,0.0,0.0,0.0,0.0,0.0,0.0,0.0,0.0,0.0,0.0,0.0,0.0,0.0,0.0,0.0,0.0,0.0,0.0,0.0,0.0,0.0,0.0,0.0,0.0,0.0,0.0,0.0,0.0,0.0,0.0,0.0,0.0,0.0,0.0,0.0,0.0,0.0,0.0,0.0,0.0,0.0,0.0,0.0,0.0,0.0,0.0,0.0,0.0963,0.1493,0.216,0.3023,0.2898,0.2697,0.0,0.0,0.0,0.0,0.0,0.0,0.0,0.0,0.0,0.0,0.0,0.0,0.0,0.0,0.0,0.0,0.0,0.0,0.0,0.0,0.0,0.0,0.0,0.0,0.0,0.0,0.0,0.0,0.0,0.0,0.0,0.0,0.0,0.0,0.0,0.0,0.0,0.0,0.0,0.0,0.0,0.0,0.0,0.0,0.0,0.0,0.0,0.0,0.0,0.0,0.0,0.0,0.0,0.0,0.0,0.0,0.0,0.0,0.0,0.0,0.0,0.0,0.0,0.0,0.0,0.0,0.0,0.0,0.0,0.0,0.0,0.0,0.0,0.0,0.0,0.0,0.0,0.0,0.0,0.0,0.0,0.0,0.0,0.0,0.0,0.0,0.0,0.0,0.0,0.0,0.0,0.0,0.0,0.0,0.0,0.0,0.0,0.0,0.0,0.0,0.0,0.0,0.0,0.0,0.0,0.0,0.0,0.0,0.0,0.0777,0.1327,0.205,0.2954,0.313,0.2977,0.0,0.0,0.0,0.0,0.0,0.0,0.0,0.0,0.0,0.0,0.0,0.0,0.0,0.0,0.0,0.0,0.0,0.0,0.0,0.0,0.0,0.0,0.0,0.0,0.0,0.0,0.0,0.0,0.0,0.0,0.0,0.0,0.0,0.0,0.0,0.0,0.0,0.0,0.0,0.0,0.0,0.0,0.0,0.0,0.0,0.0,0.0,0.0,0.0,0.0,0.0,0.0,0.0,0.0,0.0,0.0,0.0,0.0,0.0,0.0,0.0,0.0,0.0,0.0,0.0,0.0,0.0,0.0,0.0,0.0,0.0,0.0,0.0,0.0,0.0,0.0,0.0,0.0,0.0,0.0,0.0,0.0,0.0,0.0,0.0,0.0,0.0,0.0,0.0,0.0,0.0,0.0,0.0,0.0,0.0,0.0,0.0,0.0,0.0,0.0,0.0,0.0,0.0,0.0,0.0,0.0,0.0,0.0,-0.056,0.0379,0.1204,0.1955,0.2645,0.3182,0.3072,0.0,0.0,0.0,0.0,0.0,0.0,0.0,0.0,0.0,0.0,0.0,0.0,0.0,0.0,0.0,0.0,0.0,0.0,0.0,0.0,0.0,0.0,0.0,0.0,0.0,0.0,0.0,0.0,0.0,0.0,0.0,0.0,0.0,0.0,0.0,0.0,0.0,0.0,0.0,0.0,0.0,0.0,0.0,0.0,0.0,0.0,0.0,0.0,0.0,0.0,0.0,0.0,0.0,0.0,0.0,0.0,0.0,0.0,0.0,0.0,0.0,0.0,0.0,0.0,0.0,0.0,0.0,0.0,0.0,0.0,0.0,0.0,0.0,0.0,0.0,0.0,0.0,0.0,0.0,0.0,0.0,0.0,0.0,0.0,0.0,0.0,0.0,0.0,0.0,0.0,0.0,0.0,0.0,0.0,0.0,0.0,0.0,0.0,0.0,0.0,0.0,0.0,0.0,0.0,0.0,0.0,0.0,0.0,-0.1271,-0.0388,0.0544,0.1303,0.1911,0.2666,0.2781,0.0,0.0,0.0,0.0,0.0,0.0,0.0,0.0,0.0,0.0,0.0,0.0,0.0,0.0,0.0,0.0,0.0,0.0,0.0,0.0,0.0,0.0,0.0,0.0,0.0,0.0,0.0,0.0,0.0,0.0,0.0,0.0,0.0,0.0,0.0,0.0,0.0,0.0,0.0,0.0,0.0,0.0,0.0,0.0,0.0,0.0,0.0,0.0,0.0143,0.0,0.0,0.0,0.0,0.0,0.0,0.0,0.0,0.0,0.0,0.0,0.0,0.0,0.0,0.0,0.0,0.0,0.0,0.0,0.0,0.0,0.0,0.0,0.0,0.0,0.0,0.0,0.0,0.0,0.0,0.0,0.0,0.0,0.0,0.0,0.0,0.0,0.0,0.0,0.0,0.0,0.0,0.0,0.0,0.0,0.0,0.0,0.0,0.0,0.0,0.0,0.0,0.0,0.0,0.0,0.0,0.0,0.0,0.0,-0.1516,-0.0438,0.0,0.0573,0.1232,0.188,0.228,0.0,0.0,0.0,0.0,0.0,0.0,0.0,0.0,0.0,0.0,0.0,0.0,0.0,0.0,0.0,0.0,0.0,0.0,0.0,0.0,0.0,0.0,0.0,0.0,0.0,0.0,0.0,0.0,0.0,0.0,0.0,0.0,0.0,0.0,0.0,0.0,0.0,0.0,0.0,0.0,0.0,0.0,0.0,0.0,0.0,0.0,0.0,0.0,0.0,0.0,0.0,0.0,0.0,0.0,0.0,0.0,0.0,0.0,0.0,0.0,0.0,0.0,0.0,0.0,0.0,0.0,0.0,0.0,0.0,0.0,0.0,0.0,0.0,0.0,0.0,0.0,0.0,0.0,0.0,0.0,0.0,0.0,0.0,0.0,0.0,0.0,0.0,0.0,0.0,0.0,0.0,0.0,0.0,0.0,0.0,0.0,0.0,0.0,0.0,0.0,0.0,0.0,0.0,0.0,0.0,0.0,0.0,-0.1988,-0.1541,-0.045,-0.0391,-0.009,0.0535,0.118,0.1811,0.2432,0.0,0.0,0.0,0.0,0.0,0.0,0.0,0.0,0.0,0.0,0.0,0.0,0.0,0.0,0.0,0.0,0.0,0.0,0.0,0.0,0.0,0.0,0.0,0.0,0.0,0.0,0.0,0.0,0.0,0.0,0.0,0.0,0.0,0.0,0.0,0.0,0.0,0.0,-0.0544,-0.0549,0.0,0.0,0.0,0.0,0.0,0.0,0.0,0.0,-0.0295,0.0,0.0,0.0,0.0,0.0,0.0,0.0,0.0,0.0,0.0,0.0,0.0,0.0,0.0,0.0,0.0,0.0,0.0,0.0,0.0,0.0,0.0,0.0,0.0,0.0,0.0,0.0,0.0,0.0,0.0,0.0,0.0,0.0,0.0,0.0,0.0,0.0,0.0,0.0,0.0,0.0,0.0,0.0,0.0,0.0,0.0,0.0,0.0,0.0,0.0,0.0,0.0,0.0,0.0,0.0,0.0,-0.1937,-0.18,-0.1503,-0.1128,-0.0657,-0.0311,-0.0087,0.0976,0.1647,0.1832,0.0,0.0,0.0,0.0,0.0,0.0,0.0,0.0,0.0,0.0,0.0,0.0,0.0,0.0,0.0,0.0,0.0,0.0,0.0,0.0,0.0,0.0,0.0,0.0,0.0,0.0,0.0,0.0,0.0,0.0,0.0,0.0,0.0,0.0,0.0,0.0,0.0,0.0,0.0,-0.0176,0.0,0.0,0.0,0.0,0.0,0.0,0.0,0.0,0.0,-0.0541,0.0,0.0,0.0,0.0,0.0,0.0,0.0,0.0,0.0,0.0,0.0,0.0,0.0,0.0,0.0,0.0,0.0,0.0,0.0,0.0,0.0,0.0,0.0,0.0,0.0,0.0,0.0,0.0,0.0,0.0,0.0,0.0,0.0,0.0,0.0,0.0,0.0,0.0,0.0,0.0,0.0,0.0,0.0,0.0,0.0,0.0,0.0,0.0,0.0,0.0,0.0,0.0,0.0,0.0,0.0,-0.1603,-0.167,-0.1554,-0.1304,-0.1054,-0.0888,-0.0825,0.0288,0.0909,0.0,0.0,0.0,0.0,0.0,0.0,0.0,0.0,0.0,0.0,0.0,0.0,0.0,0.0,0.0,0.0,0.0,0.0,0.0,0.0,0.0,0.0,0.0,0.0,0.0,0.0,0.0,0.0,0.0,0.0,0.0,0.0,0.0,0.0,0.0,0.0,0.0,0.0,0.0,0.0,-0.0031,0.0,0.0217,0.0,0.0,0.0,0.0,0.0,0.0,-0.0944,-0.0698,0.0,0.0,0.0,0.0,0.0,0.0,0.0,0.0,0.0,0.0,0.0,0.0,0.0,0.0,0.0,0.0,0.0,0.0,0.0,0.0,0.0,0.0,0.0,0.0,0.0,0.0,0.0,0.0,0.0,0.0,0.0,0.0,0.0,0.0,0.0,0.0,0.0,0.0,0.0,0.0,0.0,0.0,0.0,0.0,0.0,0.0,0.0,0.0,0.0,0.0,0.0,0.0,0.0,0.0,0.0,-0.1299,-0.155,-0.1553,-0.1304,-0.1361,-0.1418,-0.1338,-0.0281,0.0257,0.0,0.0,0.0,0.0,0.0,0.0,0.0,0.0,0.0,0.0,0.0,0.0,0.0,0.0,0.0,0.0,0.0,0.0,0.0,0.0,0.0,0.0,0.0,0.0,0.0,0.0,0.0,0.0,0.0,0.0,0.0,0.0,0.0,0.0,0.0,0.0,0.0,0.0,0.0,0.0,0.0,0.0033,0.013,0.0064,0.0,0.0,0.0,0.0,-0.1503,-0.1127,0.0,0.0,0.0,0.0,0.0,0.0,0.0,0.0,0.0,0.0,0.0,0.0,0.0,0.0,0.0,0.0,0.0,0.0,0.0,0.0,0.0,0.0,0.0,0.0,0.0,0.0,0.0,0.0,0.0,0.0,0.0,0.0,0.0,0.0,0.0,0.0,0.0,0.0,0.0,0.0,0.0,0.0,0.0,0.0,0.0,0.0,0.0,0.0,0.0,0.0,0.0,0.0,0.0,0.0,0.0,0.0,-0.1293,-0.1286,-0.1271,-0.1302,-0.1361,-0.1366,-0.1312,-0.0205,0.0299,0.0,0.0,0.0,0.0,0.0,0.0,0.0,0.0,0.0,0.0,0.0,0.0,0.0,0.0,0.0,0.0,0.0,0.0,0.0,0.0,0.0,0.0,0.0,0.0,0.0,0.0,0.0,0.0,0.0,0.0,0.0,0.0,0.0,0.0,0.0,0.0,0.0,0.0,0.0,0.0,0.0,0.0247,0.0,-0.0591,-0.1036,0.0,0.0,-0.1078,-0.1235,-0.1144,0.0,0.0,0.0,0.0,0.0,0.0,0.0,0.0,0.0,0.0,0.0,0.0,0.0,0.0,0.0,0.0,0.0,0.0,0.0,0.0,0.0,0.0,0.0,0.0,0.0,0.0,0.0,0.0,0.0,0.0,0.0,0.0,0.0,0.0,0.0,0.0,0.0,0.0,0.0,0.0,0.0,0.0,0.0,0.0,0.0,0.0,0.0,0.0,0.0,0.0,0.0,0.0,0.0,0.0,0.0,-0.11,-0.1142,-0.1613,-0.1706,-0.1302,-0.1586,-0.1587,-0.1305,-0.0547,-0.0105,0.0,0.0,0.0,0.0,0.0,0.0,0.0,0.0,0.0,0.0,0.0,0.0,0.0,0.0,0.0,0.0,0.0,0.0,0.0,0.0,0.0,0.0,0.0,0.0,0.0,0.0,0.0,0.0,0.0,0.0,0.0,0.0,0.0,0.0,0.0,0.0,0.0,0.0,0.0,0.0,0.0,0.0,0.0,-0.0522,0.0,0.0,0.0,-0.1286,-0.1665,0.0,0.0,0.0,0.0,0.0,0.0,0.0,0.0,0.0,0.0,0.0,0.0,0.0,0.0,0.0,0.0,0.0,0.0,0.0,0.0,0.0,0.0,0.0,0.0,0.0,0.0,0.0,0.0,0.0,0.0,0.0,0.0,0.0,0.0,0.0,0.0,0.0,0.0,0.0,0.0,0.0,0.0,0.0,0.0,0.0,0.0,0.0,0.0,0.0,0.0,0.0,0.0,0.0,0.0,0.0,0.0,0.0,-0.1173,-0.209,-0.2305,-0.1665,-0.1972,-0.1972,-0.1626,-0.1021,0.0,0.0,0.0,0.0,0.0,0.0,0.0,0.0,0.0,0.0,0.0,0.0,0.0,0.0,0.0,0.0,0.0,0.0,0.0,0.0,0.0,0.0,0.0,0.0,0.0,0.0,0.0,0.3265,0.0,0.0,0.0,0.0,0.0,0.0,0.0,0.0,0.0,0.0,0.0,0.0,0.0,0.0,0.0149,-0.034,-0.0761,-0.107,0.0,0.0,-0.141,-0.1867,-0.1539,-0.1287,0.0,0.0,0.0,0.0,0.0,0.0,0.0,0.0,0.0,0.0,0.0,0.0,0.0,0.0,0.0,0.0,0.0,0.0,0.0,0.0,0.0,0.0,0.0,0.0,0.0,0.0,0.0,0.0,0.0,0.0,0.0,0.0,0.0,0.0,0.0,0.0,0.0,0.0,0.0,0.0,0.0,0.0,0.0,0.0,0.0,0.0,0.0,0.0,0.0,0.0,0.0,0.0,0.0,0.0,0.0,-0.1632,-0.2617,-0.2942,-0.2522,-0.2539,-0.2539,-0.2486,-0.1508,-0.0814,0.0,0.0,0.0,0.0,0.0,0.0,0.0,0.0,0.0,0.0,0.0,0.0,0.0,0.0,0.0,0.0,0.0,0.0,0.0,0.0,0.0,0.0,0.0,0.0,0.0,0.0,0.0,0.0,0.0,0.0,0.0,0.0,0.0,0.0,0.0,0.0,0.0,0.0,0.0,0.0,0.0,-0.0872,-0.1407,-0.182,-0.1941,0.0,0.0,-0.144,-0.1541,-0.1454,-0.1274,-0.0997,0.0,0.0,0.0,0.0,0.0,0.0,0.0,0.0,0.0,0.0,0.0,0.0,0.0,0.0,0.0,0.0,0.0,0.0,0.0,0.0,0.0,0.0,0.0,0.0,0.0,0.0,0.0,0.0,0.0,0.0,0.0,0.0,0.0,0.0,0.0,0.0,0.0,0.0,0.0,0.0,0.0,0.0,0.0,0.0,0.0,0.0,0.0,0.0,0.0,0.0,0.0,0.0,0.0,-0.2535,-0.2638,-0.3823,-0.4031,-0.3192,-0.339,-0.3229,-0.2601,-0.2102,-0.1504,0.0,0.0,0.0,0.0,0.0,0.0,0.0,0.0,0.0,0.0,0.0,0.0,0.0,0.0,0.0,0.0,0.0,0.0,0.0,0.0,0.0,0.0,0.0,0.0,0.0,0.0,0.0,0.0,0.3176,0.3029,0.2788,0.0,0.0,0.0,0.0,0.0,0.0,0.0,0.0,0.0,0.0,-0.174,-0.1581,-0.225,0.0,0.0,-0.2202,-0.2406,-0.2398,-0.2053,-0.1663,-0.1455,-0.1191,0.0,0.0,0.0,0.0,0.0,0.0,0.0,0.0,0.0,0.0,0.0,0.0,0.0,0.0,0.0,0.0,0.0,0.0,0.0,0.0,0.0,0.0,0.0,0.0,0.0,0.0,0.0,0.0,0.0,0.0,0.0,0.0,0.0,0.0,0.0,0.0,0.0,0.0,0.0,0.0,0.0,0.0,0.0,0.0,0.0,0.0,0.0,0.0,0.0,0.0,0.0,0.0,-0.3266,-0.3496,-0.4779,-0.5024,-0.4159,-0.4221,-0.3946,-0.3247,-0.2773,-0.2182,0.0,0.0,0.0,0.0,0.0,0.0,0.0,0.0,0.0,0.0,0.0,0.0,0.0,0.0,0.0,0.0,0.0,0.0,0.0,0.0,0.0,0.0,0.0,0.0,0.0,0.0,0.0,0.0,0.2975,0.2784,0.2569,0.0,0.0,0.0,0.0,0.0,0.0,0.0,0.0,0.0,0.0,-0.2339,-0.2004,-0.2736,-0.3081,-0.2387,-0.2541,-0.2708,-0.2586,-0.2289,-0.1951,-0.1642,0.0,0.0,0.0,0.0,0.0,0.0,0.0,0.0,0.0,0.0,0.0,0.0,0.0,0.0,0.0,0.0,0.0,0.0,0.0,0.0,0.0,0.0,0.0,0.0,0.0,0.0,0.0,0.0,0.0,0.0,0.0745,0.0,0.0,0.0,0.0,0.0,0.0,0.0,0.0,0.0,0.0,0.0,0.0,0.0,0.0,0.0,0.0,0.0,0.0,0.0,0.0,0.0,0.0,-0.4091,-0.3933,-0.53,-0.5838,-0.5541,-0.501,-0.4704,-0.4587,-0.3637,-0.2696,-0.1813,0.0,0.0,0.0,0.0,0.0,0.0,0.0,0.0,0.0,0.0,0.0,0.0,0.0,0.0,0.0,0.0,0.0,0.0,0.0,0.0,0.0,0.0,0.0,0.0,0.0,0.0,0.25,0.204,0.1557,0.0,0.0,0.0,0.0,0.0,0.0,0.0,0.0,0.0,0.0,-0.2175,-0.2679,-0.2928,-0.3518,-0.3525,-0.2433,-0.2262,-0.2128,-0.1756,-0.2031,-0.2067,0.0,0.0,0.0,0.0,0.0,0.0,0.0,0.0,0.0,0.0,0.0,0.0,0.0,0.0,0.0,0.0,0.0,0.0,0.0,0.0,0.0,0.0,0.0,0.0,0.0,0.0,0.0,0.0326,0.0425,0.0,0.0,0.0,0.0,0.0,0.0,0.0,0.0,0.0,0.0,0.0,-0.3312,-0.3148,0.0,0.0,0.0,0.0,0.0,0.0,0.0,0.0,0.0,0.0,0.0,0.0,-0.4563,-0.5303,-0.6203,-0.6537,-0.6276,-0.6054,-0.5553,-0.4737,-0.4284,-0.3437,-0.21,0.0,0.0,0.0,0.0,0.0,0.0,0.0,0.0,0.0,0.0,0.0,0.0,0.0,0.0,0.0,0.0,0.0,0.0,0.0,0.0,0.0,0.0,0.0,0.0,0.0,0.1531,0.0,0.0,0.0,0.0,0.0,0.0,0.0,0.0,0.0,0.0,0.0,-0.2055,-0.2338,-0.3264,-0.3845,-0.3564,-0.4044,-0.4388,0.0,0.0,0.0,0.0,0.0,0.0,0.0,0.0,0.0,0.0,0.0,0.0,0.0,0.0,-0.5078,-0.3629,-0.3229,-0.3022,-0.2717,0.0,0.0,0.0,0.0,0.0,0.0,0.0,0.0,0.0,0.0,0.0,0.0,0.0,0.0,-0.0952,0.0,-0.0998,0.0,0.0,0.0,0.0,0.0,0.0,0.0,0.0,-0.4006,-0.4207,-0.4205,-0.405,-0.4097,0.0,-0.3723,-0.3197,0.0,0.0,0.0,0.0,0.0,0.0,0.0,0.0,-0.518,-0.6045,-0.6739,-0.7003,-0.6892,-0.6714,-0.6215,-0.5395,-0.4738,-0.3826,-0.2666,-0.1502,-0.0735,0.0,0.0,0.0,0.0,0.0,0.0,0.0,0.0,0.0,0.0,0.0,0.0,0.0,0.0,0.0,0.0,0.0,0.0,0.0,0.0,0.0,0.0,0.0,0.0848,0.0,0.0,0.0,0.0,0.0,0.0,0.0,0.0,0.0,-0.1653,-0.2812,-0.3685,-0.3446,-0.4493,-0.5085,-0.4371,0.0,0.0,0.0,0.0,0.0,0.0,0.0,-0.5647,-0.5354,-0.5129,-0.4993,-0.4997,-0.5161,-0.5782,-0.7299,0.0,0.0,-0.6484,-0.6084,-0.5878,-0.5603,-0.5143,-0.4711,-0.453,-0.4475,-0.4487,0.0,0.0,0.0,0.0,0.0,0.0,0.0,0.0,-0.2937,-0.2877,0.0,-0.2876,0.0,0.0,0.0,0.0,0.0,-0.4273,0.0,0.0,-0.5439,-0.5745,-0.5574,-0.5048,-0.5135,-0.5729,-0.4472,-0.4097,-0.4556,-0.3611,0.0,0.0,0.0,0.0,0.0,0.0,-0.5907,-0.63,-0.6916,-0.7343,-0.7514,-0.6945,-0.6598,-0.6518,-0.4928,-0.3843,-0.3417,-0.2352,-0.1346,-0.0496,-0.0424,0.0,0.0,0.0,0.0,0.0,0.0,0.0,0.0,0.0,0.0,0.0,0.0,0.0,0.0,0.0,0.0,0.0,0.0,0.0,0.0,0.0373,0.0,0.0,0.0,0.0,0.0,0.0,0.0,0.0,0.0,0.0,-0.3602,-0.461,-0.5257,-0.4627,0.0,0.0,0.0,0.0,-0.6614,-0.6365,-0.6246,-0.6079,-0.5689,-0.6356,-0.661,-0.555,0.0,0.0,-0.5955,-0.6208,-0.6767,-0.7382,-0.8886,-1.0179,-1.0673,-1.0289,-0.9808,-0.9251,-0.8065,-0.7027,-0.6452,-0.6367,-0.6266,-0.5888,0.0,0.0,0.0,0.0,-0.4142,-0.4203,-0.4272,-0.4126,-0.3937,-0.3748,-0.3594,0.0,0.0,0.0,0.0,0.0,0.0,-0.543,-0.5838,-0.6051,-0.6259,-0.6383,-0.6222,-0.6238,-0.6401,-0.5935,-0.5719,-0.577,-0.5358,-0.4639,-0.3677,0.0,0.0,0.0,0.0,-0.7044,-0.761,-0.7897,-0.8156,-0.8356,-0.7633,-0.7022,-0.6602,-0.5396,-0.4589,-0.4254,-0.3072,-0.2219,-0.174,-0.0893,0.0,0.0,0.0,0.0,0.0,0.0,0.0,0.0,0.0,0.0,0.0,0.0,0.0,0.0,0.0,0.0,0.0,0.0,0.0,-0.0058,-0.0397,-0.0813,0.0,0.0,0.0,0.0,0.0,0.0,0.0,0.0,0.0,-0.652,-0.6715,-0.6609,0.0,0.0,-0.7118,-0.6833,-0.7047,-0.7428,-0.8096,-0.8003,0.0,-0.8491,-0.8524,-0.8429,-0.8237,-0.8391,-0.8429,-0.8201,-0.826,-0.8567,-0.9389,-0.9953,-1.0846,-1.257,-1.2062,-1.1197,-1.0835,-1.0474,-1.019,-0.9981,-0.938,-0.8812,-0.898,-0.7293,-0.6344,-0.5983,-0.6039,-0.6458,-0.6746,-0.6871,-0.6413,-0.6179,-0.6066,-0.5481,-0.5142,-0.4965,-0.471,0.0,0.0,0.0,-0.6741,-0.7508,-0.7541,-0.7645,-0.7798,-0.7802,-0.7802,-0.7798,-0.7736,-0.7673,-0.7573,-0.7538,-0.6921,-0.581,0.0,0.0,-0.6193,-0.7118,-0.7976,-0.8725,-0.891,-0.8903,-0.8699,-0.7902,-0.733,-0.6945,-0.6089,-0.5431,-0.5004,-0.3955,-0.3186,-0.2775,-0.1951,-0.1396,0.0,0.0,0.0,0.0,0.0,0.0,0.0,0.0,0.0,0.0,0.0,0.0837,0.0482,0.0,0.0,0.0,-0.0502,-0.0997,-0.1288,-0.1911,0.0,0.0,0.0,0.0,0.0,0.0,0.0,-0.5735,-0.7161,-0.816,-0.8293,-0.8454,-0.832,-0.7544,-0.8098,-0.8425,-0.8008,0.0,-0.863,-0.9343,-0.9324,-0.9312,-0.9787,-1.0177,-1.0531,-1.0985,-1.0521,-1.0088,-0.9919,-0.9477,-0.9298,-0.975,-1.0263,-1.1025,-1.2477,-1.2775,-1.2949,-1.3042,-1.2714,-1.2456,-1.2318,-1.1452,-1.0649,-1.2214,-1.1866,-0.9626,-0.8663,-0.8663,-0.9615,-1.0016,-0.9974,-0.9285,-0.9045,-0.905,-0.7984,-0.7457,-0.7306,-0.6779,0.0,-0.7642,-0.7723,-0.8364,-0.9429,-0.9514,-0.9565,-0.9601,-0.957,-0.9565,-0.9565,-0.9565,-0.9555,-0.9495,-0.9699,-0.9537,-0.8955,-0.7283,-0.6879,-0.7792,-0.8204,-0.8852,-0.9728,-0.9899,-0.9599,-0.8699,-0.7978,-0.7561,-0.7484,-0.6934,-0.6346,-0.5678,-0.4879,-0.4174,-0.3615,-0.3332,-0.2853,-0.2119,0.0,0.0,0.0,0.0,0.0,0.0,0.0,0.0,0.0,0.0,0.0,0.0,0.0,0.0,0.0,-0.1918,0.0,-0.3032,-0.379,0.0,0.0,0.0,-0.5028,-0.5336,-0.6091,-0.6672,-0.6771,0.0,0.0,-0.9186,-0.9914,-1.0063,-0.9039,-0.9792,-1.0052,-0.9035,-0.944,-0.9927,-1.0168,-1.0126,-1.0065,-1.0122,-1.1298,-1.2465,-1.3165,-1.2442,-1.1574,-1.1293,-1.0308,-0.9485,-0.9505,-1.0154,-1.0824,-1.0878,-1.281,-1.4635,-1.5151,-1.4654,-1.4031,-1.3727,-1.2882,-1.1861,-1.3227,-1.3144,-1.2566,-1.1841,-1.1054,-1.1106,-1.1203,-1.1278,-1.0723,-1.0398,-1.024,-0.9103,-0.8567,-0.8468,-0.9002,-0.9403,-0.9679,-0.9534,-0.9756,-1.0246,-1.0179,-1.0203,-1.0326,-1.0326,-1.0246,-1.0118,-1.0123,-0.9955,-0.9679,-0.9841,-0.9922,-0.9795,-0.9327,-0.898,-0.8823,-0.9701,-1.0346,-1.0756,-1.0777,-1.0126,-0.8742,-0.8508,-0.8055,-0.7296,-0.7131,-0.6757,-0.6143,-0.5347,-0.4748,-0.4267,-0.3493,-0.2945,-0.2712,-0.2445,0.0,0.0,0.0,0.0,0.0,0.0,0.0,0.0,0.0,-0.1575,-0.1296,0.0,-0.2325,0.0,-0.3424,-0.3874,-0.4244,-0.4477,0.0,0.0,-0.5735,-0.6127,-0.8172,-0.7865,-0.796,-0.9201,-0.9754,-1.0048,-1.0105,-1.0413,-1.0512,-1.0075,-1.0243,-1.0309,-1.0048,-1.0154,-1.0313,-1.0534,-1.0536,-1.0518,-1.0673,-1.1574,-1.2827,-1.3799,-1.3671,-1.3385,-1.3226,-1.2269,-1.1403,-1.1194,-1.0543,-1.0584,-1.1401,-1.2082,-1.2998,-1.4487,-1.5281,-1.5638,-1.5313,-1.4436,-1.3414,-1.4593,-1.4547,-1.46,-1.4222,-1.3631,-1.3206,-1.3133,-1.3171,-1.2486,-1.2079,-1.1907,-1.0755,-1.008,-0.9797,-1.0335,-1.0737,-1.1106,-1.0948,-1.1235,-1.1826,-1.174,-1.174,-1.1875,-1.1826,-1.1783,-1.1655,-1.1612,-1.146,-1.1387,-1.146,-1.1505,-1.1502,-1.1565,-1.1316,-1.0754,-1.087,-1.1144,-1.1626,-1.126,-1.0657,-0.9793,-0.9415,-0.8727,-0.7706,-0.7798,-0.741,-0.6405,-0.5916,-0.5451,-0.5009,-0.4403,-0.3837,-0.3428,-0.3597,-0.349,0.0,0.0,0.0,0.0,0.0,0.0,0.0,0.0,0.0,0.0,0.0,-0.3455,-0.3985,-0.4701,-0.529,-0.5543,-0.6083,-0.6791,-0.7724,-0.7469,-0.8036,-1.0067,-0.947,-0.9681,-1.1603,-1.1491,-1.1509,-1.1988,-1.2135,-1.2163,-1.2051,-1.2037,-1.1635,-1.0617,-1.0443,-1.0586,-1.0676,-1.0692,-1.1122,-1.1987,-1.3166,-1.4352,-1.5316,-1.5263,-1.4896,-1.4771,-1.3757,-1.2758,-1.2106,-1.1289,-1.0674,-1.0975,-1.1378,-1.2124,-1.3478,-1.49,-1.5692,-1.5775,-1.535,-1.4675,-1.5825,-1.5825,-1.5825,-1.5825,-1.5744,-1.5291,-1.5095,-1.5017,-1.4153,-1.3722,-1.3529,-1.2618,-1.191,-1.1348,-1.144,-1.1819,-1.2324,-1.2275,-1.2735,-1.3483,-1.3434,-1.344,-1.3476,-1.3483,-1.3476,-1.344,-1.3264,-1.3222,-1.3398,-1.3434,-1.3397,-1.3372,-1.3531,-1.3367,-1.2812,-1.1828,-1.1633,-1.2268,-1.1595,-1.1149,-1.1037,-1.0389,-0.9505,-0.8407,-0.8632,-0.8115,-0.6781,-0.6675,-0.6483,-0.5992,-0.5874,-0.5438,-0.4596,-0.5199,-0.535,0.0,-0.5641,0.0,0.0,0.0,0.0,0.0,0.0,0.0,0.0,-0.4253,-0.4394,-0.4719,-0.5918,-0.6766,-0.697,-0.7972,-0.8702,-0.8909,-0.9257,-0.9918,-1.0923,-1.0671,-1.1154,-1.3256,-1.2846,-1.2792,-1.3588,-1.3976,-1.4078,-1.3954,-1.3901,-1.3194,-1.142,-1.1179,-1.1273,-1.1126,-1.1122,-1.2037,-1.3814,-1.5156,-1.6127,-1.7094,-1.6723,-1.6133,-1.6121,-1.5041,-1.3846,-1.2913,-1.2287,-1.1512,-1.0374,-1.0997,-1.1736,-1.2402,-1.3743,-1.4985,-1.5689,-1.5864,-1.5504,-1.5825,-1.5825,-1.5825,-1.5825,-1.5818,-1.5712,-1.5531,-1.5297,-1.4928,-1.4321,-1.3676,-1.4174,-1.3886,-1.3204,-1.3881,-1.4172,-1.4046,-1.3865,-1.3873,-1.3955,-1.3737,-1.3786,-1.3955,-1.3955,-1.387,-1.3652,-1.3603,-1.3519,-1.3398,-1.3568,-1.362,-1.3652,-1.3596,-1.3467,-1.3126,0.0,0.0,0.0,-1.2003,-1.1515,-1.0887,-1.0694,-1.011,-0.9155,-0.9073,0.0,-0.8242,-0.8255,-0.8161,-0.7894,-0.796,0.0,0.0,0.0,0.0,0.0,0.0,0.0,0.0,0.0,0.0,0.0,-0.7579,-0.6307,-0.5345,-0.6145,-0.6841,-0.7104,-0.7478,-0.7955,-0.8516,-0.876,-0.9042,-0.9406,-0.9508,-0.9786,-1.0321,-1.0329,-1.0583,-1.12,-1.1964,-1.2467,-1.2896,-1.3491,-1.4132,-1.4239,-1.4132,-1.3901,-1.3483,-1.3352,-1.3431,-1.3491,-1.3334,-1.3927,-1.5322,-1.5767,-1.6371,-1.7206,-1.7477,-1.7259,-1.7147,-1.6309,-1.5512,-1.5064,-1.4054,-1.2761,-1.1728,-1.1422,-1.1428,-1.1473,-1.2466,-1.378,-1.5765,-1.6186,-1.5894,-1.5825,0.0,-1.5825,-1.5825,0.0,-1.5825,-1.5698,-1.5605,-1.5451,-1.5029,-1.4526,-1.4988,-1.4864,-1.4315,-1.4777,-1.4877,-1.473,-1.4451,-1.4312,-1.4295,-1.4021,-1.3955,-1.4088,-1.4088,-1.4046,-1.387,-1.3779,-1.3737,-1.3737,-1.3688,-1.3779,-1.3906,-1.3851,-1.3647,-1.3213,-1.2759,-1.2452,-1.2305,-1.2077,-1.1818,-1.1409,-1.1298,-1.0785,-0.9844,-0.9907,0.0,0.0,0.0,0.0,0.0,0.0,0.0,0.0,-0.9019,0.0,-0.9423,-0.9894,-1.0307,-1.0545,-1.0557,-1.0519,-1.053,-0.9276,-0.7842,-0.6408,-0.7241,-0.7875,-0.8016,-0.8347,-0.872,-0.9043,-0.9202,-0.9571,-1.0297,-1.0438,-1.1016,-1.2265,-1.1741,-1.1919,-1.3633,-1.3599,-1.3593,-1.4835,-1.5423,-1.5802,-1.5802,-1.5802,-1.579,-1.5695,-1.4835,-1.4132,-1.4137,-1.4791,-1.54,-1.5994,-1.6659,-1.7094,-1.7696,-1.7682,-1.7595,-1.7589,-1.7147,-1.652,-1.5838,-1.4872,-1.3931,-1.2714,-1.2183,-1.2096,-1.2646,-1.3213,-1.4211,-1.5892,-1.6152,-1.5908,-1.5825,-1.5825,-1.5825,-1.5825,-1.5825,-1.5825,-1.5825,-1.5825,0.0,0.0,0.0,-1.5478,-1.5344,-1.5162,-1.5117,-1.5129,-1.5068,-1.479,-1.4616,-1.4509,-1.4275,-1.4142,-1.4088,-1.4088,-1.4088,-1.4088,-1.387,-1.387,-1.4082,-1.387,-1.387,-1.4082,-1.4088,-1.3821,-1.3247,-1.2739,-1.2458,-1.2458,-1.2225,-1.2114,-1.2153,-1.2009,-1.1521,-1.0783,-1.1019,-1.064,-0.9548,-0.9821,-0.9774,-0.9357,-0.9506,-0.9637,-0.9759,-1.0432,-1.1022,-1.1488,-1.2067,-1.2544,-1.2748,-1.2772,-1.25,-1.1777,-1.0578,-0.923,-0.7717,-0.8142,-0.8538,-0.8635,-0.929,-0.9768,-0.9817,-1.0015,-1.0498,-1.137,-1.1578,-1.2515,-1.4319,-1.3287,-1.332,-1.6091,-1.524,-1.5051,-1.6817,-1.7259,-1.7508,-1.7488,-1.746,-1.7866,-1.7743,-1.6237,-1.4936,-1.506,-1.5839,-1.659,-1.6927,-1.7574,-1.8225,-1.8584,-1.8252,-1.7905,-1.7838,-1.774,-1.7088,-1.6056,-1.5565,-1.4847,-1.364,-1.315,-1.3232,-1.3902,-1.437,-1.4863,-1.568,-1.5861,-1.5824,-1.5825,-1.5825,-1.5825,-1.5825,-1.5825,-1.5825,-1.5825,-1.5825,-1.5825,-1.5758,-1.5765,-1.5724,-1.5698,-1.5705,-1.5664,-1.5571,-1.5337,-1.5297,-1.5003,-1.4522,-1.4482,-1.4322,-1.4088,-1.4088,-1.4088,-1.4088,-1.4039,-1.4046,-1.4088,-1.4046,-1.4082,-1.4088,-1.4088,-1.3915,-1.354,-1.3207,-1.308,-1.308,-1.264,-1.2563,-1.2765,-1.2765,-1.2667,-1.2544,-1.2485,-1.2462,-1.2257,-1.229,-1.2277,-1.2242,-1.2439,-1.2485,-1.2314,-1.2569,-1.2744,-1.2632,-1.3108,-1.3419,-1.3458,-1.3524,-1.3179,-1.2391,-1.2249,-1.1421,-0.9613,-0.9631,-0.9911,-1.04,-1.1253,-1.195,-1.2198,-1.215,-1.2198,-1.2436,-1.2516,-1.2785,-1.348,-1.3139,-1.3327,-1.441,-1.4885,-1.534,-1.6128,-1.6814,-1.7259,-1.7329,-1.771,-1.849,-1.9166,-1.8323,-1.7233,-1.7094,-1.7285,-1.7787,-1.852,-1.8883,-1.9412,-2.0339,-1.9598,-1.8916,-1.8819,-1.8224,-1.7494,-1.6982,-1.657,-1.5882,-1.4665,-1.423,-1.3883,-1.3559,-1.3955,-1.4569,-1.4865,-1.5347,-1.5878,-1.6298,-1.5825,-1.5825,-1.5825,-1.5825,-1.5825,-1.5825,-1.5825,-1.5825,-1.5825,-1.5825,-1.5825,-1.5825,-1.5825,-1.5825,-1.5765,-1.5625,-1.5464,-1.5251,-1.499,-1.483,-1.4603,-1.4342,-1.4315,-1.4242,-1.4095,-1.4088,-1.4088,-1.4088,-1.4088,-1.4088,-1.4075,-1.3928,-1.374,-1.3593,-1.3313,-1.3287,-1.3393,-1.2844,-1.268,-1.2889,-1.2565,-1.2531,-1.2896,-1.2752,-1.2681,-1.2687,-1.2921,-1.2915,-1.2687,-1.3015,-1.3213,-1.324,-1.3327,-1.3413,-1.3521,-1.3728,-1.3888,-1.3888,-1.3882,-1.384,-1.3584,-1.314,-1.2634,-1.2071,-1.1555,-1.1361,-1.1609,-1.2193,-1.2581,-1.2684,-1.2684,-1.2926,-1.3516,-1.3565,-1.391,-1.4532,-1.4185,-1.428,-1.5122,-1.5252,-1.5448,-1.6253,-1.6682,-1.6914,-1.6995,-1.7668,-1.8741,-2.0074,-1.9666,-1.914,-1.9361,-1.9531,-1.9792,-2.0263,-2.0323,-2.0583,-2.1059,-2.0592,-1.9923,-1.9369,-1.8608,-1.7956,-1.7113,-1.668,-1.6226,-1.5367,-1.5207,-1.4879,-1.4669,-1.4717,-1.5064,-1.5213,-1.5658,-1.6064,-1.6857,-1.6157,-1.5872,-1.5825,-1.5825,-1.5825,-1.5825,-1.5825,-1.5825,-1.592,-1.6109,-1.592,-1.5825,-1.5825,-1.5825,-1.5825,-1.5798,-1.5598,-1.5458,-1.5378,-1.5209,-1.4903,-1.4629,-1.4519,-1.4396,-1.4195,-1.4122,-1.4088,-1.4088,-1.4088,-1.4088,-1.4062,-1.3854,-1.37,-1.37,-1.352,-1.352,-1.3673,-1.3155,-1.2964,-1.3166,-1.2675,-1.2634,-1.3125,-1.3004,-1.2924,-1.2957,-1.3246,-1.3246,-1.3004,-1.3253,-1.3467,-1.368,-1.37,-1.3848,-1.4062,-1.4088,-1.4088,-1.4088,-1.4088,-1.4223,-1.4537,-1.4077,-1.3985,-1.4448,-1.3897,-1.3204,-1.2872,-1.3167,-1.3457,-1.3505,-1.3457,-1.3746,-1.4538,-1.4634,-1.4996,-1.5884,-1.5382,-1.5287,-1.6292,-1.5789,-1.5714,-1.6423,-1.6647,-1.6821,-1.7281,-1.792,-1.903,-2.0491,-2.0925,-2.1196,-2.1424,-2.1425,-2.1227,-2.149,-2.1518,-2.1658,-2.1846,-2.1574,-2.0858,-1.9966,-1.9272,-1.8368,-1.7211,-1.6723,-1.64,-1.6052,-1.5891,-1.5817,-1.5627,-1.5635,-1.5757,-1.5856,-1.6131,-1.6368,-1.7279,-1.7052,-1.6204,-1.5825,-1.5825,-1.5825,-1.5825,-1.5825,-1.5825,-1.6346,-1.6998,-1.6204,-1.5872,-1.5825,-1.5825,-1.5825,-1.5825,-1.5751,-1.5645,-1.5424,-1.5371,-1.5204,-1.4961,-1.4649,-1.4509,-1.4436,-1.4215,-1.4088,-1.4088,-1.4088,-1.4088,-1.4088,-1.4055,-1.4035,-1.4035,-1.4008,-1.4015,-1.4041,-1.3762,-1.3707,-1.3966,-1.3924,-1.3917,-1.3959,-1.3959,-1.3966,-1.3884,-1.4008,-1.4001,-1.3966,-1.3988,-1.4008,-1.4035,-1.4041,-1.4055,-1.413,-1.413,-1.4088,-1.4088,-1.4088,-1.4264,-1.4579,-1.5497,-1.6172,-1.6531,-1.6732,-1.6042,-1.4813,-1.5003,-1.5391,-1.5534,-1.5486,-1.5581,-1.5724,-1.5771,-1.575,-1.5879,-1.5777,-1.589,-1.6273,-1.6159,-1.6308,-1.6517,-1.6552,-1.698,-1.823,-1.8879,-1.9979,-2.1926,-2.261,-2.3006,-2.3205,-2.2367,-2.1614,-2.2147,-2.2376,-2.2722,-2.3468,-2.3022,-2.2013,-2.0955,-1.9833,-1.8765,-1.7745,-1.7065,-1.6804,-1.642,-1.6226,-1.6119,-1.5945,-1.5899,-1.5864,-1.6172,-1.646,-1.656,-1.838,-1.7279,-1.6857,-1.6346,-1.5825,-1.5825,-1.5825,-1.5825,-1.644,-1.6904,-1.7326,-1.7498,-1.7271,-1.6676,-1.6062,-1.5825,-1.5825,-1.5825,-1.5765,-1.5658,-1.5651,-1.5498,-1.5211,-1.4923,-1.4696,-1.4459,-1.4229,-1.4088,-1.4088,-1.4088,-1.4088,-1.4088,-1.4088,-1.4088,-1.4088,-1.4088,-1.4088,-1.4088,-1.3997,-1.3997,-1.4039,-1.3828,-1.3828,-1.4046,-1.3955,-1.387,-1.387,-1.3997,-1.4004,-1.387,-1.4004,-1.4088,-1.4088,-1.4088,-1.4334,-1.4783,-1.4866,-1.4622,-1.413,-1.4573,-1.5,-1.5254,-1.6424,-1.7326,-1.7619,-1.8003,-1.7816,-1.7156,-1.6803,-1.6669,-1.6716,-1.7225,-1.7584,-1.7584,-1.7537,-1.7311,-1.677,-1.6676,-1.6543,-1.6143,-1.6019,-1.6046,-1.6194,-1.6608,-1.7417,-1.8627,-1.944,-2.0711,-2.2532,-2.305,-2.3464,-2.3938,-2.3379,-2.3129,-2.3388,-2.3497,-2.3746,-2.3954,-2.3845,-2.3129,-2.1946,-2.0729,-1.9494,-1.8331,-1.7615,-1.7046,-1.6587,-1.6373,-1.6219,-1.6072,-1.6086,-1.6139,-1.6259,-1.6697,-1.6884,-1.9476,-1.8149,-1.7831,-1.7271,-1.6615,-1.6615,-1.6615,-1.6709,-1.7412,-1.7878,-1.8149,-1.8603,-1.8557,-1.801,-1.7077,-1.6622,-1.6622,-1.6622,-1.6615,-1.6567,-1.6339,-1.6135,-1.5908,-1.5266,-1.4901,-1.4616,-1.4262,-1.4088,-1.4088,-1.4088,-1.4088,-1.4088,-1.4088,-1.4088,-1.4088,-1.4088,-1.4088,-1.4088,-1.4088,-1.4088,-1.4039,-1.3786,-1.3743,-1.4046,-1.3906,-1.3822,-1.3822,-1.4243,-1.437,-1.4195,-1.4573,-1.4824,-1.4824,-1.4824,-1.511,-1.5636,-1.576,-1.5477,-1.4859,-1.5394,-1.5865,-1.6104,-1.7305,-1.8208,-1.8499,-1.8941,-1.9185,-1.9109,-1.8511,-1.8102,-1.7831,-1.838,-1.8796,-1.8796,-1.8796,-1.8473,-1.7831,-1.7512,-1.7005,-1.6346,-1.6042,-1.5825,-1.592,-1.6636,-1.766,-1.8665,-1.9675,-2.0874,-2.2333,-2.2849,-2.3169,-2.3868,-2.406,-2.4152,-2.4211,-2.4102,-2.4211,-2.4211,-2.4102,-2.3696,-2.2778,-2.1553,-2.031,-1.9111,-1.8022,-1.7143,-1.6737,-1.6493,-1.6266,-1.6219,-1.6253,-1.6359,-1.6426,-1.6931,-1.7239,-2.0249,-2.0022,-1.9155,-1.8611,-1.8657,-1.8557,-1.8611,-1.8465,-1.8696,-1.9255,-1.984,-1.9247,-1.9338,-2.0022,-1.9063,-1.865,-1.8603,-1.8519,-1.8465,-1.8373,-1.7645,-1.7232,-1.712,-1.5738,-1.5046,-1.5123,-1.467,-1.4271,-1.4173,-1.4088,-1.4088,-1.4088,-1.4088,-1.4088,-1.4088,-1.4088,-1.4088,-1.4088,-1.4166,-1.4173,-1.4166,-1.4124,-1.4166,-1.425,-1.4088,-1.4039,-1.4166,-1.4908,-1.5276,-1.5311,-1.6008,-1.6494,-1.6535,-1.6535,-1.6576,-1.6617,-1.6609,-1.6609,-1.6494,-1.6576,-1.6689,-1.6875,-1.8195,-1.9153,-1.9255,-1.9828,-2.0187,-2.0249,-2.0121,-1.9704,-1.8972,-1.9063,-1.9063,-1.9026,-1.8934,-1.888,-1.875,-1.8064,-1.7426,-1.7145,-1.6574,-1.6197,-1.6015,-1.6676,-1.7831,-1.8842,-1.9704,-2.083,-2.2043,-2.2666,-2.3087,-2.3538,-2.3904,-2.4211,-2.4211,-2.4211,-2.4211,-2.4211,-2.4102,-2.3904,-2.3088,-2.2198,-2.1041,-2.003,-1.9272,-1.8368,-1.7193,-1.6567,-1.6326,-1.6286,-1.6446,-1.6547,-1.6573,-1.7148,-1.7442,-2.0853,-2.0204,-1.9209,-1.8796,-1.8796,-1.8796,-1.8796,-1.8842,-1.9476,-1.9931,-2.0294,-2.0538,-2.0862,-2.1177,-2.0817,-1.9985,-1.8888,-1.8796,-1.8796,-1.875,-1.8427,-1.8241,-1.8187,-1.7447,-1.6981,-1.6704,-1.6335,-1.571,-1.4915,-1.4419,-1.4088,-1.4088,-1.4088,-1.4088,-1.4088,-1.4088,-1.4088,-1.4166,-1.4615,-1.4943,-1.4985,-1.5477,-1.5767,-1.5684,-1.4664,-1.4088,-1.4088,-1.495,-1.5394,-1.5394,-1.6255,-1.6698,-1.6739,-1.7229,-1.7261,-1.6821,-1.722,-1.731,-1.6862,-1.7229,-1.7662,-1.7962,-1.9223,-2.0121,-2.0442,-2.0899,-2.1221,-2.1186,-2.1186,-2.0952,-2.0808,-2.0673,-2.0637,-2.0628,-2.0628,-2.0348,-1.9886,-1.943,-1.898,-1.838,-1.7909,-1.7723,-1.777,-1.8603,-1.9338,-1.9758,-2.0574,-2.1437,-2.2126,-2.2629,-2.3023,-2.3425,-2.3877,-2.4211,-2.4211,-2.4211,-2.4211,-2.4211,-2.4152,-2.4102,-2.3596,-2.2793,-2.1719,-2.1263,-2.0613,-1.943,-1.8196,-1.6956,-1.6626,-1.6199,-1.638,-1.6714,-1.67,-1.7221,-1.7488,-2.132,-2.0718,-2.0031,-1.9704,-1.9712,-1.9704,-1.9758,-1.9795,-2.0439,-2.0763,-2.0898,-2.141,-2.1687,-2.1687,-2.1687,-2.1042,-1.9803,-1.9758,-1.9758,-1.9712,-1.9438,-1.9293,-1.919,-1.8611,-1.8189,-1.7866,-1.7464,-1.6781,-1.5873,-1.5228,-1.4943,-1.4943,-1.4943,-1.495,-1.495,-1.4943,-1.4943,-1.5075,-1.556,-1.5801,-1.5925,-1.6412,-1.6698,-1.6535,-1.5553,-1.495,-1.4943,-1.5801,-1.6255,-1.637,-1.7066,-1.7545,-1.7634,-1.8078,-1.8167,-1.7715,-1.8078,-1.8158,-1.774,-1.8198,-1.8722,-1.9035,-2.0033,-2.0842,-2.1108,-2.1449,-2.1659,-2.1687,-2.1687,-2.1687,-2.1687,-2.1687,-2.1687,-2.1687,-2.1687,-2.1454,-2.0853,-2.0475,-1.9795,-1.8972,-1.8703,-1.875,-1.8934,-1.9658,-2.0113,-2.0303,-2.1087,-2.1815,-2.2071,-2.2446,-2.2776,-2.3087,-2.3584,-2.3849,-2.396,-2.4005,-2.4146,-2.4174,-2.4202,-2.4202,-2.398,-2.3231,-2.2689,-2.2348,-2.157,-2.034,-1.904,-1.7675,-1.6842,-1.6298,-1.6486,-1.6914,-1.7041,-1.7248,-1.7468,-2.1687,-2.1597,-2.1687,-2.1508,-2.141,-2.141,-2.1607,-2.1499,-2.1633,-2.1722,-2.1722,-2.1776,-2.1865,-2.1776,-2.1776,-2.1642,-2.1463,-2.141,-2.141,-2.1365,-2.0673,-2.0303,-2.0223,-1.9191,-1.8637,-1.8479,-1.7704,-1.7173,-1.6762,-1.655,-1.646,-1.6576,-1.6453,-1.637,-1.6617,-1.6453,-1.6535,-1.6535,-1.6617,-1.669,-1.6698,-1.6862,-1.6984,-1.6903,-1.678,-1.669,-1.669,-1.7432,-1.7755,-1.7917,-1.8647,-1.9213,-1.9094,-1.9173,-1.9213,-1.9103,-1.9231,-1.928,-1.9295,-1.9543,-1.9779,-1.9961,-2.0634,-2.108,-2.1227,-2.1476,-2.1687,-2.1687,-2.1687,-2.1687,-2.1687,-2.1687,-2.1687,-2.1687,-2.1687,-2.1651,-2.1454,-2.0853,-1.9977,-1.9255,-1.9117,-1.8888,-1.9063,-1.984,-2.0484,-2.0673,-2.1177,-2.1696,-2.1806,-2.2135,-2.2337,-2.2483,-2.2995,-2.351,-2.3684,-2.384,-2.3969,-2.4137,-2.4174,-2.4183,-2.396,-2.3417,-2.3006,-2.2644,-2.1996,-2.0786,-1.9445,-1.8162,-1.7351,-1.6881,-1.7113,-1.7119,-1.7233,-1.736,-1.7475,-2.1687,-2.1687,-2.1687,-2.1687,-2.1687,-2.1687,-2.1687,-2.1776,-2.2378,-2.2668,-2.2677,-2.2668,-2.2668,-2.2501,-2.2033,-2.1696,-2.1687,-2.1687,-2.1687,-2.1651,-2.1365,-2.123,-2.115,-2.0819,-2.0483,-2.0044,-1.8846,-1.8146,-1.7879,-1.7147,-1.6698,-1.6698,-1.6739,-1.6698,-1.678,-1.6698,-1.6698,-1.6772,-1.7302,-1.7585,-1.7674,-1.8198,-1.8447,-1.8487,-1.8487,-1.8487,-1.8487,-1.8158,-1.7997,-1.8037,-1.8816,-1.9292,-1.9292,-1.9292,-1.9292,-1.9338,-1.9586,-1.9742,-1.9778,-2.0067,-2.0457,-2.0695,-2.0989,-2.1245,-2.1458,-2.1604,-2.1687,-2.1687,-2.1687,-2.1687,-2.1687,-2.1687,-2.1687,-2.1687,-2.1687,-2.1687,-2.1687,-2.1419,-2.1177,-2.0907,-2.0817,-2.0826,-2.0817,-2.1177,-2.1132,-2.1177,-2.1499,-2.1687,-2.1751,-2.2007,-2.2309,-2.2392,-2.2803,-2.3078,-2.3178,-2.3297,-2.3435,-2.3666,-2.3804,-2.3849,-2.3721,-2.3489,-2.3109,-2.2768,-2.2127,-2.1271,-1.993,-1.8822,-1.8036,-1.7291,-1.7177,-1.7197,-1.7219,-1.7373,-1.7515,-2.2201,-2.2167,-2.1865,-2.1687,-2.1687,-2.1687,-2.1909,-2.2246,-2.2833,-2.327,-2.3574,-2.3617,-2.34,-2.3062,-2.2457,-2.2033,-2.1731,-2.1687,-2.1687,-2.1687,-2.1687,-2.1687,-2.1687,-2.1687,-2.1476,-2.0985,-1.99,-1.9226,-1.9026,-1.8162,-1.7674,-1.7674,-1.7674,-1.7715,-1.7666,-1.7674,-1.7674,-1.7747,-1.8198,-1.8487,-1.8567,-1.9015,-1.9292,-1.9292,-1.9292,-1.9292,-1.9262,-1.8776,-1.8487,-1.8567,-1.9015,-1.9253,-1.9301,-1.9439,-1.954,-1.9613,-1.9888,-2.0104,-2.014,-2.047,-2.0824,-2.1071,-2.1255,-2.1403,-2.1641,-2.1687,-2.1687,-2.1687,-2.1687,-2.1687,-2.1687,-2.1687,-2.1687,-2.1687,-2.1687,-2.1687,-2.1687,-2.1687,-2.1687,-2.1597,-2.1597,-2.1687,-2.1687,-2.1687,-2.1687,-2.1687,-2.1687,-2.1687,-2.1733,-2.1888,-2.2016,-2.2199,-2.2419,-2.2593,-2.2675,-2.2794,-2.2922,-2.3123,-2.3373,-2.3343,-2.3288,-2.3023,-2.2717,-2.2597,-2.2142,-2.1948,-2.0767,-1.9648,-1.8712,-1.8082,-1.734,-1.7371,-1.7454,-1.7442,-1.7628,-2.3173,-2.3062,-2.2246,-2.1909,-2.1865,-2.1865,-2.2334,-2.3008,-2.3226,-2.379,-2.4445,-2.4573,-2.4135,-2.3444,-2.327,-2.2809,-2.1998,-2.19,-2.19,-2.1865,-2.1776,-2.1687,-2.1687,-2.1687,-2.1495,-2.1138,-2.0619,-2.0236,-1.9843,-1.929,-1.9301,-1.9054,-1.9015,-1.9213,-1.9045,-1.9222,-1.9094,-1.9054,-1.9173,-1.9213,-1.9213,-1.9262,-1.9292,-1.9292,-1.9292,-1.9292,-1.9253,-1.9213,-1.9213,-1.9253,-1.9253,-1.9292,-1.9366,-1.9655,-1.9838,-1.9857,-2.0301,-2.0512,-2.0631,-2.0924,-2.1154,-2.1227,-2.1449,-2.1687,-2.1687,-2.1687,-2.1687,-2.1687,-2.1687,-2.1687,-2.1687,-2.1687,-2.1687,-2.1687,-2.1687,-2.1687,-2.1687,-2.1687,-2.1687,-2.1687,-2.1687,-2.1687,-2.1687,-2.1687,-2.1687,-2.1687,-2.1687,-2.1687,-2.1696,-2.1751,-2.1714,-2.187,-2.2117,-2.2172,-2.2272,-2.2346,-2.2455,-2.251,-2.273,-2.2803,-2.2821,-2.2593,-2.2474,-2.2336,-2.2289,-2.2099,-2.1471,-2.0231,-1.92,-1.8387,-1.7911,-1.772,-1.7582,-1.7582,-1.7832,-2.4145,-2.4102,-2.3844,-2.3367,-2.2799,-2.2755,-2.2921,-2.3347,-2.3877,-2.4648,-2.5505,-2.5547,-2.5274,-2.5052,-2.4392,-2.3973,-2.3541,-2.3018,-2.2755,-2.258,-2.1945,-2.1731,-2.1687,-2.1687,-2.1632,-2.1431,-2.0851,-2.0424,-2.031,-1.9641,-1.9301,-1.9292,-1.9292,-1.9292,-1.9292,-1.9292,-1.9292,-1.9292,-1.9292,-1.9292,-1.9292,-1.9292,-1.9292,-1.9292,-1.9292,-1.9292,-1.9292,-1.9292,-1.9292,-1.9292,-1.9292,-1.9292,-1.9329,-1.9696,-1.9902,-2.0012,-2.0515,-2.0952,-2.1025,-2.1275,-2.1548,-2.1575,-2.1604,-2.1687,-2.1687,-2.1687,-2.1687,-2.1687,-2.1687,-2.1687,-2.1687,-2.1687,-2.1687,-2.1687,-2.1687,-2.1731,-2.1776,-2.1687,-2.1687,-2.1687,-2.1731,-2.1687,-2.1687,-2.1687,-2.1687,-2.1687,-2.1687,-2.1687,-2.1687,-2.1687,-2.1687,-2.1687,-2.1824,-2.1833,-2.187,-2.1925,-2.1961,-2.1925,-2.2062,-2.2217,-2.2227,-2.2163,-2.2172,-2.2199,-2.2364,-2.2227,-2.1453,-2.0408,-1.9514,-1.869,-1.8028,-1.7628,-1.7635,-1.7635,-1.8048,-2.5126,-2.5126,-2.4402,-2.38,-2.3357,-2.2984,-2.3105,-2.3574,-2.393,-2.4914,-2.5883,-2.5924,-2.5777,-2.5735,-2.5284,-2.4819,-2.4456,-2.393,-2.3714,-2.3541,-2.2765,-2.2122,-2.182,-2.1687,-2.1687,-2.1595,-2.0906,-2.0567,-2.0332,-1.9696,-1.9338,-1.9292,-1.9292,-1.9292,-1.9292,-1.9292,-1.9292,-1.9292,-1.9292,-1.9292,-1.9292,-1.9292,-1.9292,-1.9292,-1.9292,-1.9292,-1.9292,-1.9292,-1.9292,-1.9292,-1.9292,-1.9292,-1.9329,-1.9664,-1.9957,-2.0131,-2.0778,-2.1163,-2.133,-2.1568,-2.1678,-2.1687,-2.1687,-2.1687,-2.1687,-2.1687,-2.1687,-2.1687,-2.1687,-2.1687,-2.1687,-2.1687,-2.1687,-2.1687,-2.1687,-2.1865,-2.2246,-2.2334,-2.229,-2.2211,-2.1954,-2.1687,-2.1687,-2.1687,-2.1687,-2.1687,-2.1687,-2.1687,-2.1687,-2.1687,-2.1687,-2.1687,-2.1687,-2.1733,-2.1751,-2.1797,-2.1989,-2.1925,-2.2034,-2.2071,-2.1916,-2.1906,-2.1861,-2.1989,-2.2263,-2.2119,-2.1202,-2.0472,-1.9942,-1.9116,-1.8247,-1.7674,-1.7628,-1.7641,-1.8048,-2.6133,-2.6227,-2.4659,-2.3963,-2.3833,-2.3071,-2.3246,-2.3671,-2.3627,-2.4478,-2.5673,-2.5872,-2.5777,-2.583,-2.5883,-2.5547,-2.4882,-2.4744,-2.4531,-2.4145,-2.341,-2.2624,-2.2033,-2.1776,-2.1731,-2.1568,-2.0906,-2.0585,-2.0319,-1.9696,-1.9329,-1.9292,-1.9292,-1.9292,-1.9292,-1.9292,-1.9292,-1.9292,-1.9292,-1.9292,-1.9332,-1.946,-1.9569,-1.9608,-1.9835,-1.9678,-1.9569,-1.949,-1.945,-1.9292,-1.9292,-1.9292,-1.9347,-1.9705,-2.0003,-2.0402,-2.0805,-2.1298,-2.1664,-2.1773,-2.182,-2.19,-2.182,-2.1687,-2.1687,-2.1687,-2.1687,-2.1687,-2.1687,-2.1687,-2.1687,-2.1687,-2.1687,-2.1776,-2.1811,-2.2501,-2.2974,-2.3139,-2.3018,-2.2965,-2.2201,-2.1865,-2.1776,-2.1776,-2.1776,-2.183,-2.1785,-2.1687,-2.1687,-2.1687,-2.1687,-2.1687,-2.1687,-2.1687,-2.1696,-2.1705,-2.1943,-2.2099,-2.2309,-2.2327,-2.197,-2.187,-2.1661,-2.1644,-2.1661,-2.1397,-2.0836,-2.0303,-1.9799,-1.9097,-1.7929,-1.7671,-1.7569,-1.7582,-1.7898,-2.7174,-2.7185,-2.7033,-2.6144,-2.4988,-2.4691,-2.4264,-2.38,-2.3584,-2.4092,-2.501,-2.5568,-2.5777,-2.5872,-2.6487,-2.6757,-2.6373,-2.5799,-2.52,-2.4413,-2.3531,-2.3052,-2.2624,-2.2157,-2.1731,-2.1548,-2.0863,-2.0506,-2.0319,-1.976,-1.9292,-1.9292,-1.9292,-1.9292,-1.9292,-1.9292,-1.9292,-1.9292,-1.9292,-1.9292,-1.945,-1.9923,-2.0187,-2.0313,-2.0847,-2.0798,-2.0382,-2.0226,-1.9923,-1.9499,-1.9371,-1.949,-1.9405,-1.9677,-1.9902,-2.0159,-2.0714,-2.1438,-2.2054,-2.2023,-2.2033,-2.2589,-2.2157,-2.1687,-2.1687,-2.1687,-2.1687,-2.1687,-2.1687,-2.1687,-2.1687,-2.1687,-2.1687,-2.19,-2.2921,-2.3899,-2.4114,-2.3226,-2.2687,-2.2476,-2.2388,-2.2264,-2.2211,-2.2043,-2.2008,-2.2008,-2.1874,-2.1731,-2.1687,-2.1687,-2.1687,-2.1687,-2.1687,-2.1696,-2.1751,-2.1842,-2.2163,-2.24,-2.2611,-2.2487,-2.2124,-2.1708,-2.1463,-2.12,-2.0913,-2.0547,-2.0145,-1.9391,-1.8765,-1.8182,-1.7726,-1.7526,-1.742,-1.7507,-1.7732,-2.7736,-2.7805,-2.7522,-2.6887,-2.608,-2.5242,-2.4616,-2.4059,-2.343,-2.3584,-2.4339,-2.502,-2.5495,-2.5861,-2.6745,-2.719,-2.7097,-2.6704,-2.5966,-2.52,-2.4542,-2.4168,-2.3574,-2.2799,-2.2183,-2.1692,-2.0863,-2.0515,-2.031,-1.976,-1.9292,-1.9292,-1.9292,-1.9292,-1.9292,-1.9292,-1.9292,-1.9292,-1.9292,-1.9292,-1.9411,-2.007,-2.0769,-2.1078,-2.1576,-2.1527,-2.1155,-2.1116,-2.0875,-2.0576,-2.0459,-2.0031,-1.9429,-1.9522,-1.9705,-1.9966,-2.0457,-2.1386,-2.2064,-2.2462,-2.258,-2.3018,-2.2589,-2.2157,-2.1865,-2.1687,-2.1687,-2.1687,-2.1687,-2.1687,-2.1687,-2.1687,-2.1687,-2.1865,-2.2809,-2.3694,-2.3943,-2.3737,-2.3541,-2.3377,-2.295,-2.2564,-2.2353,-2.2264,-2.2141,-2.2052,-2.183,-2.1687,-2.1687,-2.1687,-2.1687,-2.1687,-2.1687,-2.1723,-2.1797,-2.2025,-2.2437,-2.2712,-2.2968,-2.2584,-2.2095,-2.1699,-2.1237,-2.0752,-2.0235,-1.9866,-1.9376,-1.8603,-1.7996,-1.781,-1.7568,-1.7323,-1.7237,-1.7345,-1.7664,-2.803,-2.8127,-2.7366,-2.7121,-2.694,-2.5621,-2.4744,-2.4241,-2.3387,-2.3212,-2.3541,-2.4231,-2.4819,-2.5663,-2.6487,-2.6962,-2.719,-2.7149,-2.658,-2.6049,-2.5652,-2.52,-2.4563,-2.3747,-2.3008,-2.2073,-2.0992,-2.0558,-2.031,-1.9751,-1.9311,-1.9292,-1.9292,-1.9292,-1.9292,-1.9292,-1.9292,-1.9292,-1.9292,-1.945,-1.9678,-2.0382,-2.1231,-2.2145,-2.2333,-2.2258,-2.2031,-2.1956,-2.188,-2.1794,-2.1794,-2.1029,-2.0109,-1.9518,-1.958,-1.9987,-2.0389,-2.124,-2.2366,-2.285,-2.3062,-2.3105,-2.3052,-2.2589,-2.1954,-2.1687,-2.1687,-2.1687,-2.1687,-2.1687,-2.1687,-2.1687,-2.1687,-2.182,-2.2043,-2.2687,-2.3444,-2.451,-2.4935,-2.4563,-2.3464,-2.274,-2.252,-2.2397,-2.2264,-2.2097,-2.1874,-2.1687,-2.1687,-2.1687,-2.1687,-2.1687,-2.1687,-2.1687,-2.176,-2.1626,-2.2103,-2.2858,-2.3169,-2.2777,-2.2289,-2.2267,-2.1722,-2.0117,-1.9442,-1.9094,-1.8458,-1.7582,-1.7262,-1.7416,-1.7373,-1.7052,-1.71,-1.7231,-1.7684,-2.8179,-2.8219,-2.8207,-2.7846,-2.7214,-2.6846,-2.5663,-2.4092,-2.3844,-2.3028,-2.2334,-2.3052,-2.4135,-2.4819,-2.5663,-2.6434,-2.7097,-2.719,-2.7097,-2.6704,-2.6268,-2.5715,-2.5495,-2.4691,-2.4145,-2.344,-2.1938,-2.0782,-2.0495,-1.9742,-1.9645,-1.9411,-1.9371,-1.9371,-1.9371,-1.9292,-1.9292,-1.9292,-1.9292,-1.9569,-2.0226,-2.1145,-2.222,-2.3361,-2.3508,-2.3287,-2.2916,-2.2767,-2.2505,-2.1907,-2.1794,-2.1642,-2.126,-2.0692,-2.0489,-2.0435,-2.0538,-2.1313,-2.2631,-2.3018,-2.3104,-2.3105,-2.3105,-2.2633,-2.1989,-2.1687,-2.1687,-2.1687,-2.1687,-2.1687,-2.1687,-2.1687,-2.1687,-2.1954,-2.2599,-2.342,-2.3887,-2.4648,-2.5231,-2.4723,-2.3714,-2.2916,-2.274,-2.2574,-2.2353,-2.2132,-2.1919,-2.1731,-2.1687,-2.1687,-2.1687,-2.1687,-2.1687,-2.1687,-2.1705,-2.1452,-2.1593,-2.2708,-2.3083,-2.2894,-2.2695,-2.3018,-2.2276,-2.0386,-1.8918,-1.8233,-1.7516,-1.6777,-1.6587,-1.6773,-1.6762,-1.678,-1.7025,-1.7278,-1.7851,-2.8339,-2.8339,-2.8471,-2.8259,-2.7846,-2.7389,-2.6629,-2.5568,-2.502,-2.4049,-2.3541,-2.4178,-2.4648,-2.4914,-2.5977,-2.6787,-2.7097,-2.719,-2.719,-2.7056,-2.6757,-2.6528,-2.6393,-2.5589,-2.5242,-2.4567,-2.2977,-2.1816,-2.177,-2.1026,-2.0586,-2.0489,-2.0187,-1.9923,-1.9805,-1.949,-1.9371,-1.9332,-1.9371,-1.9726,-2.0576,-2.1728,-2.3065,-2.3861,-2.42,-2.397,-2.3751,-2.3641,-2.3482,-2.3165,-2.3054,-2.283,-2.2419,-2.208,-2.1624,-2.1296,-2.1117,-2.1642,-2.2798,-2.3088,-2.312,-2.3105,-2.3096,-2.2633,-2.1989,-2.1687,-2.1687,-2.1687,-2.1687,-2.1687,-2.1687,-2.1687,-2.1785,-2.2008,-2.2652,-2.329,-2.392,-2.4691,-2.4861,-2.4766,-2.4307,-2.3681,-2.2969,-2.275,-2.2485,-2.222,-2.1954,-2.182,-2.1687,-2.1687,-2.1687,-2.1642,-2.1642,-2.1597,-2.1625,-2.1417,-2.1511,-2.2501,-2.3017,-2.2827,-2.2791,-2.3015,-2.197,-2.0231,-1.9002,-1.8458,-1.755,-1.7175,-1.6711,-1.6261,-1.6279,-1.6484,-1.6956,-1.7398,-1.8,-2.851,-2.851,-2.851,-2.851,-2.8391,-2.7805,-2.7307,-2.6999,-2.6287,-2.5221,-2.4382,-2.5368,-2.5579,-2.5505,-2.6404,-2.7342,-2.7342,-2.7313,-2.726,-2.726,-2.7149,-2.7149,-2.6962,-2.6558,-2.6097,-2.5869,-2.4756,-2.3514,-2.2745,-2.2007,-2.178,-2.1489,-2.1001,-2.0769,-2.0653,-2.0304,-1.9844,-1.9805,-1.9844,-2.0235,-2.1155,-2.2419,-2.353,-2.4116,-2.4189,-2.42,-2.408,-2.408,-2.4127,-2.4043,-2.4007,-2.3861,-2.3372,-2.3261,-2.2953,-2.2347,-2.1899,-2.218,-2.2767,-2.2958,-2.2872,-2.2692,-2.2955,-2.2545,-2.1989,-2.1687,-2.1687,-2.1687,-2.1687,-2.1687,-2.1687,-2.1687,-2.183,-2.2052,-2.2309,-2.2775,-2.3627,-2.4402,-2.4988,-2.4946,-2.4861,-2.4445,-2.3734,-2.275,-2.2441,-2.2264,-2.1998,-2.1776,-2.1687,-2.1687,-2.1687,-2.1597,-2.1553,-2.1508,-2.1464,-2.1437,-2.1803,-2.2643,-2.2962,-2.291,-2.2876,-2.2868,-2.1712,-2.0982,-2.0702,-2.0098,-1.8878,-1.7618,-1.7107,-1.6627,-1.6209,-1.6242,-1.6785,-1.7505,-1.8189,-2.851,-2.851,-2.851,-2.851,-2.855,-2.8419,-2.7794,-2.6987,-2.6812,-2.6016,-2.4999,-2.5263,-2.585,-2.637,-2.7249,-2.776,-2.776,-2.7586,-2.7452,-2.7412,-2.7301,-2.7231,-2.719,-2.7149,-2.6852,-2.6668,-2.6163,-2.4932,-2.3645,-2.2534,-2.1993,-2.1983,-2.1907,-2.1652,-2.1614,-2.127,-2.1499,-2.1461,-2.1451,-2.1832,-2.2569,-2.3482,-2.4007,-2.4164,-2.4189,-2.4189,-2.4189,-2.4189,-2.4189,-2.4189,-2.4189,-2.4152,-2.408,-2.4043,-2.4055,-2.342,-2.2531,-2.1739,-2.2839,-2.3014,-2.2736,-2.2663,-2.2755,-2.2501,-2.1989,-2.1687,-2.1687,-2.1687,-2.1687,-2.1687,-2.1687,-2.1687,-2.183,-2.2052,-2.2264,-2.253,-2.3135,-2.452,-2.5073,-2.5284,-2.5242,-2.4988,-2.4488,-2.3333,-2.2397,-2.222,-2.2043,-2.182,-2.1687,-2.1687,-2.1687,-2.1642,-2.1508,-2.1463,-2.1517,-2.1455,-2.188,-2.2683,-2.2881,-2.2982,-2.3068,-2.3082,-2.3179,-2.2538,-2.2261,-2.1379,-1.9831,-1.8639,-1.7682,-1.6939,-1.6384,-1.6405,-1.6648,-1.7435,-1.8203,-2.8764,-2.9184,-2.9172,-2.9445,-2.9781,-2.9406,-2.8924,-2.8438,-2.7931,-2.711,-2.6348,-2.6648,-2.704,-2.7389,-2.78,-2.7881,-2.7881,-2.7788,-2.7655,-2.7522,-2.7412,-2.7301,-2.7231,-2.7167,-2.7146,-2.676,-2.6333,-2.5665,-2.4489,-2.3974,-2.3599,-2.3427,-2.2857,-2.2505,-2.2419,-2.2031,-2.1832,-2.1869,-2.2182,-2.2654,-2.3113,-2.374,-2.4189,-2.4189,-2.4189,-2.4189,-2.4189,-2.4189,-2.4189,-2.4189,-2.4189,-2.4189,-2.4189,-2.4189,-2.42,-2.4066,-2.3004,-2.2787,-2.3591,-2.3587,-2.337,-2.3201,-2.3149,-2.2668,-2.1945,-2.1687,-2.1687,-2.1687,-2.1687,-2.1687,-2.1687,-2.1687,-2.1865,-2.2052,-2.2176,-2.2353,-2.2906,-2.4392,-2.5316,-2.5442,-2.5526,-2.5284,-2.4776,-2.3454,-2.252,-2.2309,-2.2087,-2.182,-2.1731,-2.1687,-2.1687,-2.1687,-2.1553,-2.1463,-2.1553,-2.1563,-2.1826,-2.2446,-2.2849,-2.2999,-2.3311,-2.3435,-2.3556,-2.3696,-2.3448,-2.2326,-2.0742,-1.9522,-1.8445,-1.7456,-1.6536,-1.665,-1.6833,-1.7175,-1.8239,-2.8961,-2.9704,-2.9704,-3.0075,-3.0557,-3.0152,-2.9858,-2.9588,-2.9079,-2.8195,-2.762,-2.7926,-2.8151,-2.8082,-2.8042,-2.8082,-2.8054,-2.8002,-2.7857,-2.7684,-2.751,-2.7412,-2.7232,-2.7145,-2.6817,-2.6452,-2.6065,-2.5726,-2.5586,-2.5194,-2.4779,-2.4933,-2.3754,-2.3409,-2.3213,-2.2905,-2.2596,-2.267,-2.3065,-2.3298,-2.3482,-2.3886,-2.4152,-2.4189,-2.4189,-2.4189,-2.4189,-2.4189,-2.4189,-2.4189,-2.4189,-2.4189,-2.4189,-2.4189,-2.4189,-2.4219,-2.3709,-2.4007,-2.4298,-2.4296,-2.4314,-2.4116,-2.3671,-2.2843,-2.229,-2.1945,-2.1687,-2.1687,-2.1687,-2.1687,-2.1687,-2.1687,-2.183,-2.1963,-2.2097,-2.222,-2.2555,-2.392,-2.4978,-2.5274,-2.5358,-2.5526,-2.4766,-2.341,-2.2643,-2.2388,-2.2132,-2.182,-2.1731,-2.1687,-2.1687,-2.1687,-2.1642,-2.1553,-2.1597,-2.1706,-2.1952,-2.2181,-2.2593,-2.2957,-2.3272,-2.3693,-2.3958,-2.4102,-2.4156,-2.3258,-2.1745,-2.0461,-1.9229,-1.8275,-1.7463,-1.7061,-1.7054,-1.7413,-1.8525,-2.8961,-2.9704,-2.9704,-2.9807,-2.9973,-3.0557,-3.0367,-2.9819,-2.9626,-2.9028,-2.8287,-2.8431,-2.8431,-2.8431,-2.8391,-2.8391,-2.8431,-2.8259,-2.8139,-2.7926,-2.7713,-2.7522,-2.7285,-2.6904,-2.6549,-2.6362,-2.5866,-2.573,-2.5682,-2.5135,-2.4981,-2.4862,-2.4238,-2.4225,-2.4152,-2.3849,-2.3776,-2.3776,-2.397,-2.4007,-2.4043,-2.42,-2.4236,-2.4225,-2.4225,-2.4189,-2.42,-2.4189,-2.4189,-2.4189,-2.4189,-2.4189,-2.4189,-2.4189,-2.4189,-2.4242,-2.4754,-2.4997,-2.5144,-2.4639,-2.3991,-2.4007,-2.3757,-2.3193,-2.2755,-2.2069,-2.1776,-2.1687,-2.1687,-2.1687,-2.1687,-2.1731,-2.182,-2.1919,-2.2008,-2.2097,-2.2432,-2.3193,-2.4211,-2.4808,-2.5231,-2.5484,-2.5189,-2.392,-2.2853,-2.2564,-2.2132,-2.183,-2.1731,-2.1687,-2.1687,-2.1687,-2.1687,-2.1687,-2.1687,-2.1778,-2.1861,-2.2089,-2.2446,-2.2858,-2.3279,-2.3675,-2.3877,-2.4009,-2.3837,-2.3313,-2.2911,-2.2029,-2.0887,-1.9378,-1.8383,-1.7775,-1.8002,-1.8622,-1.9849,-2.9406,-2.9742,-3.0215,-3.0745,-3.1156,-3.097,-3.0745,-3.0304,-2.9406,-2.8803,-2.851,-2.851,-2.851,-2.851,-2.851,-2.851,-2.851,-2.8443,-2.8231,-2.803,-2.7829,-2.7586,-2.725,-2.6788,-2.6366,-2.5927,-2.5492,-2.5284,-2.5254,-2.4743,-2.485,-2.4707,-2.4431,-2.437,-2.4381,-2.4526,-2.4574,-2.4574,-2.4574,-2.4574,-2.4538,-2.4465,-2.4465,-2.4562,-2.4273,-2.4309,-2.4345,-2.4225,-2.4225,-2.42,-2.4236,-2.4236,-2.4236,-2.4236,-2.4189,-2.4246,-2.4923,-2.5348,-2.5842,-2.5474,-2.5626,-2.4966,-2.4478,-2.3757,-2.3217,-2.2246,-2.182,-2.1687,-2.1687,-2.1687,-2.1687,-2.1687,-2.1731,-2.182,-2.1865,-2.1963,-2.2299,-2.2984,-2.3747,-2.451,-2.5136,-2.5599,-2.5136,-2.451,-2.3541,-2.2696,-2.222,-2.183,-2.1741,-2.1687,-2.1687,-2.1687,-2.1687,-2.1687,-2.1687,-2.1714,-2.1751,-2.2007,-2.23,-2.262,-2.2959,-2.3087,-2.327,-2.3474,-2.3639,-2.3353,-2.3225,-2.3412,-2.2343,-2.0315,-1.9064,-1.8264,-1.8825,-1.9647,-2.0907,-3.0075,-3.0152,-3.0932,-3.1415,-3.1723,-3.1636,-3.1452,-3.1044,-2.9884,-2.8882,-2.855,-2.8697,-2.8843,-2.8843,-2.8882,-2.8882,-2.8843,-2.8618,-2.8351,-2.8111,-2.7921,-2.7637,-2.7117,-2.6501,-2.5782,-2.5183,-2.4619,-2.4308,-2.4311,-2.3995,-2.4213,-2.4419,-2.4431,-2.4381,-2.449,-2.4682,-2.4801,-2.4801,-2.4801,-2.4801,-2.4754,-2.4682,-2.4621,-2.4754,-2.4526,-2.449,-2.4526,-2.449,-2.4429,-2.4429,-2.4345,-2.4309,-2.4273,-2.4236,-2.42,-2.4349,-2.4659,-2.5153,-2.5807,-2.6497,-2.6835,-2.6227,-2.4999,-2.4231,-2.3444,-2.2467,-2.1731,-2.1687,-2.1687,-2.1687,-2.1687,-2.1687,-2.1687,-2.1776,-2.1776,-2.182,-2.2122,-2.2633,-2.3434,-2.4243,-2.484,-2.5484,-2.5389,-2.4798,-2.3454,-2.2608,-2.2087,-2.1785,-2.1741,-2.1687,-2.1687,-2.1687,-2.1687,-2.1687,-2.1687,-2.1759,-2.1786,-2.1833,-2.2099,-2.2263,-2.2519,-2.2666,-2.2867,-2.3105,-2.329,-2.3345,-2.338,-2.3423,-2.2395,-2.094,-1.9819,-1.8753,-1.9365,-2.0199,-2.1345,-3.0882,-3.097,-3.1709,-3.1636,-3.1267,-3.2596,-3.2704,-3.1892,-3.0994,-2.9909,-2.8922,-2.9367,-2.9665,-2.9665,-2.9704,-2.9665,-2.9484,-2.8949,-2.8578,-2.8498,-2.798,-2.758,-2.696,-2.6209,-2.5355,-2.399,-2.3678,-2.362,-2.3324,-2.3519,-2.3813,-2.4141,-2.4334,-2.4345,-2.4538,-2.4718,-2.479,-2.4837,-2.4837,-2.4825,-2.4861,-2.4825,-2.4825,-2.4861,-2.4754,-2.4718,-2.4742,-2.4634,-2.461,-2.4646,-2.4538,-2.4454,-2.449,-2.4345,-2.4298,-2.4307,-2.4696,-2.5164,-2.575,-2.6651,-2.6907,-2.661,-2.5263,-2.436,-2.3973,-2.2896,-2.1687,-2.1687,-2.1687,-2.1687,-2.1687,-2.1687,-2.1687,-2.1687,-2.1687,-2.1731,-2.2033,-2.2501,-2.3347,-2.4029,-2.4638,-2.5158,-2.5347,-2.501,-2.3497,-2.252,-2.1954,-2.1731,-2.1687,-2.1687,-2.1687,-2.1741,-2.1741,-2.182,-2.183,-2.1785,-2.1813,-2.1841,-2.1933,-2.2134,-2.2309,-2.2456,-2.2657,-2.2803,-2.2961,-2.3092,-2.3195,-2.3317,-2.2395,-2.1557,-2.0217,-1.9454,-2.0006,-2.066,-2.1682,-3.1338,-3.1696,-3.2001,-3.1965,-3.1783,-3.2232,-3.234,-3.1965,-3.1254,-3.0594,-3.0215,-3.0443,-3.0519,-3.0481,-3.0481,-3.0481,-3.0342,-2.9665,-2.925,-2.8978,-2.8134,-2.7475,-2.6855,-2.5965,-2.5119,-2.4645,-2.4158,-2.3703,-2.3886,-2.374,-2.4007,-2.4393,-2.4418,-2.4418,-2.4538,-2.4682,-2.4861,-2.4992,-2.5016,-2.5016,-2.5123,-2.5052,-2.5028,-2.5087,-2.4921,-2.4897,-2.4957,-2.4814,-2.4742,-2.479,-2.4682,-2.461,-2.4682,-2.4562,-2.4574,-2.4631,-2.4955,-2.5439,-2.6023,-2.6594,-2.6529,-2.6011,-2.5306,-2.4274,-2.3541,-2.2467,-2.1865,-2.1687,-2.1687,-2.1687,-2.1687,-2.1687,-2.1687,-2.1687,-2.1687,-2.1687,-2.1945,-2.2633,-2.3357,-2.391,-2.4478,-2.5411,-2.5872,-2.5316,-2.393,-2.2906,-2.2378,-2.1865,-2.1731,-2.1687,-2.1687,-2.1785,-2.183,-2.1919,-2.1963,-2.1963,-2.2043,-2.2089,-2.2063,-2.211,-2.2196,-2.2335,-2.2326,-2.2455,-2.2639,-2.2861,-2.3009,-2.311,-2.2991,-2.2216,-2.1018,-2.0391,-2.081,-2.1156,-2.1583,-3.1852,-3.2181,-3.2195,-3.2195,-3.2223,-3.2415,-3.2376,-3.2051,-3.1513,-3.1193,-3.097,-3.1156,-3.1304,-3.1304,-3.1291,-3.1291,-3.123,-3.0481,-2.9781,-2.941,-2.8374,-2.7594,-2.6718,-2.5826,-2.4877,-2.4625,-2.4212,-2.3838,-2.3765,-2.402,-2.4286,-2.4502,-2.461,-2.461,-2.4646,-2.4718,-2.479,-2.4921,-2.5016,-2.5111,-2.5182,-2.5182,-2.5218,-2.5206,-2.5111,-2.5052,-2.5052,-2.4945,-2.4802,-2.4885,-2.4849,-2.4778,-2.4849,-2.4861,-2.4825,-2.4894,-2.5185,-2.5678,-2.6194,-2.6693,-2.6462,-2.5661,-2.4904,-2.4102,-2.3193,-2.2246,-2.1865,-2.1687,-2.1687,-2.1687,-2.1687,-2.1687,-2.1687,-2.1687,-2.1687,-2.1687,-2.19,-2.2545,-2.3391,-2.3953,-2.4638,-2.5579,-2.6185,-2.5379,-2.4392,-2.3584,-2.2853,-2.229,-2.1731,-2.1731,-2.1687,-2.1785,-2.1919,-2.2008,-2.2141,-2.222,-2.2264,-2.2397,-2.2309,-2.223,-2.2213,-2.2346,-2.2216,-2.2141,-2.2429,-2.2687,-2.2893,-2.2948,-2.295,-2.2759,-2.2158,-2.1735,-2.175,-2.1881,-2.2087,-3.2384,-3.2384,-3.2384,-3.2378,-3.2469,-3.2939,-3.2778,-3.2141,-3.2105,-3.1706,-3.1082,-3.1892,-3.2069,-3.2092,-3.2055,-3.2028,-3.1843,-3.1198,-3.0631,-2.9809,-2.9026,-2.7987,-2.6987,-2.6003,-2.5335,-2.4208,-2.3768,-2.4131,-2.3585,-2.3925,-2.4347,-2.4634,-2.4778,-2.4778,-2.4754,-2.4682,-2.4742,-2.4921,-2.5052,-2.5111,-2.5182,-2.5241,-2.5276,-2.5276,-2.5241,-2.5218,-2.5206,-2.5182,-2.5182,-2.5182,-2.5147,-2.5076,-2.5004,-2.4921,-2.4861,-2.4955,-2.526,-2.5718,-2.6253,-2.6683,-2.6474,-2.5668,-2.4946,-2.4092,-2.3105,-2.2211,-2.1909,-2.1731,-2.1687,-2.1687,-2.1687,-2.1687,-2.1687,-2.1687,-2.1687,-2.1776,-2.1856,-2.2492,-2.3434,-2.42,-2.4925,-2.5663,-2.6019,-2.5463,-2.4307,-2.3661,-2.2896,-2.2334,-2.1909,-2.1741,-2.1741,-2.1731,-2.1919,-2.2106,-2.223,-2.2485,-2.2574,-2.2652,-2.252,-2.2441,-2.2397,-2.2407,-2.2362,-2.2362,-2.2397,-2.2596,-2.2869,-2.3026,-2.3057,-2.2803,-2.2558,-2.2476,-2.2261,-2.2621,-2.2879,-3.2145,-3.1822,-3.223,-3.2362,-3.2358,-3.28,-3.2754,-3.2368,-3.234,-3.2346,-3.2632,-3.286,-3.2541,-3.234,-3.2312,-3.2291,-3.1985,-3.1638,-3.1451,-3.0702,-2.9619,-2.8929,-2.8069,-2.7082,-2.6417,-2.5884,-2.5403,-2.4969,-2.5004,-2.4838,-2.4659,-2.4981,-2.4981,-2.4921,-2.4849,-2.4754,-2.4885,-2.4945,-2.5076,-2.5111,-2.5218,-2.5276,-2.5312,-2.5312,-2.5312,-2.5312,-2.5276,-2.5218,-2.5182,-2.5147,-2.5159,-2.5111,-2.5076,-2.5111,-2.5159,-2.5028,-2.5218,-2.5513,-2.6156,-2.6459,-2.6368,-2.5975,-2.54,-2.3973,-2.294,-2.2176,-2.1874,-2.1785,-2.1687,-2.1687,-2.1687,-2.1687,-2.1687,-2.1687,-2.1687,-2.1731,-2.1856,-2.2325,-2.3217,-2.378,-2.4542,-2.5115,-2.5516,-2.4904,-2.3833,-2.3367,-2.2896,-2.2422,-2.2043,-2.1874,-2.2043,-2.2078,-2.2344,-2.2652,-2.2696,-2.2862,-2.2916,-2.2916,-2.2994,-2.295,-2.2828,-2.2794,-2.2618,-2.2618,-2.2706,-2.2838,-2.2989,-2.3101,-2.3101,-2.3101,-2.2891,-2.2871,-2.2882,-2.3121,-2.3232,-3.1597,-3.1546,-3.1782,-3.1829,-3.1787,-3.2008,-3.2123,-3.2205,-3.2288,-3.2528,-3.284,-3.2621,-3.2384,-3.2055,-3.1999,-3.1999,-3.1932,-3.1577,-3.1287,-3.0653,-3.003,-2.9171,-2.8499,-2.7879,-2.7193,-2.693,-2.6761,-2.6261,-2.6205,-2.5849,-2.5558,-2.5182,-2.5182,-2.5111,-2.5052,-2.5016,-2.5076,-2.5111,-2.5147,-2.5182,-2.5218,-2.5276,-2.5312,-2.5312,-2.5312,-2.5312,-2.5276,-2.5182,-2.5182,-2.5182,-2.5182,-2.5182,-2.5242,-2.5409,-2.5589,-2.5565,-2.5827,-2.6268,-2.6835,-2.6916,-2.666,-2.6225,-2.5694,-2.4349,-2.3081,-2.2141,-2.1919,-2.1785,-2.1741,-2.1687,-2.1687,-2.1687,-2.1687,-2.1687,-2.1687,-2.1687,-2.1945,-2.2201,-2.2668,-2.3183,-2.3747,-2.436,-2.436,-2.379,-2.3487,-2.3226,-2.3018,-2.2687,-2.2255,-2.2008,-2.2432,-2.2862,-2.3071,-2.3377,-2.3377,-2.3541,-2.392,-2.4188,-2.4349,-2.4231,-2.3691,-2.3353,-2.3343,-2.3178,-2.296,-2.3057,-2.3101,-2.3101,-2.3101,-2.3101,-2.3101,-2.3042,-2.3002,-2.3156,-2.3235,-3.097,-3.1462,-3.1274,-3.1147,-3.0969,-3.1117,-3.1441,-3.1882,-3.208,-3.2248,-3.2234,-3.1825,-3.1688,-3.1594,-3.1467,-3.1415,-3.1401,-3.1235,-3.1078,-3.0405,-3.0024,-2.943,-2.8791,-2.7839,-2.7894,-2.7577,-2.7265,-2.7178,-2.7023,-2.6663,-2.6173,-2.5488,-2.5453,-2.5488,-2.5488,-2.5288,-2.5241,-2.5241,-2.5218,-2.5182,-2.517,-2.5241,-2.5312,-2.5312,-2.5312,-2.5312,-2.5312,-2.5276,-2.5312,-2.5276,-2.5276,-2.5264,-2.5409,-2.5757,-2.5961,-2.6153,-2.6356,-2.6896,-2.7188,-2.7252,-2.681,-2.6334,-2.5735,-2.451,-2.329,-2.2353,-2.2097,-2.1785,-2.1687,-2.1687,-2.1687,-2.1687,-2.1687,-2.1687,-2.1687,-2.1687,-2.182,-2.1989,-2.2201,-2.2633,-2.2974,-2.3497,-2.3551,-2.3028,-2.2853,-2.2887,-2.2799,-2.2511,-2.2476,-2.2185,-2.252,-2.3246,-2.3584,-2.3833,-2.4307,-2.4595,-2.5231,-2.5526,-2.5579,-2.5284,-2.4616,-2.4327,-2.4112,-2.3604,-2.3047,-2.3091,-2.3101,-2.3101,-2.3101,-2.3101,-2.3101,-2.3101,-2.3149,-2.322,-2.3297,-3.1263,-3.126,-3.1107,-3.0834,-3.0598,-3.1234,-3.1584,-3.1734,-3.1796,-3.2166,-3.2543,-3.2202,-3.1668,-3.1219,-3.0916,-3.0787,-3.0755,-3.075,-3.0965,-3.0754,-3.0392,-2.991,-2.9766,-2.9031,-2.8894,-2.8821,-2.8519,-2.7907,-2.7524,-2.7271,-2.7149,-2.6867,-2.6505,-2.6139,-2.5965,-2.5687,-2.5418,-2.5312,-2.5276,-2.5253,-2.5241,-2.5241,-2.5312,-2.5312,-2.5312,-2.5312,-2.5312,-2.5312,-2.5253,-2.5182,-2.5241,-2.5276,-2.5336,-2.5829,-2.6069,-2.6202,-2.6705,-2.7258,-2.7466,-2.7396,-2.6921,-2.6378,-2.5704,-2.4563,-2.3584,-2.2784,-2.222,-2.1865,-2.1687,-2.1687,-2.1687,-2.1687,-2.1687,-2.1687,-2.1687,-2.1687,-2.1687,-2.1776,-2.182,-2.2078,-2.2334,-2.2467,-2.2564,-2.2476,-2.2255,-2.2122,-2.2033,-2.2043,-2.2397,-2.2309,-2.2397,-2.2994,-2.3747,-2.4211,-2.4893,-2.561,-2.6246,-2.6246,-2.6163,-2.5872,-2.5495,-2.4829,-2.4241,-2.356,-2.3091,-2.3101,-2.3101,-2.3101,-2.3101,-2.3101,-2.3101,-2.3101,-2.3101,-2.3159,-2.3229,-3.1065,-3.1176,-3.1055,-3.0851,-3.0732,-3.1175,-3.1495,-3.1667,-3.171,-3.2131,-3.2661,-3.2074,-3.1362,-3.0859,-3.0517,-3.0277,-3.02,-3.0076,-3.0235,-3.0425,-3.0495,-3.0168,-2.9943,-2.9816,-2.9579,-2.9432,-2.9184,-2.8661,-2.8065,-2.7901,-2.7868,-2.7571,-2.7048,-2.6744,-2.6471,-2.5965,-2.5581,-2.5312,-2.5347,-2.5312,-2.5312,-2.5312,-2.5312,-2.5312,-2.5312,-2.5312,-2.5312,-2.5312,-2.5241,-2.5218,-2.5276,-2.5528,-2.5733,-2.6226,-2.6598,-2.6935,-2.7368,-2.7726,-2.7801,-2.7553,-2.6984,-2.6375,-2.5788,-2.4723,-2.3115,-2.2353,-2.2087,-2.1776,-2.1731,-2.1687,-2.1687,-2.1687,-2.1687,-2.1687,-2.1687,-2.1687,-2.1687,-2.1731,-2.1776,-2.182,-2.1989,-2.1989,-2.2087,-2.2087,-2.1909,-2.1954,-2.1785,-2.1954,-2.2264,-2.2485,-2.253,-2.2916,-2.3757,-2.4978,-2.6038,-2.667,-2.7255,-2.7121,-2.6794,-2.637,-2.5955,-2.5031,-2.4231,-2.3517,-2.3101,-2.3101,-2.3101,-2.3101,-2.3101,-2.3101,-2.3101,-2.3101,-2.3101,-2.3101,-2.3169,-3.0719,-3.1141,-3.1056,-3.0925,-3.0911,-3.0911,-3.1131,-3.1466,-3.1638,-3.2066,-3.2552,-3.1686,-3.0955,-3.0658,-3.0296,-3.0021,-2.9862,-2.9882,-2.9871,-2.9902,-2.9871,-2.9899,-2.984,-2.9696,-2.9651,-2.9602,-2.9463,-2.9121,-2.868,-2.8615,-2.839,-2.7868,-2.755,-2.7317,-2.6824,-2.6393,-2.6082,-2.5652,-2.5476,-2.5312,-2.5312,-2.5312,-2.5312,-2.5312,-2.5312,-2.5312,-2.5312,-2.5312,-2.5312,-2.5312,-2.5324,-2.5492,-2.5913,-2.6394,-2.6923,-2.7332,-2.7921,-2.8246,-2.8347,-2.8072,-2.7157,-2.6276,-2.5694,-2.4595,-2.295,-2.2264,-2.1998,-2.182,-2.1731,-2.1687,-2.1687,-2.1687,-2.1687,-2.1687,-2.1687,-2.1687,-2.1687,-2.1687,-2.1687,-2.1687,-2.1687,-2.1687,-2.1687,-2.1687,-2.1741,-2.1785,-2.1874,-2.2132,-2.2353,-2.2485,-2.2618,-2.3212,-2.4016,-2.5326,-2.6588,-2.7429,-2.7846,-2.7966,-2.7632,-2.704,-2.637,-2.5495,-2.4531,-2.343,-2.3101,-2.3101,-2.3101,-2.3101,-2.3101,-2.3047,-2.3101,-2.3101,-2.3101,-2.3101,-2.3101,-3.0925,-3.1057,-3.1014,-3.0777,-3.0493,-3.0463,-3.0493,-3.0703,-3.1408,-3.1824,-3.2051,-3.2231,-3.1977,-3.1707,-3.0658,-3.0251,-3.0282,-3.0038,-2.9929,-3.0019,-2.9943,-2.9898,-2.9822,-2.9792,-2.9699,-2.962,-2.9602,-2.9495,-2.9184,-2.9261,-2.9324,-2.9071,-2.8441,-2.8182,-2.7953,-2.7324,-2.6449,-2.6035,-2.5616,-2.5418,-2.5312,-2.5312,-2.5312,-2.5312,-2.5312,-2.5312,-2.5312,-2.5312,-2.5312,-2.5312,-2.5336,-2.542,-2.5805,-2.6333,-2.6812,-2.7174,-2.7833,-2.8156,-2.8159,-2.7874,-2.6876,-2.5986,-2.5316,-2.4264,-2.3038,-2.2353,-2.2087,-2.1776,-2.1687,-2.1687,-2.1687,-2.1687,-2.1687,-2.1687,-2.1687,-2.1687,-2.1687,-2.1687,-2.1687,-2.1687,-2.1687,-2.1687,-2.1687,-2.1687,-2.1687,-2.1741,-2.1741,-2.1998,-2.2309,-2.2485,-2.2662,-2.3387,-2.4155,-2.4946,-2.5872,-2.747,-2.8099,-2.8351,-2.8259,-2.7377,-2.6618,-2.5997,-2.4946,-2.356,-2.3144,-2.3101,-2.3101,-2.3057,-2.3003,-2.3003,-2.3047,-2.3101,-2.3101,-2.3101,-2.3101]},{"header":{"parameterUnit":"m.s-1","parameterCategory":1,"la1":31.0,"la2":29.5877,"lo1":-88.7671,"lo2":-86.6584,"dy":0.0162,"dx":0.0185,"nx":115,"ny":88,"refTime":"2023-09-02T12:00:00:Z","depth":0,"parameterNumber":3,"parameterNumberName":"V-component_of_WINDS"},"data":[0.0,0.0,0.0,0.0,0.0,0.0,0.0,0.0,0.0,0.0,0.0,0.0,0.0,0.0,0.0,0.0,0.0,0.0,0.0,0.0,0.0,0.0,0.0,0.0,0.0,0.0,0.0,0.0,0.0,0.0,0.0,0.0,0.0,0.0,0.0,0.0,0.0,0.0,0.0,0.0,0.0,0.0,0.0,0.0,0.0,0.0,0.0,0.0,0.0,0.0,0.0,0.0,0.0,0.0,0.0,0.0,0.0,0.0,0.0,0.0,0.0,0.0,0.0,0.0,0.0,0.0,0.0,0.0,0.0,0.0,0.0,0.0,0.0,0.0,0.0,0.0,0.0,0.0,0.0,0.0,0.0,0.0,0.0,0.0,0.0,0.0,0.0,0.0,0.0,0.0,0.0,0.0,0.0,0.0,0.0,0.0,0.0,0.0,0.0,0.0,0.0,0.0,0.0,0.0,0.0,0.0,0.0,0.0,0.0,0.0,0.0,0.0,0.0,0.0,0.0,0.0,0.0,0.0,0.0,0.0,0.0,0.0,0.0,0.0,0.0,0.0,0.0,0.0,0.0,0.0,0.0,0.0,0.0,0.0,0.0,0.0,0.0,0.0,0.0,0.0,0.0,0.0,0.0,0.0,0.0,0.0,0.0,0.0,0.0,0.0,0.0,0.0,0.0,0.0,0.0,0.0,0.0,0.0,0.0,0.0,0.0,0.0,0.0,0.0,0.0,0.0,0.0,0.0,0.0,0.0,0.0,0.0,0.0,0.0,0.0,0.0,0.0,0.0,0.0,0.0,0.0,0.0,0.0,0.0,0.0,0.0,0.0,0.0,0.0,0.0,0.0,0.0,0.0,0.0,0.0,0.0,0.0,0.0,0.0,0.0,0.0,0.0,0.0,0.0,0.0,0.0,0.0,0.0,0.0,0.0,0.0,0.0,0.0,0.0,0.0,0.0,0.0,0.0,0.0,0.0,0.0,0.0,0.0,0.0,0.0,0.0,0.0,0.0,0.0,0.0,0.0,0.0,0.0,0.0,0.0,0.0,0.0,0.0,0.0,0.0,0.0,0.0,0.0,0.0,0.0,0.0,0.0,0.0,0.0,0.0,0.0,0.0,0.0,0.0,0.0,0.0,0.0,0.0,0.0,0.0,0.0,0.0,0.0,0.0,0.0,0.0,0.0,0.0,0.0,0.0,0.0,0.0,0.0,0.0,0.0,0.0,0.0,0.0,0.0,0.0,0.0,0.0,0.0,0.0,0.0,0.0,0.0,0.0,0.0,0.0,0.0,0.0,0.0,0.0,0.0,0.0,0.0,0.0,0.0,0.0,0.0,0.0,0.0,0.0,0.0,0.0,0.0,0.0,0.0,0.0,0.0,0.0,0.0,0.0,0.0,0.0,0.0,0.0,0.0,0.0,0.0,0.0,0.0,0.0,0.0,0.0,0.0,0.0,0.0,0.0,0.0,0.0,0.0,0.0,0.0,0.0,0.0,0.0,0.0,0.0,0.0,0.0,0.0,0.0,0.0,0.0,0.0,0.0,0.0,0.0,0.0,0.0,0.0,0.0,0.0,0.0,0.0,0.0,0.0,0.0,0.0,0.0,0.0,0.0,0.0,0.0,0.0,0.0,0.0,0.0,0.0,0.0,0.0,0.0,0.0,0.0,0.0,0.0,0.0,0.0,0.0,0.0,0.0,0.0,0.0,0.0,0.0,0.0,0.0,0.0,0.0,0.0,0.0,0.0,0.0,0.0,0.0,0.0,0.0,0.0,0.0,0.0,0.0,0.0,0.0,0.0,0.0,0.0,0.0,0.0,0.0,0.0,0.0,0.0,0.0,0.0,0.0,0.0,0.0,0.0,0.0,0.0,0.0,0.0,0.0,0.0,0.0,0.0,0.0,0.0,0.0,0.0,0.0,0.0,0.0,0.0,0.0,0.0,0.0,0.0,0.0,0.0,0.0,0.0,0.0,0.0,0.0,0.0,0.0,0.0,0.0,0.0,0.0,0.0,0.0,0.0,0.0,0.0,0.0,0.0,0.0,0.0,0.0,0.0,0.0,0.0,0.0,0.0,0.0,0.0,0.0,0.0,0.0,0.0,0.0,0.0,0.0,0.0,0.0,0.0,0.0,0.0,0.0,0.0,0.0,0.0,0.0,0.0,0.0,0.0,0.0,0.0,0.0,0.0,0.0,0.0,0.0,0.0,0.0,0.0,0.0,0.0,0.0,0.0,0.0,0.0,0.0,0.0,0.0,0.0,0.0,0.0,0.0,0.0,0.0,0.0,0.0,0.0,0.0,0.0,0.0,0.0,0.0,0.0,0.0,0.0,0.0,0.0,0.0,0.0,0.0,0.0,0.0,0.0,0.0,0.0,0.0,0.0,0.0,0.0,0.0,0.0,0.0,0.0,0.0,0.0,0.0,0.0,0.0,0.0,0.0,0.0,0.0,0.0,0.0,0.0,0.0,0.0,0.0,0.0,0.0,0.0,0.0,0.0,0.0,0.0,0.0,0.0,0.0,0.0,0.0,0.0,0.0,0.0,0.0,0.0,0.0,0.0,0.0,0.0,0.0,0.0,0.0,0.0,0.0,0.0,0.0,0.0,0.0,0.0,0.0,0.0,0.0,0.0,0.0,0.0,0.0,0.0,0.0,0.0,0.0,0.0,0.0,0.0,0.0,0.0,0.0,0.0,0.0,0.0,0.0,0.0,0.0,0.0,0.0,0.0,0.0,0.0,0.0,0.0,0.0,0.0,0.0,0.0,0.0,0.0,0.0,0.0,0.0,0.0,0.0,0.0,0.0,0.0,0.0,0.0,0.0,0.0,0.0,0.0,0.0,0.0,0.0,0.0,0.0,0.0,0.0,0.0,0.0,0.0,0.0,0.0,0.0,0.0,0.0,0.0,0.0,0.0,0.0,0.0,0.0,0.0,0.0,0.0,0.0,0.0,0.0,0.0,0.0,0.0,0.0,0.0,0.0,0.0,0.0,0.0,0.0,0.0,0.0,0.0,0.0,0.0,0.0,0.0,0.0,0.0,0.0,0.0,0.0,0.0,0.0,0.0,0.0,0.0,0.0,0.0,0.0,0.0,0.0,0.0,0.0,0.0,0.0,0.0,0.0,0.0,0.0,0.0,0.0,0.0,0.0,0.0,0.0,0.0,0.0,0.0,0.0,0.0,0.0,0.0,0.0,0.0,0.0,0.0,0.0,0.0,0.0,0.0,0.0,0.0,0.0,0.0,0.0,0.0,0.0,0.0,0.0,0.0,0.0,0.0,0.0,0.0,0.0,0.0,0.0,0.0,0.0,0.0,0.0,0.0,0.0,0.0,0.0,0.0,0.0,0.0,0.0,0.0,0.0,0.0,0.0,0.0,0.0,0.0,0.0,0.0,0.0,0.0,0.0,0.0,0.0,0.0,0.0,0.0,0.0,0.0,0.0,0.0,0.0,0.0,0.0,0.0,0.0,0.0,0.0,0.0,0.0,0.0,0.0,0.0,0.0,0.0,0.0,0.0,0.0,0.0,0.0,0.0,0.0,0.0,0.0,0.0,0.0,0.0,0.0,0.0,0.0,0.0,0.0,0.0,0.0,0.0,0.0,0.0,0.0,0.0,0.0,0.0,0.0,0.0,0.0,0.0,0.0,0.0,0.0,0.0,0.0,0.0,0.0,0.0,0.0,0.0,0.0,0.0,0.0,0.0,0.0,0.0,0.0,0.0,0.0,0.0,0.0,0.0,0.0,0.0,0.0,0.0,0.0,0.0,0.0,0.0,0.0,0.0,0.0,0.0,0.0,0.0,0.0,0.0,0.0,0.0,0.0,0.0,0.0,0.0,0.0,0.0,0.0,0.0,0.0,0.0,0.0,0.0,0.0,0.0,0.0,0.0,0.0,0.0,0.0,0.0,0.0,0.0,0.0,0.0,0.0,0.0,0.0,0.0,0.0,0.0,0.0,0.0,0.0,0.0,0.0,0.0,0.0,0.0,0.0,0.0,0.0,0.0,0.0,0.0,0.0,0.0,0.0,0.0,0.0,0.0,0.0,0.0,0.0,0.0,0.0,0.0,0.0,0.0,0.0,0.0,0.0,0.0,0.0,0.0,0.0,0.0,0.0,0.0,0.0,0.0,0.0,0.0,0.0,0.0,0.0,0.0,0.0,0.0,0.0,0.0,0.0,0.0,0.0,0.0,0.0,0.0,0.0,0.0,0.0,0.0,0.0,0.0,0.0,0.0,0.0,0.0,0.0,0.0,0.0,0.0,0.0,0.0,0.0,0.0,1.9296,0.0,0.0,0.0,0.0,0.0,0.0,0.0,0.0,0.0,0.0,0.0,0.0,0.0,0.0,0.0,0.0,0.0,0.0,0.0,0.0,0.0,0.0,0.0,0.0,0.0,0.0,0.0,0.0,0.0,0.0,0.0,0.0,0.0,0.0,0.0,0.0,0.0,0.0,0.0,0.0,0.0,0.0,0.0,0.0,0.0,0.0,0.0,0.0,0.0,0.0,0.0,0.0,0.0,0.0,0.0,0.0,0.0,0.0,0.0,0.0,0.0,0.0,0.0,0.0,0.0,0.0,0.0,0.0,0.0,0.0,0.0,0.0,0.0,0.0,0.0,0.0,0.0,0.0,0.0,0.0,0.0,0.0,0.0,0.0,0.0,0.0,0.0,0.0,0.0,0.0,0.0,0.0,0.0,0.0,0.0,0.0,0.0,0.0,0.0,0.0,0.0,0.0,0.0,0.0,0.0,0.0,0.0,0.0,0.0,0.0,1.8099,1.7299,1.8077,1.8544,1.8566,0.0,0.0,0.0,0.0,0.0,0.0,0.0,0.0,0.0,0.0,0.0,0.0,0.0,0.0,0.0,0.0,0.0,0.0,0.0,0.0,0.0,0.0,0.0,0.0,0.0,0.0,0.0,0.0,0.0,0.0,0.0,0.0,0.0,0.0,0.0,0.0,0.0,0.0,0.0,0.0,0.0,0.0,0.0,0.0,0.0,0.0,0.0,0.0,0.0,0.0,0.0,0.0,0.0,0.0,0.0,0.0,0.0,0.0,0.0,0.0,0.0,0.0,0.0,0.0,0.0,0.0,0.0,0.0,0.0,0.0,0.0,0.0,0.0,0.0,0.0,0.0,0.0,0.0,0.0,0.0,0.0,0.0,0.0,0.0,0.0,0.0,0.0,0.0,0.0,0.0,0.0,0.0,0.0,0.0,0.0,0.0,0.0,0.0,0.0,0.0,0.0,0.0,0.0,0.0,0.0,0.0,0.0,0.0,0.0,0.0,0.0,0.0,1.8507,1.9165,1.9415,0.0,0.0,0.0,0.0,0.0,0.0,0.0,0.0,0.0,0.0,0.0,0.0,0.0,0.0,0.0,0.0,0.0,0.0,0.0,0.0,0.0,0.0,0.0,0.0,0.0,0.0,0.0,0.0,0.0,0.0,0.0,0.0,0.0,0.0,0.0,0.0,0.0,0.0,0.0,0.0,0.0,0.0,0.0,0.0,0.0,0.0,0.0,0.0,0.0,0.0,0.0,0.0,0.0,0.0,0.0,0.0,0.0,0.0,0.0,0.0,0.0,0.0,0.0,0.0,0.0,0.0,0.0,0.0,0.0,0.0,0.0,0.0,0.0,0.0,0.0,0.0,0.0,0.0,0.0,0.0,0.0,0.0,0.0,0.0,0.0,0.0,0.0,0.0,0.0,0.0,0.0,0.0,0.0,0.0,0.0,0.0,0.0,0.0,0.0,0.0,0.0,0.0,0.0,0.0,0.0,0.0,0.0,0.0,0.0,0.0,1.9318,2.0065,2.1701,0.0,2.3758,0.0,0.0,0.0,0.0,0.0,0.0,0.0,0.0,0.0,0.0,0.0,0.0,0.0,0.0,0.0,0.0,0.0,0.0,0.0,0.0,0.0,0.0,0.0,0.0,0.0,0.0,0.0,0.0,0.0,0.0,0.0,0.0,0.0,0.0,0.0,0.0,0.0,0.0,0.0,0.0,0.0,0.0,0.0,0.0,0.0,0.0,0.0,0.0,0.0,0.0,0.0,0.0,0.0,0.0,0.0,0.0,0.0,0.0,0.0,0.0,0.0,0.0,0.0,0.0,0.0,0.0,0.0,0.0,0.0,0.0,0.0,0.0,0.0,0.0,0.0,0.0,0.0,0.0,0.0,0.0,0.0,0.0,0.0,0.0,0.0,0.0,0.0,0.0,0.0,0.0,0.0,0.0,0.0,0.0,0.0,0.0,0.0,0.0,0.0,0.0,0.0,0.0,0.0,0.0,0.0,0.0,0.0,0.0,0.0,0.0,2.1086,2.0435,2.2119,2.2987,0.0,0.0,0.0,0.0,0.0,0.0,0.0,0.0,0.0,0.0,0.0,0.0,0.0,0.0,0.0,0.0,0.0,0.0,0.0,0.0,0.0,0.0,0.0,0.0,0.0,0.0,0.0,0.0,0.0,0.0,0.0,0.0,0.0,0.0,0.0,0.0,0.0,0.0,0.0,0.0,0.0,0.0,0.0,0.0,0.0,0.0,0.0,0.0,0.0,0.0,0.0,0.0,0.0,0.0,0.0,0.0,0.0,0.0,0.0,0.0,0.0,0.0,0.0,0.0,0.0,0.0,0.0,0.0,0.0,0.0,0.0,0.0,0.0,0.0,0.0,0.0,0.0,0.0,0.0,0.0,0.0,0.0,0.0,0.0,0.0,0.0,0.0,0.0,0.0,0.0,0.0,0.0,0.0,0.0,0.0,0.0,0.0,0.0,0.0,0.0,0.0,0.0,0.0,0.0,0.0,0.0,0.0,0.0,0.0,0.0,2.2178,2.2701,2.2241,2.3162,2.3227,2.2195,0.0,0.0,0.0,0.0,0.0,0.0,0.0,0.0,0.0,0.0,0.0,0.0,0.0,0.0,0.0,0.0,0.0,0.0,0.0,0.0,0.0,0.0,0.0,0.0,0.0,0.0,0.0,0.0,0.0,0.0,0.0,0.0,0.0,0.0,0.0,0.0,0.0,0.0,0.0,0.0,0.0,0.0,0.0,0.0,0.0,0.0,0.0,0.0,0.0,0.0,0.0,0.0,0.0,0.0,0.0,0.0,0.0,0.0,0.0,0.0,0.0,0.0,0.0,0.0,0.0,0.0,0.0,0.0,0.0,0.0,0.0,0.0,0.0,0.0,0.0,0.0,0.0,0.0,0.0,0.0,0.0,0.0,0.0,0.0,0.0,0.0,0.0,0.0,0.0,0.0,0.0,0.0,0.0,0.0,0.0,0.0,0.0,0.0,0.0,0.0,0.0,0.0,0.0,0.0,0.0,0.0,0.0,0.0,2.7043,2.4432,2.4064,2.6336,2.5843,2.4724,0.0,0.0,0.0,0.0,0.0,0.0,0.0,0.0,0.0,0.0,0.0,0.0,0.0,0.0,0.0,0.0,0.0,0.0,0.0,0.0,0.0,0.0,0.0,0.0,0.0,0.0,0.0,0.0,0.0,0.0,0.0,0.0,0.0,0.0,0.0,0.0,0.0,0.0,0.0,0.0,0.0,0.0,0.0,0.0,0.0,0.0,0.0,0.0,0.0,0.0,0.0,0.0,0.0,0.0,0.0,0.0,0.0,0.0,0.0,0.0,0.0,0.0,0.0,0.0,0.0,0.0,0.0,0.0,0.0,0.0,0.0,0.0,0.0,0.0,0.0,0.0,0.0,0.0,0.0,0.0,0.0,0.0,0.0,0.0,0.0,0.0,0.0,0.0,0.0,0.0,0.0,0.0,0.0,0.0,0.0,0.0,0.0,0.0,0.0,0.0,0.0,0.0,0.0,0.0,0.0,0.0,0.0,0.0,0.0,2.2204,2.2168,2.3893,2.733,2.4715,2.2839,0.0,0.0,0.0,0.0,0.0,0.0,0.0,0.0,0.0,0.0,0.0,0.0,0.0,0.0,0.0,0.0,0.0,0.0,0.0,0.0,0.0,0.0,0.0,0.0,0.0,0.0,0.0,0.0,0.0,0.0,0.0,0.0,0.0,0.0,0.0,0.0,0.0,0.0,0.0,0.0,0.0,0.0,0.0,0.0,0.0,0.0,0.0,0.0,0.0,0.0,0.0,0.0,0.0,0.0,0.0,0.0,0.0,0.0,0.0,0.0,0.0,0.0,0.0,0.0,0.0,0.0,0.0,0.0,0.0,0.0,0.0,0.0,0.0,0.0,0.0,0.0,0.0,0.0,0.0,0.0,0.0,0.0,0.0,0.0,0.0,0.0,0.0,0.0,0.0,0.0,0.0,0.0,0.0,0.0,0.0,0.0,0.0,0.0,0.0,0.0,0.0,0.0,0.0,0.0,0.0,0.0,0.0,0.0,0.0,2.1588,0.0,2.5334,2.7404,2.4344,2.1915,0.0,0.0,0.0,0.0,0.0,0.0,0.0,0.0,0.0,0.0,0.0,0.0,0.0,0.0,0.0,0.0,0.0,0.0,0.0,0.0,0.0,0.0,0.0,0.0,0.0,0.0,0.0,0.0,0.0,0.0,0.0,0.0,0.0,0.0,0.0,0.0,0.0,0.0,0.0,0.0,0.0,0.0,0.0,0.0,0.0,0.0,0.0,0.0,0.0,0.0,0.0,0.0,0.0,0.0,0.0,0.0,0.0,0.0,0.0,0.0,0.0,0.0,0.0,0.0,0.0,0.0,0.0,0.0,0.0,0.0,0.0,0.0,0.0,0.0,0.0,0.0,0.0,0.0,0.0,0.0,0.0,0.0,0.0,0.0,0.0,0.0,0.0,0.0,0.0,0.0,0.0,0.0,0.0,0.0,0.0,0.0,0.0,0.0,0.0,0.0,0.0,0.0,0.0,0.0,0.0,0.0,0.0,0.0,2.2478,2.6452,2.8175,2.8204,2.6854,2.504,2.2237,0.0,0.0,0.0,0.0,0.0,0.0,0.0,0.0,0.0,0.0,0.0,0.0,0.0,0.0,0.0,0.0,0.0,0.0,0.0,0.0,0.0,0.0,0.0,0.0,0.0,0.0,0.0,0.0,0.0,0.0,0.0,0.0,0.0,0.0,0.0,0.0,0.0,0.0,0.0,0.0,0.0,0.0,0.0,0.0,0.0,0.0,0.0,0.0,0.0,0.0,0.0,0.0,0.0,0.0,0.0,0.0,0.0,0.0,0.0,0.0,0.0,0.0,0.0,0.0,0.0,0.0,0.0,0.0,0.0,0.0,0.0,0.0,0.0,0.0,0.0,0.0,0.0,0.0,0.0,0.0,0.0,0.0,0.0,0.0,0.0,0.0,0.0,0.0,0.0,0.0,0.0,0.0,0.0,0.0,0.0,0.0,0.0,0.0,0.0,0.0,0.0,0.0,0.0,0.0,0.0,0.0,0.0,0.0,0.0,2.3323,2.5001,2.6479,2.7485,2.3744,2.1556,0.0,0.0,0.0,0.0,0.0,0.0,0.0,0.0,0.0,0.0,0.0,0.0,0.0,0.0,0.0,0.0,0.0,0.0,0.0,0.0,0.0,0.0,0.0,0.0,0.0,0.0,0.0,0.0,0.0,0.0,0.0,0.0,0.0,0.0,0.0,0.0,0.0,0.0,0.0,0.0,0.0,0.0,0.0,0.0,0.0,0.0,0.0,0.0,0.0,0.0,0.0,0.0,0.0,0.0,0.0,0.0,0.0,0.0,0.0,0.0,0.0,0.0,0.0,0.0,0.0,0.0,0.0,0.0,0.0,0.0,0.0,0.0,0.0,0.0,0.0,0.0,0.0,0.0,0.0,0.0,0.0,0.0,0.0,0.0,0.0,0.0,0.0,0.0,0.0,0.0,0.0,0.0,0.0,0.0,0.0,0.0,0.0,0.0,0.0,0.0,0.0,0.0,0.0,0.0,0.0,0.0,0.0,0.0,0.0,2.4725,2.6303,2.764,2.8579,2.4524,2.2234,2.1979,0.0,0.0,0.0,0.0,0.0,0.0,0.0,0.0,0.0,0.0,0.0,0.0,0.0,0.0,0.0,0.0,0.0,0.0,0.0,0.0,0.0,0.0,0.0,0.0,0.0,0.0,0.0,0.0,0.0,0.0,0.0,0.0,0.0,0.0,0.0,0.0,0.0,0.0,0.0,0.0,0.0,0.0,0.0,0.0,0.0,0.0,0.0,0.0,0.0,0.0,0.0,0.0,0.0,0.0,0.0,0.0,0.0,0.0,0.0,0.0,0.0,0.0,0.0,0.0,0.0,0.0,0.0,0.0,0.0,0.0,0.0,0.0,0.0,0.0,0.0,0.0,0.0,0.0,0.0,0.0,0.0,0.0,0.0,0.0,0.0,0.0,0.0,0.0,0.0,0.0,0.0,0.0,0.0,0.0,0.0,0.0,0.0,0.0,0.0,0.0,0.0,0.0,0.0,0.0,0.0,0.0,0.0,0.0,2.9556,3.1359,3.1487,2.9833,2.721,2.4209,0.0,0.0,0.0,0.0,0.0,0.0,0.0,0.0,0.0,0.0,0.0,0.0,0.0,0.0,0.0,0.0,0.0,0.0,0.0,0.0,0.0,0.0,0.0,0.0,0.0,0.0,0.0,0.0,0.0,0.0,0.0,0.0,0.0,0.0,0.0,0.0,0.0,0.0,0.0,0.0,0.0,0.0,0.0,0.0,0.0,0.0,0.0,0.0,0.0,0.0,0.0,0.0,0.0,0.0,0.0,0.0,0.0,0.0,0.0,0.0,0.0,0.0,0.0,0.0,0.0,0.0,0.0,0.0,0.0,0.0,0.0,0.0,0.0,0.0,0.0,0.0,0.0,0.0,0.0,0.0,0.0,0.0,0.0,0.0,0.0,0.0,0.0,0.0,0.0,0.0,0.0,0.0,0.0,0.0,0.0,0.0,0.0,0.0,0.0,0.0,0.0,0.0,0.0,0.0,0.0,0.0,0.0,0.0,0.0,3.0434,3.3365,3.4698,3.4124,3.0448,2.7387,0.0,0.0,0.0,0.0,0.0,0.0,0.0,0.0,0.0,0.0,0.0,0.0,0.0,0.0,0.0,0.0,0.0,0.0,0.0,0.0,0.0,0.0,0.0,0.0,0.0,0.0,0.0,0.0,0.0,0.0,0.0,0.0,0.0,0.0,0.0,0.0,0.0,0.0,0.0,0.0,0.0,0.0,0.0,0.0,0.0,0.0,0.0,0.0,0.0,0.0,0.0,0.0,0.0,0.0,0.0,0.0,0.0,0.0,0.0,0.0,0.0,0.0,0.0,0.0,0.0,0.0,0.0,0.0,0.0,0.0,0.0,0.0,0.0,0.0,0.0,0.0,0.0,0.0,0.0,0.0,0.0,0.0,0.0,0.0,0.0,0.0,0.0,0.0,0.0,0.0,0.0,0.0,0.0,0.0,0.0,0.0,0.0,0.0,0.0,0.0,0.0,0.0,0.0,0.0,0.0,0.0,0.0,0.0,2.9785,3.2373,3.5757,3.7542,3.754,3.3663,2.9891,0.0,0.0,0.0,0.0,0.0,0.0,0.0,0.0,0.0,0.0,0.0,0.0,0.0,0.0,0.0,0.0,0.0,0.0,0.0,0.0,0.0,0.0,0.0,0.0,0.0,0.0,0.0,0.0,0.0,0.0,0.0,0.0,0.0,0.0,0.0,0.0,0.0,0.0,0.0,0.0,0.0,0.0,0.0,0.0,0.0,0.0,0.0,0.0,0.0,0.0,0.0,0.0,0.0,0.0,0.0,0.0,0.0,0.0,0.0,0.0,0.0,0.0,0.0,0.0,0.0,0.0,0.0,0.0,0.0,0.0,0.0,0.0,0.0,0.0,0.0,0.0,0.0,0.0,0.0,0.0,0.0,0.0,0.0,0.0,0.0,0.0,0.0,0.0,0.0,0.0,0.0,0.0,0.0,0.0,0.0,0.0,0.0,0.0,0.0,0.0,0.0,0.0,0.0,0.0,0.0,0.0,0.0,0.0,3.2065,3.4705,3.8047,3.9796,3.9697,3.6365,3.1903,0.0,0.0,0.0,0.0,0.0,0.0,0.0,0.0,0.0,0.0,0.0,0.0,0.0,0.0,0.0,0.0,0.0,0.0,0.0,0.0,0.0,0.0,0.0,0.0,0.0,0.0,0.0,0.0,0.0,0.0,0.0,0.0,0.0,0.0,0.0,0.0,0.0,0.0,0.0,0.0,0.0,0.0,0.0,0.0,0.0,0.0,0.0,0.0,0.0,0.0,0.0,0.0,0.0,0.0,0.0,0.0,0.0,0.0,0.0,0.0,0.0,0.0,0.0,0.0,0.0,0.0,0.0,0.0,0.0,0.0,0.0,0.0,0.0,0.0,0.0,0.0,0.0,0.0,0.0,0.0,0.0,0.0,0.0,0.0,0.0,0.0,0.0,0.0,0.0,0.0,0.0,0.0,0.0,0.0,0.0,0.0,0.0,0.0,0.0,0.0,0.0,0.0,0.0,0.0,0.0,0.0,0.0,0.0,3.2358,3.5564,3.8355,3.9803,3.9778,3.6406,3.3028,0.0,0.0,0.0,0.0,0.0,0.0,0.0,0.0,0.0,0.0,0.0,0.0,0.0,0.0,0.0,0.0,0.0,0.0,0.0,0.0,0.0,0.0,0.0,0.0,0.0,0.0,0.0,0.0,0.0,0.0,0.0,0.0,0.0,0.0,0.0,0.0,0.0,0.0,0.0,0.0,0.0,0.0,0.0,0.0,0.0,0.0,0.0,0.0,2.1796,0.0,0.0,0.0,0.0,0.0,0.0,0.0,0.0,0.0,0.0,0.0,0.0,0.0,0.0,0.0,0.0,0.0,0.0,0.0,0.0,0.0,0.0,0.0,0.0,0.0,0.0,0.0,0.0,0.0,0.0,0.0,0.0,0.0,0.0,0.0,0.0,0.0,0.0,0.0,0.0,0.0,0.0,0.0,0.0,0.0,0.0,0.0,0.0,0.0,0.0,0.0,0.0,0.0,0.0,0.0,0.0,0.0,0.0,0.0,3.3872,3.6501,3.9082,4.0406,4.0313,3.7433,3.4221,0.0,0.0,0.0,0.0,0.0,0.0,0.0,0.0,0.0,0.0,0.0,0.0,0.0,0.0,0.0,0.0,0.0,0.0,0.0,0.0,0.0,0.0,0.0,0.0,0.0,0.0,0.0,0.0,0.0,0.0,0.0,0.0,0.0,0.0,0.0,0.0,0.0,0.0,0.0,0.0,0.0,0.0,0.0,0.0,0.0,0.0,0.0,0.0,0.0,0.0,0.0,0.0,0.0,0.0,0.0,0.0,0.0,0.0,0.0,0.0,0.0,0.0,0.0,0.0,0.0,0.0,0.0,0.0,0.0,0.0,0.0,0.0,0.0,0.0,0.0,0.0,0.0,0.0,0.0,0.0,0.0,0.0,0.0,0.0,0.0,0.0,0.0,0.0,0.0,0.0,0.0,0.0,0.0,0.0,0.0,0.0,0.0,0.0,0.0,0.0,0.0,0.0,0.0,0.0,0.0,0.0,0.0,3.193,3.5298,3.7478,3.9861,4.1035,4.0856,3.8634,3.5286,3.09,0.0,0.0,0.0,0.0,0.0,0.0,0.0,0.0,0.0,0.0,0.0,0.0,0.0,0.0,0.0,0.0,0.0,0.0,0.0,0.0,0.0,0.0,0.0,0.0,0.0,0.0,0.0,0.0,0.0,0.0,0.0,0.0,0.0,0.0,0.0,0.0,0.0,0.0,2.265,2.3978,0.0,0.0,0.0,0.0,0.0,0.0,0.0,0.0,2.4608,0.0,0.0,0.0,0.0,0.0,0.0,0.0,0.0,0.0,0.0,0.0,0.0,0.0,0.0,0.0,0.0,0.0,0.0,0.0,0.0,0.0,0.0,0.0,0.0,0.0,0.0,0.0,0.0,0.0,0.0,0.0,0.0,0.0,0.0,0.0,0.0,0.0,0.0,0.0,0.0,0.0,0.0,0.0,0.0,0.0,0.0,0.0,0.0,0.0,0.0,0.0,0.0,0.0,0.0,0.0,0.0,3.0055,3.1707,3.442,3.8304,4.017,4.0741,4.0019,3.8894,3.5919,3.1059,0.0,0.0,0.0,0.0,0.0,0.0,0.0,0.0,0.0,0.0,0.0,0.0,0.0,0.0,0.0,0.0,0.0,0.0,0.0,0.0,0.0,0.0,0.0,0.0,0.0,0.0,0.0,0.0,0.0,0.0,0.0,0.0,0.0,0.0,0.0,0.0,0.0,0.0,0.0,2.6952,2.7441,0.0,0.0,0.0,0.0,0.0,0.0,0.0,0.0,2.4799,0.0,0.0,0.0,0.0,0.0,0.0,0.0,0.0,0.0,0.0,0.0,0.0,0.0,0.0,0.0,0.0,0.0,0.0,0.0,0.0,0.0,0.0,0.0,0.0,0.0,0.0,0.0,0.0,0.0,0.0,0.0,0.0,0.0,0.0,0.0,0.0,0.0,0.0,0.0,0.0,0.0,0.0,0.0,0.0,0.0,0.0,0.0,0.0,0.0,0.0,0.0,0.0,0.0,0.0,0.0,2.937,3.2535,3.5591,3.8533,4.024,4.0693,3.9796,3.7675,3.4715,0.0,0.0,0.0,0.0,0.0,0.0,0.0,0.0,0.0,0.0,0.0,0.0,0.0,0.0,0.0,0.0,0.0,0.0,0.0,0.0,0.0,0.0,0.0,0.0,0.0,0.0,0.0,0.0,0.0,0.0,0.0,0.0,0.0,0.0,0.0,0.0,0.0,0.0,0.0,0.0,2.8359,2.875,2.8398,0.0,0.0,0.0,0.0,0.0,0.0,2.5432,2.5576,0.0,0.0,0.0,0.0,0.0,0.0,0.0,0.0,0.0,0.0,0.0,0.0,0.0,0.0,0.0,0.0,0.0,0.0,0.0,0.0,0.0,0.0,0.0,0.0,0.0,0.0,0.0,0.0,0.0,0.0,0.0,0.0,0.0,0.0,0.0,0.0,0.0,0.0,0.0,0.0,0.0,0.0,0.0,0.0,0.0,0.0,0.0,0.0,0.0,0.0,0.0,0.0,0.0,0.0,0.0,2.833,3.303,3.649,3.8552,4.0231,4.06,3.9548,3.6737,3.3671,0.0,0.0,0.0,0.0,0.0,0.0,0.0,0.0,0.0,0.0,0.0,0.0,0.0,0.0,0.0,0.0,0.0,0.0,0.0,0.0,0.0,0.0,0.0,0.0,0.0,0.0,0.0,0.0,0.0,0.0,0.0,0.0,0.0,0.0,0.0,0.0,0.0,0.0,0.0,0.0,0.0,3.0195,2.9882,2.9551,0.0,0.0,0.0,0.0,2.6461,2.7184,0.0,0.0,0.0,0.0,0.0,0.0,0.0,0.0,0.0,0.0,0.0,0.0,0.0,0.0,0.0,0.0,0.0,0.0,0.0,0.0,0.0,0.0,0.0,0.0,0.0,0.0,0.0,0.0,0.0,0.0,0.0,0.0,0.0,0.0,0.0,0.0,0.0,0.0,0.0,0.0,0.0,0.0,0.0,0.0,0.0,0.0,0.0,0.0,0.0,0.0,0.0,0.0,0.0,0.0,0.0,0.0,2.8212,3.1849,3.529,3.8474,4.0231,4.0367,3.8786,3.7558,3.4276,0.0,0.0,0.0,0.0,0.0,0.0,0.0,0.0,0.0,0.0,0.0,0.0,0.0,0.0,0.0,0.0,0.0,0.0,0.0,0.0,0.0,0.0,0.0,0.0,0.0,0.0,0.0,0.0,0.0,0.0,0.0,0.0,0.0,0.0,0.0,0.0,0.0,0.0,0.0,0.0,0.0,3.2401,3.0879,3.1889,3.2737,0.0,0.0,3.1876,3.3278,3.1757,0.0,0.0,0.0,0.0,0.0,0.0,0.0,0.0,0.0,0.0,0.0,0.0,0.0,0.0,0.0,0.0,0.0,0.0,0.0,0.0,0.0,0.0,0.0,0.0,0.0,0.0,0.0,0.0,0.0,0.0,0.0,0.0,0.0,0.0,0.0,0.0,0.0,0.0,0.0,0.0,0.0,0.0,0.0,0.0,0.0,0.0,0.0,0.0,0.0,0.0,0.0,0.0,0.0,0.0,0.0,2.4585,2.8278,3.2127,3.5525,3.8474,3.9284,3.9304,3.8591,3.5816,3.2187,0.0,0.0,0.0,0.0,0.0,0.0,0.0,0.0,0.0,0.0,0.0,0.0,0.0,0.0,0.0,0.0,0.0,0.0,0.0,0.0,0.0,0.0,0.0,0.0,0.0,0.0,0.0,0.0,0.0,0.0,0.0,0.0,0.0,0.0,0.0,0.0,0.0,0.0,0.0,0.0,0.0,0.0,3.2363,3.4176,0.0,0.0,0.0,3.3667,3.3885,0.0,0.0,0.0,0.0,0.0,0.0,0.0,0.0,0.0,0.0,0.0,0.0,0.0,0.0,0.0,0.0,0.0,0.0,0.0,0.0,0.0,0.0,0.0,0.0,0.0,0.0,0.0,0.0,0.0,0.0,0.0,0.0,0.0,0.0,0.0,0.0,0.0,0.0,0.0,0.0,0.0,0.0,0.0,0.0,0.0,0.0,0.0,0.0,0.0,0.0,0.0,0.0,0.0,0.0,0.0,0.0,0.0,2.8276,3.2433,3.5766,3.8128,3.8426,3.8426,3.8188,3.4672,0.0,0.0,0.0,0.0,0.0,0.0,0.0,0.0,0.0,0.0,0.0,0.0,0.0,0.0,0.0,0.0,0.0,0.0,0.0,0.0,0.0,0.0,0.0,0.0,0.0,0.0,0.0,1.8285,0.0,0.0,0.0,0.0,0.0,0.0,0.0,0.0,0.0,0.0,0.0,0.0,0.0,0.0,3.4179,3.4608,3.673,3.7719,0.0,0.0,3.589,3.5615,3.5259,3.3686,0.0,0.0,0.0,0.0,0.0,0.0,0.0,0.0,0.0,0.0,0.0,0.0,0.0,0.0,0.0,0.0,0.0,0.0,0.0,0.0,0.0,0.0,0.0,0.0,0.0,0.0,0.0,0.0,0.0,0.0,0.0,0.0,0.0,0.0,0.0,0.0,0.0,0.0,0.0,0.0,0.0,0.0,0.0,0.0,0.0,0.0,0.0,0.0,0.0,0.0,0.0,0.0,0.0,0.0,0.0,2.8195,3.2355,3.5405,3.7239,3.8099,3.8099,3.73,3.5417,3.2431,0.0,0.0,0.0,0.0,0.0,0.0,0.0,0.0,0.0,0.0,0.0,0.0,0.0,0.0,0.0,0.0,0.0,0.0,0.0,0.0,0.0,0.0,0.0,0.0,0.0,0.0,0.0,0.0,0.0,0.0,0.0,0.0,0.0,0.0,0.0,0.0,0.0,0.0,0.0,0.0,0.0,3.6337,3.7923,3.9704,4.1341,0.0,0.0,3.9994,4.1534,4.0384,3.7674,3.2641,0.0,0.0,0.0,0.0,0.0,0.0,0.0,0.0,0.0,0.0,0.0,0.0,0.0,0.0,0.0,0.0,0.0,0.0,0.0,0.0,0.0,0.0,0.0,0.0,0.0,0.0,0.0,0.0,0.0,0.0,0.0,0.0,0.0,0.0,0.0,0.0,0.0,0.0,0.0,0.0,0.0,0.0,0.0,0.0,0.0,0.0,0.0,0.0,0.0,0.0,0.0,0.0,0.0,2.4635,2.804,3.1704,3.4708,3.6952,3.6895,3.691,3.7194,3.4995,3.2035,0.0,0.0,0.0,0.0,0.0,0.0,0.0,0.0,0.0,0.0,0.0,0.0,0.0,0.0,0.0,0.0,0.0,0.0,0.0,0.0,0.0,0.0,0.0,0.0,0.0,0.0,0.0,0.0,2.2965,2.3202,2.2504,0.0,0.0,0.0,0.0,0.0,0.0,0.0,0.0,0.0,0.0,3.7948,3.9148,4.1208,0.0,0.0,4.2013,4.1571,4.2237,4.0006,3.717,3.4188,3.2107,0.0,0.0,0.0,0.0,0.0,0.0,0.0,0.0,0.0,0.0,0.0,0.0,0.0,0.0,0.0,0.0,0.0,0.0,0.0,0.0,0.0,0.0,0.0,0.0,0.0,0.0,0.0,0.0,0.0,0.0,0.0,0.0,0.0,0.0,0.0,0.0,0.0,0.0,0.0,0.0,0.0,0.0,0.0,0.0,0.0,0.0,0.0,0.0,0.0,0.0,0.0,0.0,2.4805,2.7966,3.1278,3.4124,3.6502,3.6003,3.6034,3.6653,3.4753,3.2211,0.0,0.0,0.0,0.0,0.0,0.0,0.0,0.0,0.0,0.0,0.0,0.0,0.0,0.0,0.0,0.0,0.0,0.0,0.0,0.0,0.0,0.0,0.0,0.0,0.0,0.0,0.0,0.0,2.4901,2.4432,2.2766,0.0,0.0,0.0,0.0,0.0,0.0,0.0,0.0,0.0,0.0,3.9658,4.0791,4.2451,4.3387,4.2863,4.2306,4.2022,4.2284,4.0306,3.8016,3.5822,0.0,0.0,0.0,0.0,0.0,0.0,0.0,0.0,0.0,0.0,0.0,0.0,0.0,0.0,0.0,0.0,0.0,0.0,0.0,0.0,0.0,0.0,0.0,0.0,0.0,0.0,0.0,0.0,0.0,0.0,1.6643,0.0,0.0,0.0,0.0,0.0,0.0,0.0,0.0,0.0,0.0,0.0,0.0,0.0,0.0,0.0,0.0,0.0,0.0,0.0,0.0,0.0,0.0,2.5296,2.7987,3.1253,3.3757,3.5488,3.5646,3.5727,3.5742,3.4968,3.3329,3.0747,0.0,0.0,0.0,0.0,0.0,0.0,0.0,0.0,0.0,0.0,0.0,0.0,0.0,0.0,0.0,0.0,0.0,0.0,0.0,0.0,0.0,0.0,0.0,0.0,0.0,0.0,2.5385,2.4877,2.3758,0.0,0.0,0.0,0.0,0.0,0.0,0.0,0.0,0.0,0.0,3.9843,4.1574,4.3221,4.3491,4.3569,4.3682,4.2283,4.1469,4.2327,4.2275,4.1159,0.0,0.0,0.0,0.0,0.0,0.0,0.0,0.0,0.0,0.0,0.0,0.0,0.0,0.0,0.0,0.0,0.0,0.0,0.0,0.0,0.0,0.0,0.0,0.0,0.0,0.0,0.0,2.1345,2.0503,0.0,0.0,0.0,0.0,0.0,0.0,0.0,0.0,0.0,0.0,0.0,2.6729,2.7634,0.0,0.0,0.0,0.0,0.0,0.0,0.0,0.0,0.0,0.0,0.0,0.0,2.5553,2.8614,3.1365,3.3628,3.5365,3.5463,3.5565,3.5683,3.4894,3.3044,3.0024,0.0,0.0,0.0,0.0,0.0,0.0,0.0,0.0,0.0,0.0,0.0,0.0,0.0,0.0,0.0,0.0,0.0,0.0,0.0,0.0,0.0,0.0,0.0,0.0,0.0,2.5031,0.0,0.0,0.0,0.0,0.0,0.0,0.0,0.0,0.0,0.0,0.0,3.6192,3.8229,4.0905,4.2875,4.3467,4.4014,4.455,0.0,0.0,0.0,0.0,0.0,0.0,0.0,0.0,0.0,0.0,0.0,0.0,0.0,0.0,3.7312,3.155,2.9786,2.9062,2.8543,0.0,0.0,0.0,0.0,0.0,0.0,0.0,0.0,0.0,0.0,0.0,0.0,0.0,0.0,2.4923,0.0,2.3455,0.0,0.0,0.0,0.0,0.0,0.0,0.0,0.0,2.7009,2.8796,3.0157,3.1026,3.1118,0.0,3.0319,2.8061,0.0,0.0,0.0,0.0,0.0,0.0,0.0,0.0,2.665,2.9385,3.1874,3.3853,3.525,3.5364,3.5475,3.557,3.4816,3.3257,3.0862,2.8652,2.6943,0.0,0.0,0.0,0.0,0.0,0.0,0.0,0.0,0.0,0.0,0.0,0.0,0.0,0.0,0.0,0.0,0.0,0.0,0.0,0.0,0.0,0.0,0.0,2.6783,0.0,0.0,0.0,0.0,0.0,0.0,0.0,0.0,0.0,3.2223,3.6239,3.9634,4.0929,4.3204,4.4633,4.4375,0.0,0.0,0.0,0.0,0.0,0.0,0.0,4.2182,4.2457,4.1402,4.0297,3.9627,4.1654,4.2834,4.1135,0.0,0.0,3.6538,3.4725,3.3988,3.348,3.3415,3.3518,3.3839,3.487,3.5892,0.0,0.0,0.0,0.0,0.0,0.0,0.0,0.0,2.7087,2.7958,0.0,2.6799,0.0,0.0,0.0,0.0,0.0,2.679,0.0,0.0,3.1447,3.2583,3.2018,3.2797,3.312,3.3121,3.3965,3.3067,3.0482,2.6533,0.0,0.0,0.0,0.0,0.0,0.0,2.8556,3.0289,3.2714,3.4361,3.5163,3.532,3.5386,3.5381,3.4789,3.4061,3.3204,3.1651,3.0067,2.8433,2.5895,0.0,0.0,0.0,0.0,0.0,0.0,0.0,0.0,0.0,0.0,0.0,0.0,0.0,0.0,0.0,0.0,0.0,0.0,0.0,0.0,2.8494,0.0,0.0,0.0,0.0,0.0,0.0,0.0,0.0,0.0,0.0,3.7405,3.932,4.2055,4.5449,0.0,0.0,0.0,0.0,4.4254,4.3561,4.4091,4.4666,4.4718,4.5949,4.6663,4.6034,0.0,0.0,4.2712,4.4175,4.4943,4.2409,4.3675,4.4535,4.2609,4.0148,3.8618,3.8534,3.7542,3.7015,3.7793,3.9094,4.0416,3.1962,0.0,0.0,0.0,0.0,3.0186,3.1656,3.3872,3.33,3.2654,3.1968,3.1239,0.0,0.0,0.0,0.0,0.0,0.0,3.0993,3.3321,3.4314,3.5269,3.6199,3.6445,3.6542,3.6533,3.6196,3.5361,3.4026,3.2233,2.9085,2.4787,0.0,0.0,0.0,0.0,2.9483,3.1697,3.3054,3.4137,3.4973,3.5157,3.5304,3.5405,3.5313,3.4855,3.4032,3.3041,3.1739,3.0067,2.8208,0.0,0.0,0.0,0.0,0.0,0.0,0.0,0.0,0.0,0.0,0.0,0.0,0.0,0.0,0.0,0.0,0.0,0.0,0.0,2.6758,2.8005,2.866,0.0,0.0,0.0,0.0,0.0,0.0,0.0,0.0,0.0,4.2056,4.3311,4.4551,0.0,0.0,4.5916,4.5723,4.5453,4.561,4.6508,4.688,0.0,4.6953,4.6848,4.6905,4.7316,4.7586,4.7202,4.5636,4.5963,4.5946,4.4409,4.4666,4.496,4.457,4.313,4.1788,4.1156,4.0685,4.0495,4.0789,4.1452,4.2135,3.6871,3.4312,3.283,3.2481,3.2987,3.3226,3.4503,3.6408,3.6372,3.5957,3.5303,3.5102,3.3652,3.1347,3.0379,0.0,0.0,0.0,3.3508,3.5703,3.6056,3.6752,3.7698,3.7717,3.7717,3.7698,3.7192,3.6687,3.6209,3.5657,3.3093,2.8715,0.0,0.0,2.8375,2.9505,3.0982,3.2704,3.3544,3.4272,3.4889,3.5098,3.5242,3.532,3.5438,3.5288,3.4779,3.3734,3.2716,3.1715,2.976,2.721,0.0,0.0,0.0,0.0,0.0,0.0,0.0,0.0,0.0,0.0,0.0,2.0725,2.0092,0.0,0.0,0.0,2.5542,2.7697,3.0246,3.125,0.0,0.0,0.0,0.0,0.0,0.0,0.0,3.9863,4.2506,4.4572,4.558,4.6464,4.6885,4.664,4.6824,4.6886,4.6602,0.0,4.6848,4.7787,4.8248,4.8469,4.8375,4.8135,4.7999,4.8057,4.8201,4.7974,4.7171,4.6844,4.6481,4.587,4.5357,4.5057,4.5184,4.4552,4.3891,4.3334,4.3268,4.3262,4.2956,4.3114,4.3521,4.14,4.0382,3.689,3.5401,3.5401,3.5883,3.6117,3.6271,3.7239,3.8041,3.8622,3.8178,3.7488,3.6522,3.4277,0.0,3.4295,3.5018,3.5693,3.6295,3.712,3.749,3.7461,3.7509,3.749,3.749,3.749,3.7453,3.7387,3.7335,3.6065,3.3714,3.2515,3.1684,3.125,3.2012,3.275,3.3377,3.41,3.4612,3.4889,3.5081,3.5193,3.5209,3.5262,3.5313,3.5348,3.3909,3.3097,3.3006,3.0738,2.8647,2.6928,0.0,0.0,0.0,0.0,0.0,0.0,0.0,0.0,0.0,0.0,0.0,0.0,0.0,0.0,0.0,3.0271,0.0,3.5554,3.6444,0.0,0.0,0.0,3.6649,3.8578,4.0758,4.2428,4.3361,0.0,0.0,4.8095,4.8728,4.8917,4.8183,4.8673,4.8859,4.8164,4.8006,4.7988,4.8097,4.8684,4.9196,4.9204,4.9428,4.9308,4.8499,4.8548,4.8441,4.7725,4.7228,4.6882,4.6719,4.5802,4.5086,4.5093,4.5233,4.521,4.4957,4.5101,4.5012,4.4207,4.4196,4.4461,4.1477,4.1217,4.0313,3.9657,3.9194,3.8732,3.8908,3.9495,3.9164,3.8807,3.8384,3.8469,3.8051,3.7233,3.6444,3.6524,3.7259,3.7539,3.8066,3.8746,3.9006,3.9101,3.9048,3.9048,3.909,3.9123,3.9142,3.8842,3.8288,3.8226,3.7519,3.6239,3.5272,3.3808,3.1949,3.2489,3.3191,3.3983,3.4181,3.4461,3.4898,3.4936,3.5063,3.5269,3.4665,3.4361,3.4397,3.3521,3.2743,3.214,3.0956,2.9247,2.6934,2.4821,0.0,0.0,0.0,0.0,0.0,0.0,0.0,0.0,0.0,2.6222,2.3265,0.0,2.9537,0.0,3.224,3.4333,3.5529,3.5815,0.0,0.0,3.8955,4.0101,4.4093,4.4605,4.5143,4.6521,4.7943,4.884,4.8848,4.9522,4.9721,4.8974,4.8979,4.9025,4.884,4.8818,4.9045,4.9557,4.9836,5.0019,4.9946,4.9886,4.9599,4.9134,4.9089,4.8884,4.8097,4.8088,4.796,4.7307,4.6595,4.6306,4.6594,4.6301,4.5707,4.5257,4.5016,4.4624,4.3848,4.3939,4.4221,4.2382,4.2398,4.24,4.2199,4.1798,4.0643,4.042,4.0839,4.0522,4.0136,3.9718,3.9621,3.9153,3.8399,3.8237,3.839,3.8732,3.8818,3.902,3.9294,3.932,3.932,3.93,3.9294,3.9307,3.9345,3.9358,3.9158,3.8752,3.869,3.8228,3.7331,3.682,3.5485,3.3471,3.3454,3.3672,3.4005,3.4148,3.4321,3.4577,3.4682,3.468,3.4581,3.4461,3.4127,3.3534,3.3128,3.2356,3.1182,3.0366,2.9143,2.7423,2.6002,2.4637,0.0,0.0,0.0,0.0,0.0,0.0,0.0,0.0,0.0,0.0,0.0,3.2198,3.3356,3.5707,3.7638,3.8825,3.9238,4.0311,4.2447,4.2632,4.3621,4.6121,4.6805,4.732,4.7871,4.8802,4.9359,4.9225,4.9591,4.9705,4.925,4.9193,4.9169,4.9159,4.9396,4.9805,5.0225,5.0302,5.0169,4.9929,4.957,4.924,4.8949,4.8965,4.8915,4.8504,4.8375,4.8244,4.7888,4.7023,4.6465,4.6837,4.6499,4.5846,4.514,4.5185,4.4936,4.3788,4.3649,4.386,4.3479,4.3479,4.3479,4.3479,4.3404,4.2011,4.1334,4.1258,4.1397,4.146,4.1482,4.0952,4.0369,3.9739,3.9733,3.9582,3.9386,3.9381,3.9194,3.8881,3.8877,3.8896,3.8862,3.8881,3.8862,3.8896,3.8935,3.895,3.891,3.8877,3.8497,3.7761,3.7559,3.6725,3.5202,3.4596,3.4147,3.382,3.4036,3.4185,3.4221,3.4383,3.4273,3.3875,3.4302,3.3966,3.2782,3.2625,3.1867,3.0471,2.9698,2.8986,2.8222,2.7223,2.6297,0.0,2.4556,0.0,0.0,0.0,0.0,0.0,0.0,0.0,0.0,3.4327,3.5156,3.7418,3.9599,4.1542,4.3092,4.3812,4.4509,4.5304,4.6012,4.6413,4.6388,4.7888,4.88,4.8413,4.923,4.9688,4.9416,4.9348,4.9299,4.9273,4.9288,4.9239,4.922,4.9656,5.0075,5.0188,5.0169,4.9897,4.9394,4.8999,4.8729,4.8439,4.8569,4.8747,4.871,4.8441,4.8288,4.8405,4.7297,4.6386,4.6553,4.625,4.5584,4.4718,4.5305,4.5444,4.4151,4.3735,4.3781,4.3479,4.3479,4.3479,4.3479,4.3461,4.3167,4.2671,4.2029,4.1436,4.1298,4.1475,4.1163,4.1055,4.1095,4.0892,4.044,3.9801,3.9844,3.9448,3.8735,3.8792,3.8795,3.8735,3.8735,3.8765,3.8822,3.8818,3.8848,3.891,3.8851,3.873,3.8552,3.7868,3.7,3.6064,0.0,0.0,0.0,3.3895,3.4043,3.4269,3.4309,3.4405,3.4469,3.3278,0.0,3.2305,3.1636,3.1136,3.0801,3.0643,0.0,0.0,0.0,0.0,0.0,0.0,0.0,0.0,0.0,0.0,0.0,3.4009,3.403,3.5241,3.826,4.0342,4.0812,4.1876,4.2921,4.3809,4.4039,4.4441,4.5223,4.5462,4.6042,4.7285,4.7823,4.8487,4.9751,4.9834,4.9771,4.9641,4.9483,4.9283,4.9252,4.9283,4.9288,4.9242,4.9399,4.9479,4.9483,4.9546,4.9382,4.8967,4.8887,4.875,4.842,4.8344,4.8402,4.8421,4.8565,4.8641,4.87,4.7638,4.6807,4.7036,4.6026,4.4997,4.4764,4.4761,4.4722,4.4518,4.447,4.4575,4.3479,0.0,4.3479,4.3479,0.0,4.3479,4.3276,4.2873,4.2451,4.2147,4.1889,4.1746,4.1542,4.128,4.1158,4.0873,4.0469,4.0113,3.9727,3.9276,3.8918,3.8735,3.8707,3.8707,3.8723,3.8765,3.8777,3.8792,3.8792,3.8788,3.8777,3.8732,3.8315,3.7496,3.6303,3.5055,3.4211,3.3807,3.3868,3.3959,3.4099,3.4136,3.4076,3.3912,3.3446,0.0,0.0,0.0,0.0,0.0,0.0,0.0,0.0,3.0328,0.0,3.1186,3.1142,3.1604,3.282,3.298,3.4139,3.6723,3.8086,3.8546,3.8038,4.1066,4.3015,4.2989,4.3702,4.4346,4.47,4.4727,4.4789,4.5049,4.5438,4.6105,4.7,4.7757,4.8478,4.916,4.9453,4.9435,4.9097,4.8915,4.8815,4.8815,4.8815,4.8777,4.8849,4.9097,4.9283,4.9302,4.9538,4.9598,4.9409,4.9251,4.9122,4.895,4.8581,4.8343,4.8324,4.8421,4.8494,4.8207,4.7348,4.6656,4.6435,4.5466,4.4559,4.4467,4.4607,4.473,4.4721,4.4378,4.4155,4.3479,4.3479,4.3479,4.3479,4.3479,4.3479,4.3479,4.3479,0.0,0.0,0.0,4.2525,4.2158,4.1517,4.1534,4.1425,4.126,4.0634,4.0157,3.9863,3.9221,3.8854,3.8707,3.8707,3.8707,3.8707,3.8765,3.8765,3.8689,3.8765,3.8765,3.8689,3.8707,3.7973,3.6519,3.5,3.4229,3.4229,3.4168,3.4207,3.4318,3.4389,3.4185,3.3687,3.4165,3.3876,3.2758,3.3288,3.2997,3.1715,3.1711,3.2019,3.2553,3.259,3.3425,3.5225,3.5547,3.592,3.6634,3.6833,3.7359,3.837,4.09,4.2066,4.1138,4.3145,4.4441,4.4422,4.4908,4.5227,4.5216,4.5173,4.5023,4.477,4.5382,4.5903,4.6293,4.731,4.8031,4.8267,4.8706,4.8847,4.8495,4.8236,4.8104,4.8049,4.781,4.7785,4.7935,4.8527,4.9046,4.9069,4.9295,4.9583,4.951,4.9285,4.9235,4.8892,4.8495,4.8208,4.8191,4.8248,4.8089,4.764,4.6857,4.6208,4.5683,4.4932,4.4317,4.4091,4.4556,4.4909,4.4589,4.4027,4.3625,4.3479,4.3479,4.3479,4.3479,4.3479,4.3479,4.3479,4.3479,4.3479,4.3441,4.3314,4.3349,4.3276,4.3149,4.3184,4.2782,4.2139,4.2029,4.1222,3.99,3.979,3.935,3.8707,3.8707,3.8707,3.8707,3.8704,3.8723,3.8707,3.8723,3.8689,3.8707,3.8707,3.823,3.7327,3.6409,3.5936,3.5936,3.5326,3.5354,3.6049,3.6049,3.6021,3.592,3.5257,3.483,3.4613,3.4705,3.4668,3.4452,3.5128,3.5257,3.4654,3.5248,3.5496,3.5184,3.6383,3.7246,3.7357,3.8059,3.8964,4.0061,4.1186,4.2253,4.3361,4.4357,4.4936,4.4825,4.4719,4.4599,4.4552,4.4565,4.4552,4.4465,4.4565,4.4956,4.569,4.6012,4.6669,4.7878,4.7937,4.8101,4.8378,4.7813,4.7259,4.713,4.6591,4.5908,4.6413,4.7423,4.8328,4.8439,4.8475,4.8376,4.8247,4.7938,4.7895,4.7339,4.7608,4.7715,4.7775,4.7942,4.7901,4.7298,4.647,4.5801,4.5303,4.4622,4.4199,4.4177,4.4258,4.4183,4.4105,4.3795,4.3772,4.3304,4.3479,4.3479,4.3479,4.3479,4.3479,4.3479,4.3479,4.3479,4.3479,4.3479,4.3479,4.3479,4.3479,4.3479,4.3314,4.2928,4.2488,4.1901,4.1185,4.0744,4.012,3.9405,3.9331,3.9129,3.8726,3.8707,3.8707,3.8707,3.8707,3.8707,3.867,3.8267,3.7878,3.7474,3.6703,3.6505,3.6923,3.627,3.6058,3.6398,3.6491,3.6523,3.6417,3.6012,3.5809,3.5828,3.5744,3.5725,3.5828,3.6125,3.6303,3.6376,3.674,3.6978,3.7022,3.7716,3.8157,3.8157,3.8533,3.9356,4.0745,4.1361,4.2314,4.3898,4.4481,4.4732,4.4688,4.4533,4.4425,4.4416,4.4416,4.4346,4.421,4.4196,4.4456,4.5058,4.5333,4.5814,4.6715,4.694,4.7019,4.7202,4.6783,4.6471,4.6379,4.5729,4.5384,4.5622,4.6331,4.7078,4.7473,4.7889,4.8078,4.7881,4.7877,4.7765,4.7579,4.7357,4.7367,4.7491,4.7543,4.7083,4.6543,4.5828,4.5037,4.4471,4.4009,4.3832,4.3841,4.3825,4.3749,4.3718,4.3913,4.4286,4.3069,4.3357,4.3462,4.3479,4.3479,4.3479,4.3479,4.3479,4.3479,4.3444,4.3375,4.3444,4.3479,4.3479,4.3479,4.3479,4.3406,4.2855,4.247,4.2249,4.1645,4.0946,4.0194,4.0026,3.9551,3.9001,3.8799,3.8707,3.8707,3.8707,3.8707,3.8634,3.8065,3.7768,3.7768,3.7147,3.7147,3.7694,3.7278,3.6993,3.6922,3.7073,3.7087,3.6936,3.6979,3.7007,3.6975,3.6893,3.6893,3.6979,3.6912,3.7125,3.7713,3.7768,3.8046,3.8634,3.8707,3.8707,3.8707,3.8707,3.9344,4.0767,4.1176,4.1949,4.3339,4.3908,4.4223,4.4341,4.4275,4.4188,4.4173,4.4188,4.4099,4.3926,4.3894,4.402,4.4392,4.4672,4.5035,4.5532,4.5854,4.5962,4.59,4.5736,4.5444,4.502,4.4917,4.4967,4.5094,4.526,4.5716,4.6471,4.7287,4.7676,4.7707,4.763,4.7524,4.7524,4.7068,4.6985,4.718,4.6961,4.663,4.6341,4.5792,4.5057,4.4103,4.3808,4.3752,4.3675,4.3548,4.3587,4.3862,4.4469,4.4819,4.2901,4.3013,4.3339,4.3479,4.3479,4.3479,4.3479,4.3479,4.3479,4.3286,4.3013,4.3339,4.3462,4.3479,4.3479,4.3479,4.3479,4.3423,4.2983,4.2378,4.2231,4.1772,4.0967,4.0249,3.9863,3.9662,3.9056,3.8707,3.8707,3.8707,3.8707,3.8707,3.8615,3.856,3.856,3.8487,3.8505,3.8579,3.8596,3.8574,3.8502,3.8517,3.8499,3.8484,3.8484,3.8502,3.8407,3.8487,3.8469,3.8502,3.8432,3.8487,3.856,3.8579,3.8615,3.8692,3.8692,3.8707,3.8707,3.8707,3.9059,3.9921,4.037,4.0924,4.1833,4.2614,4.3337,4.3793,4.3728,4.3614,4.3563,4.358,4.3546,4.3495,4.3478,4.3569,4.3626,4.3642,4.3954,4.4709,4.4854,4.5111,4.5534,4.5168,4.4236,4.3079,4.3289,4.3588,4.3738,4.4136,4.4788,4.5542,4.6372,4.6749,4.6564,4.6389,4.633,4.5934,4.605,4.6411,4.6791,4.7151,4.7334,4.6683,4.6727,4.6012,4.5112,4.458,4.4287,4.3809,4.3681,4.3735,4.4433,4.5223,4.5498,4.2398,4.2901,4.3069,4.3286,4.3479,4.3479,4.3479,4.3479,4.325,4.305,4.2882,4.277,4.2883,4.316,4.3392,4.3479,4.3479,4.3479,4.3314,4.302,4.3002,4.258,4.1791,4.1001,4.0377,3.9861,3.9093,3.8707,3.8707,3.8707,3.8707,3.8707,3.8707,3.8707,3.8707,3.8707,3.8707,3.8707,3.8719,3.8719,3.8704,3.878,3.878,3.8723,3.8735,3.8765,3.8765,3.8719,3.8738,3.8765,3.8738,3.8707,3.8707,3.8707,3.8596,3.8385,3.8352,3.8467,3.8692,3.8465,3.8698,3.948,3.9896,4.0449,4.1258,4.2029,4.2617,4.2866,4.3069,4.3142,4.3124,4.2902,4.2714,4.2714,4.2733,4.2846,4.3123,4.316,4.3378,4.3904,4.4011,4.4085,4.4342,4.398,4.3245,4.2333,4.2289,4.2464,4.3054,4.3465,4.413,4.5139,4.576,4.5887,4.5778,4.5744,4.5615,4.5528,4.5563,4.5887,4.64,4.6422,4.6488,4.6686,4.6648,4.636,4.5571,4.4984,4.4562,4.4158,4.4195,4.4342,4.4672,4.5718,4.6232,4.1885,4.2498,4.2653,4.2883,4.3142,4.3142,4.3142,4.3105,4.2826,4.2634,4.2498,4.2279,4.23,4.2557,4.294,4.316,4.316,4.316,4.3142,4.316,4.3268,4.3011,4.2407,4.1521,4.0802,4.0157,3.9184,3.8707,3.8707,3.8707,3.8707,3.8707,3.8707,3.8707,3.8707,3.8707,3.8707,3.8707,3.8707,3.8707,3.8704,3.8795,3.881,3.8723,3.8732,3.8762,3.8762,3.8609,3.8562,3.8606,3.8465,3.8368,3.8368,3.8368,3.8236,3.7982,3.793,3.8068,3.8334,3.8101,3.8183,3.876,3.933,3.9953,4.0593,4.1443,4.1976,4.2053,4.232,4.2518,4.2653,4.2398,4.2216,4.2216,4.2216,4.2358,4.2653,4.2806,4.3031,4.3286,4.3483,4.3479,4.3444,4.3196,4.2767,4.2295,4.1835,4.1752,4.2673,4.3086,4.369,4.4889,4.5251,4.5423,4.5414,4.545,4.5414,4.5414,4.545,4.5641,4.6062,4.5959,4.6159,4.6858,4.6493,4.6158,4.5828,4.5314,4.469,4.4562,4.4654,4.4947,4.5131,4.636,4.7204,4.1516,4.1626,4.2032,4.2297,4.2277,4.23,4.2297,4.234,4.2239,4.2008,4.1713,4.199,4.1948,4.1626,4.2074,4.2259,4.2279,4.2338,4.234,4.238,4.2731,4.292,4.2775,4.1678,4.106,4.072,3.9367,3.8682,3.8676,3.8707,3.8707,3.8707,3.8707,3.8707,3.8707,3.8707,3.8707,3.8707,3.8658,3.8676,3.8658,3.8673,3.8658,3.8627,3.8707,3.8704,3.8658,3.8336,3.817,3.8135,3.7826,3.7596,3.7578,3.7578,3.756,3.7542,3.7524,3.7524,3.7596,3.756,3.7595,3.779,3.8689,3.9269,3.9589,4.0766,4.1503,4.1516,4.16,4.1778,4.2115,4.2074,4.2074,4.2113,4.2154,4.2157,4.2236,4.2555,4.2862,4.2975,4.3178,4.3321,4.341,4.316,4.2653,4.2195,4.1778,4.1665,4.212,4.2741,4.3534,4.4268,4.4958,4.5414,4.5414,4.5414,4.5414,4.5414,4.545,4.5554,4.593,4.628,4.671,4.7046,4.6961,4.663,4.6139,4.5516,4.4856,4.4745,4.5186,4.5461,4.5535,4.7113,4.7921,4.126,4.1539,4.2029,4.2216,4.2216,4.2216,4.2216,4.2195,4.1885,4.167,4.1494,4.1418,4.1277,4.1117,4.13,4.1666,4.2175,4.2216,4.2216,4.2236,4.2378,4.2458,4.2332,4.148,4.0744,4.0203,3.9193,3.8521,3.8354,3.8564,3.8707,3.8707,3.8707,3.8707,3.8707,3.8707,3.8707,3.8658,3.8449,3.8302,3.8285,3.8068,3.7948,3.7983,3.8451,3.8707,3.8707,3.832,3.8101,3.8101,3.7721,3.7505,3.7487,3.7265,3.7228,3.745,3.7247,3.7227,3.7432,3.7265,3.7342,3.787,3.8451,3.9068,3.9584,4.0469,4.1094,4.1134,4.1134,4.1232,4.1283,4.1351,4.1391,4.1373,4.1373,4.149,4.1692,4.1906,4.2133,4.2398,4.2578,4.2656,4.2637,4.2279,4.1948,4.1774,4.1378,4.14,4.1944,4.2672,4.3414,4.4173,4.4906,4.5414,4.5414,4.5414,4.5414,4.5414,4.5423,4.545,4.5693,4.5968,4.6312,4.6523,4.6708,4.6621,4.59,4.5352,4.4766,4.4507,4.5002,4.592,4.5883,4.7315,4.8049,4.1065,4.1328,4.1644,4.1778,4.1796,4.1778,4.1774,4.1735,4.1445,4.1305,4.1237,4.1018,4.0894,4.0894,4.0894,4.1186,4.1753,4.1774,4.1774,4.1796,4.1924,4.1969,4.1866,4.1314,4.0733,4.0128,3.911,3.8365,3.7968,3.8168,3.8302,3.8302,3.8302,3.832,3.832,3.8302,3.8302,3.8271,3.8034,3.7913,3.7861,3.7632,3.7505,3.7578,3.8016,3.832,3.8302,3.7913,3.7721,3.765,3.7339,3.7095,3.7075,3.686,3.6838,3.7036,3.686,3.6821,3.7089,3.7106,3.7347,3.7868,3.8586,3.9198,3.9698,4.0446,4.0843,4.0894,4.0894,4.0894,4.0894,4.0894,4.0894,4.0894,4.0894,4.0995,4.126,4.1405,4.1735,4.2115,4.2257,4.2236,4.2154,4.1799,4.1583,4.1512,4.1163,4.1136,4.1619,4.2327,4.2948,4.3534,4.4354,4.4854,4.5061,4.5147,4.5294,4.5345,4.5397,4.5397,4.5338,4.5594,4.5758,4.5947,4.5994,4.5954,4.5683,4.516,4.4748,4.4325,4.5296,4.6471,4.6819,4.7388,4.7994,4.0894,4.0942,4.0894,4.0989,4.1018,4.1018,4.0959,4.0971,4.0901,4.0853,4.0853,4.0847,4.0799,4.0847,4.0847,4.0918,4.1012,4.1018,4.1018,4.1041,4.1351,4.1512,4.1464,4.1155,4.0895,4.0666,3.9302,3.8234,3.7648,3.7613,3.7632,3.756,3.7614,3.765,3.7542,3.7614,3.7578,3.7578,3.7542,3.7487,3.7505,3.7432,3.7377,3.7414,3.7469,3.7487,3.7487,3.717,3.7017,3.6939,3.6597,3.6326,3.6388,3.6346,3.6326,3.6406,3.636,3.6356,3.6481,3.7145,3.7595,3.794,3.891,3.9646,3.9922,4.0498,4.0894,4.0894,4.0894,4.0894,4.0894,4.0894,4.0894,4.0894,4.0894,4.0935,4.0995,4.126,4.1648,4.2008,4.2071,4.2175,4.2074,4.1713,4.1423,4.1351,4.1117,4.0912,4.1119,4.174,4.2009,4.2396,4.3362,4.4216,4.4544,4.4837,4.5079,4.5276,4.5345,4.5363,4.5061,4.5104,4.503,4.5169,4.5098,4.5088,4.5533,4.5093,4.5202,4.515,4.6231,4.6874,4.7186,4.7535,4.8012,4.0894,4.0894,4.0894,4.0894,4.0894,4.0894,4.0894,4.0847,4.0476,4.0269,4.0286,4.0269,4.0269,4.0385,4.0686,4.0912,4.0894,4.0894,4.0894,4.0935,4.1041,4.1111,4.1065,4.0971,4.0637,3.9984,3.8854,3.815,3.7909,3.7625,3.7505,3.7505,3.7487,3.7505,3.7469,3.7505,3.7505,3.7451,3.7209,3.7076,3.7055,3.6801,3.6698,3.6678,3.6678,3.6678,3.6678,3.6821,3.69,3.688,3.6533,3.6284,3.6284,3.6284,3.6284,3.637,3.6835,3.7129,3.7198,3.784,3.8474,3.8922,3.9474,3.9957,4.0463,4.0739,4.0894,4.0894,4.0894,4.0894,4.0894,4.0894,4.0894,4.0894,4.0894,4.0894,4.0894,4.1035,4.1117,4.1255,4.13,4.1318,4.13,4.1117,4.114,4.1117,4.0971,4.0894,4.1015,4.1498,4.1957,4.2112,4.3,4.3517,4.3707,4.3931,4.419,4.4509,4.4768,4.4854,4.4613,4.4294,4.4273,4.4208,4.4139,4.4471,4.4896,4.516,4.5207,4.5789,4.6561,4.6929,4.7149,4.7571,4.8122,4.0573,4.0614,4.0799,4.0894,4.0894,4.0894,4.0776,4.0549,4.0153,3.9902,3.9723,3.9697,3.9825,4.0045,4.041,4.0686,4.0871,4.0894,4.0894,4.0894,4.0894,4.0894,4.0894,4.0894,4.0498,3.9675,3.8743,3.8143,3.785,3.7341,3.7055,3.7055,3.7055,3.7036,3.7038,3.7055,3.7055,3.6999,3.6801,3.6678,3.6638,3.643,3.6284,3.6284,3.6284,3.6284,3.6322,3.6553,3.6678,3.6638,3.643,3.6305,3.6301,3.6559,3.6749,3.6887,3.7404,3.7909,3.7978,3.8599,3.9163,3.9629,3.9974,4.0359,4.0808,4.0894,4.0894,4.0894,4.0894,4.0894,4.0894,4.0894,4.0894,4.0894,4.0894,4.0894,4.0894,4.0894,4.0894,4.0942,4.0942,4.0894,4.0894,4.0894,4.0894,4.0894,4.0894,4.0894,4.0981,4.1274,4.1516,4.175,4.2275,4.2603,4.2758,4.2982,4.3224,4.3603,4.3958,4.4018,4.3914,4.3414,4.3178,4.3064,4.2992,4.3901,4.4408,4.4786,4.5037,4.5903,4.7001,4.7406,4.7791,4.7921,4.8268,3.9935,4.0045,4.0549,4.0776,4.0799,4.0799,4.05,4.0053,3.9927,3.9594,3.9216,3.9135,3.9385,3.98,3.9902,4.0212,4.0728,4.0758,4.0758,4.0799,4.0847,4.0894,4.0894,4.0894,4.0532,3.9859,3.8984,3.8259,3.7716,3.6859,3.6301,3.6409,3.643,3.6326,3.6392,3.6343,3.6388,3.6409,3.6346,3.6326,3.6326,3.6322,3.6284,3.6284,3.6284,3.6284,3.6305,3.6326,3.6326,3.6305,3.6305,3.6284,3.6422,3.7064,3.7409,3.7443,3.818,3.8577,3.8801,3.9353,3.9784,3.9922,4.0446,4.0894,4.0894,4.0894,4.0894,4.0894,4.0894,4.0894,4.0894,4.0894,4.0894,4.0894,4.0894,4.0894,4.0894,4.0894,4.0894,4.0894,4.0894,4.0894,4.0894,4.0894,4.0894,4.0894,4.0894,4.0894,4.0912,4.1015,4.0946,4.124,4.1705,4.1809,4.1999,4.2137,4.2344,4.2447,4.2861,4.3,4.3034,4.2603,4.2378,4.223,4.2365,4.3256,4.4267,4.4911,4.5786,4.6979,4.7747,4.8193,4.8306,4.8306,4.8173,3.9401,3.9428,3.9584,3.9868,4.0195,4.022,4.0103,3.9834,3.9542,3.9065,3.8535,3.8507,3.864,3.8761,3.9226,3.9506,3.9765,4.007,4.022,4.0319,4.0734,4.0871,4.0894,4.0894,4.0791,4.0411,3.9215,3.8513,3.8198,3.6939,3.6301,3.6284,3.6284,3.6284,3.6284,3.6284,3.6284,3.6284,3.6284,3.6284,3.6284,3.6284,3.6284,3.6284,3.6284,3.6284,3.6284,3.6284,3.6284,3.6284,3.6284,3.6284,3.6353,3.7042,3.753,3.7737,3.8686,3.9405,3.9543,4.0118,4.0526,4.0578,4.0739,4.0894,4.0894,4.0894,4.0894,4.0894,4.0894,4.0894,4.0894,4.0894,4.0894,4.0894,4.0894,4.0871,4.0847,4.0894,4.0894,4.0894,4.0871,4.0894,4.0894,4.0894,4.0894,4.0894,4.0894,4.0894,4.0894,4.0894,4.0894,4.0894,4.1153,4.117,4.124,4.1343,4.1412,4.1343,4.1602,4.1895,4.1912,4.1792,4.1809,4.1861,4.2171,4.2926,4.4601,4.5838,4.6967,4.7448,4.8058,4.8268,4.8287,4.8287,4.8113,3.8783,3.8783,3.9242,3.961,3.9851,4.0112,4.002,3.9723,3.9532,3.892,3.8282,3.8254,3.8306,3.8334,3.8657,3.8957,3.9232,3.9532,3.9662,3.9765,4.0237,4.0638,4.0823,4.0894,4.0894,4.0722,3.9319,3.8681,3.8341,3.7042,3.637,3.6284,3.6284,3.6284,3.6284,3.6284,3.6284,3.6284,3.6284,3.6284,3.6284,3.6284,3.6284,3.6284,3.6284,3.6284,3.6284,3.6284,3.6284,3.6284,3.6284,3.6284,3.6353,3.7081,3.7633,3.7961,3.9077,3.9802,4.0221,4.067,4.0877,4.0894,4.0894,4.0894,4.0894,4.0894,4.0894,4.0894,4.0894,4.0894,4.0894,4.0894,4.0894,4.0894,4.0894,4.0799,4.0549,4.05,4.0524,4.059,4.0752,4.0894,4.0894,4.0894,4.0894,4.0894,4.0894,4.0894,4.0894,4.0894,4.0894,4.0894,4.0894,4.0981,4.1015,4.1101,4.1464,4.1343,4.155,4.1619,4.1326,4.1309,4.1332,4.1574,4.1981,4.2718,4.4202,4.5446,4.6,4.6581,4.7536,4.8231,4.8268,4.8305,4.8113,3.8112,3.8071,3.9082,3.9489,3.9568,4.0062,3.9961,3.9688,3.9714,3.9172,3.8423,3.8266,3.8306,3.8294,3.8282,3.8507,3.8963,3.9028,3.9162,3.9401,3.9842,4.0294,4.0686,4.0847,4.0871,4.067,3.9319,3.8715,3.8215,3.7042,3.6353,3.6284,3.6284,3.6284,3.6284,3.6284,3.6284,3.6284,3.6284,3.6284,3.6262,3.6216,3.6135,3.6114,3.5968,3.6054,3.6135,3.6178,3.6199,3.6284,3.6284,3.6284,3.6387,3.706,3.7719,3.837,3.9129,3.9951,4.053,4.0627,4.0823,4.0758,4.0823,4.0894,4.0894,4.0894,4.0894,4.0894,4.0894,4.0894,4.0894,4.0894,4.0894,4.0847,4.0806,4.0385,4.0095,3.9978,4.007,4.0078,4.0573,4.0799,4.0847,4.0847,4.0847,4.084,4.0864,4.0894,4.0894,4.0894,4.0894,4.0894,4.0894,4.0894,4.0912,4.0929,4.1378,4.1671,4.2068,4.2102,4.1429,4.124,4.1063,4.1248,4.1944,4.2451,4.3077,4.4041,4.4997,4.6104,4.7323,4.7899,4.8269,4.8306,4.819,3.7401,3.7417,3.7551,3.8128,3.8849,3.9038,3.9305,3.961,3.974,3.9411,3.8789,3.8446,3.8306,3.8266,3.7915,3.7772,3.8017,3.8339,3.8712,3.9259,3.9749,4.0028,4.0294,4.0597,4.0871,4.0526,3.9341,3.8669,3.8215,3.7163,3.6284,3.6284,3.6284,3.6284,3.6284,3.6284,3.6284,3.6284,3.6284,3.6284,3.6199,3.5941,3.5771,3.5722,3.5391,3.5397,3.5661,3.5749,3.5941,3.6195,3.6241,3.6178,3.64,3.7008,3.753,3.8013,3.8957,3.9587,3.9583,4.0247,4.0686,4.0336,4.0597,4.0894,4.0894,4.0894,4.0894,4.0894,4.0894,4.0894,4.0894,4.0894,4.0894,4.0758,4.0103,3.9482,3.9351,3.9927,4.0303,4.0444,4.0493,4.0583,4.059,4.0704,4.0745,4.0745,4.0817,4.0871,4.0894,4.0894,4.0894,4.0894,4.0894,4.0912,4.1015,4.1188,4.1792,4.224,4.2637,4.2968,4.2275,4.159,4.1562,4.1719,4.206,4.2479,4.2714,4.3939,4.5163,4.6157,4.694,4.7348,4.77,4.7938,4.8064,3.7059,3.6983,3.7194,3.7608,3.8124,3.8684,3.9109,3.9454,3.9876,3.974,3.9236,3.8805,3.8518,3.825,3.7756,3.751,3.7553,3.7786,3.8226,3.8712,3.9086,3.9342,3.9723,4.0195,4.0538,4.0582,3.9341,3.8686,3.8198,3.7163,3.6284,3.6284,3.6284,3.6284,3.6284,3.6284,3.6284,3.6284,3.6284,3.6284,3.622,3.5837,3.5436,3.5253,3.4951,3.4958,3.5207,3.523,3.5351,3.5549,3.5616,3.5859,3.6255,3.6715,3.706,3.765,3.8474,3.9082,3.9197,3.9802,4.0319,4.007,4.0336,4.0597,4.0799,4.0894,4.0894,4.0894,4.0894,4.0894,4.0894,4.0894,4.0894,4.0799,4.0212,3.9629,3.9456,3.9603,3.9765,3.9885,4.0154,4.0395,4.0534,4.0583,4.0673,4.0721,4.084,4.0894,4.0894,4.0894,4.0894,4.0894,4.0894,4.0963,4.1101,4.1533,4.2309,4.2827,4.331,4.3732,4.3718,4.2933,4.2248,4.2314,4.2304,4.2241,4.264,4.396,4.4823,4.5212,4.5767,4.6487,4.7039,4.7332,4.7402,3.6862,3.6739,3.7237,3.7415,3.7594,3.8435,3.9028,3.9365,3.9901,4.0003,3.9765,3.9348,3.8957,3.8407,3.7915,3.7626,3.751,3.7539,3.7873,3.8169,3.839,3.8712,3.9119,3.962,4.0053,4.0443,3.9273,3.8663,3.8198,3.7146,3.6318,3.6284,3.6284,3.6284,3.6284,3.6284,3.6284,3.6284,3.6284,3.6199,3.6054,3.5661,3.5161,3.4593,3.4472,3.4521,3.4666,3.4714,3.4761,3.4793,3.4793,3.526,3.5815,3.6229,3.644,3.7197,3.8045,3.8516,3.8642,3.9378,4.0045,4.002,4.0028,4.0336,4.0752,4.0894,4.0894,4.0894,4.0894,4.0894,4.0894,4.0894,4.0894,4.0823,4.0704,4.0303,3.98,3.9129,3.8859,3.9119,3.9833,4.0296,4.0419,4.051,4.0583,4.0697,4.0817,4.0894,4.0894,4.0894,4.0894,4.0894,4.0894,4.0894,4.1032,4.1764,4.2573,4.3103,4.369,4.4225,4.4582,4.3938,4.3097,4.2533,4.2417,4.251,4.2705,4.3516,4.4105,4.4213,4.4964,4.6066,4.6507,4.6708,4.6831,3.6723,3.6693,3.6677,3.6952,3.7371,3.7637,3.8407,3.9411,3.9584,4.0087,4.05,4.0028,3.9385,3.8957,3.8407,3.7927,3.7553,3.751,3.7553,3.7786,3.8042,3.8395,3.8518,3.9038,3.9401,3.9302,3.8775,3.8476,3.8143,3.7129,3.6182,3.622,3.6241,3.6241,3.6241,3.6284,3.6284,3.6284,3.6284,3.6135,3.5749,3.5191,3.4545,3.3832,3.3729,3.3882,3.4134,3.4234,3.4407,3.4721,3.4793,3.4887,3.5121,3.5481,3.5757,3.6304,3.7631,3.8252,3.7852,3.9076,3.9817,4.002,4.002,4.0311,4.071,4.0894,4.0894,4.0894,4.0894,4.0894,4.0894,4.0894,4.0894,4.0752,4.0353,3.9859,3.9558,3.9065,3.8668,3.8995,3.9662,4.0196,4.0296,4.0412,4.0534,4.0655,4.0793,4.0871,4.0894,4.0894,4.0894,4.0894,4.0894,4.0894,4.0929,4.1876,4.2724,4.316,4.3757,4.4451,4.4662,4.4453,4.3955,4.3594,4.3378,4.348,4.3627,4.3707,4.3926,4.4419,4.5132,4.5792,4.5993,4.6211,4.6809,3.66,3.66,3.6523,3.6662,3.6952,3.7268,3.7767,3.8446,3.8805,3.9437,3.9765,3.9358,3.9065,3.892,3.8242,3.7727,3.7553,3.751,3.751,3.7583,3.7772,3.7886,3.7956,3.8479,3.8684,3.8562,3.8146,3.7787,3.7611,3.6236,3.5656,3.5577,3.5771,3.5941,3.6006,3.6178,3.6241,3.6262,3.6241,3.6049,3.5549,3.4857,3.4034,3.3529,3.3309,3.345,3.3607,3.3684,3.3771,3.3942,3.4018,3.4168,3.444,3.4658,3.4944,3.5442,3.704,3.7865,3.7478,3.8807,3.9944,4.002,4.0003,4.0311,4.071,4.0894,4.0894,4.0894,4.0894,4.0894,4.0894,4.0894,4.0864,4.0745,4.0345,3.9935,3.9516,3.9038,3.893,3.8968,3.9279,3.9705,4.0188,4.0313,4.0461,4.0607,4.0752,4.0823,4.0894,4.0894,4.0894,4.0918,4.0918,4.0942,4.0993,4.1696,4.2678,4.3224,4.3748,4.4441,4.5095,4.5047,4.5045,4.4911,4.4767,4.4423,4.4412,4.4453,4.4547,4.4526,4.4727,4.4985,4.5352,4.577,4.6438,3.6492,3.6492,3.6492,3.6492,3.6585,3.6983,3.7328,3.7504,3.7982,3.8652,3.9209,3.8601,3.8463,3.8535,3.7972,3.7375,3.7375,3.7421,3.7435,3.7435,3.7539,3.7539,3.7626,3.7841,3.7971,3.7464,3.6875,3.6732,3.6846,3.5649,3.4939,3.4981,3.5299,3.5436,3.5504,3.5705,3.5985,3.6006,3.5985,3.5766,3.5207,3.444,3.3761,3.3346,3.3293,3.3309,3.3372,3.3372,3.3361,3.3398,3.3424,3.3529,3.3848,3.3924,3.4109,3.4742,3.6446,3.7097,3.7611,3.8589,3.9816,4.0211,4.0061,4.036,4.071,4.0894,4.0894,4.0894,4.0894,4.0894,4.0894,4.0894,4.084,4.0721,4.0558,4.0254,3.9714,3.9242,3.8849,3.8876,3.893,3.9216,3.9696,4.0313,4.0485,4.0583,4.0728,4.0847,4.0894,4.0894,4.0894,4.0942,4.0965,4.0989,4.1122,4.14,4.2332,4.315,4.3644,4.4245,4.514,4.5865,4.5776,4.5513,4.5427,4.5142,4.5158,4.5015,4.4856,4.462,4.4233,4.4325,4.4894,4.5603,4.6323,3.6492,3.6492,3.6492,3.6492,3.646,3.6538,3.6967,3.7488,3.7589,3.8121,3.8772,3.8624,3.8234,3.7924,3.7419,3.709,3.709,3.7195,3.727,3.73,3.7405,3.748,3.751,3.7539,3.7128,3.6537,3.56,3.5856,3.6065,3.5202,3.469,3.4673,3.4721,3.4904,3.4927,3.5138,3.4998,3.5021,3.5005,3.4769,3.4341,3.3771,3.3424,3.3335,3.3293,3.3293,3.3293,3.3293,3.3293,3.3293,3.3293,3.3319,3.3372,3.3398,3.3414,3.4076,3.5366,3.6905,3.7178,3.8397,3.9579,4.016,4.022,4.0385,4.071,4.0894,4.0894,4.0894,4.0894,4.0894,4.0894,4.0894,4.084,4.0721,4.0583,4.0436,4.007,3.9146,3.8794,3.8657,3.8684,3.8849,3.9189,3.991,4.051,4.0607,4.0704,4.0823,4.0894,4.0894,4.0894,4.0918,4.0989,4.1012,4.1006,4.1325,4.1919,4.2886,4.3489,4.4031,4.491,4.567,4.5862,4.5702,4.5642,4.5587,4.5473,4.5278,4.5032,4.4857,4.471,4.4619,4.4675,4.5421,4.6212,3.6242,3.5879,3.5864,3.564,3.5335,3.5672,3.6039,3.6399,3.6814,3.7399,3.7892,3.7706,3.7474,3.7268,3.706,3.6999,3.6999,3.7044,3.7119,3.7194,3.73,3.7405,3.748,3.7478,3.6938,3.6082,3.5425,3.4923,3.4974,3.4238,3.3547,3.3691,3.4127,3.4407,3.444,3.4666,3.4769,3.4745,3.4569,3.4308,3.4025,3.3591,3.3293,3.3293,3.3293,3.3293,3.3293,3.3293,3.3293,3.3293,3.3293,3.3293,3.3293,3.3293,3.3309,3.343,3.4428,3.5597,3.6589,3.8116,3.9185,3.9784,3.9995,4.0269,4.0734,4.0894,4.0894,4.0894,4.0894,4.0894,4.0894,4.0894,4.0799,4.0721,4.0631,4.0534,4.0179,3.9226,3.8613,3.853,3.8474,3.8657,3.8984,3.9817,4.0419,4.0558,4.068,4.0823,4.0871,4.0894,4.0894,4.0894,4.0965,4.1012,4.0965,4.1092,4.1484,4.2327,4.3086,4.3713,4.4542,4.5138,4.5493,4.5641,4.5527,4.5523,4.5645,4.5713,4.5653,4.5475,4.5278,4.5132,4.5022,4.5332,4.6009,3.6085,3.54,3.54,3.5059,3.4614,3.4993,3.527,3.5497,3.599,3.6662,3.7072,3.6892,3.677,3.6847,3.6877,3.6847,3.6893,3.6908,3.6968,3.7074,3.7178,3.73,3.731,3.7277,3.6742,3.5993,3.5065,3.4295,3.342,3.2908,3.2734,3.2641,3.3533,3.3822,3.3933,3.4118,3.4301,3.4251,3.4034,3.3899,3.3771,3.3487,3.3319,3.3293,3.3293,3.3293,3.3293,3.3293,3.3293,3.3293,3.3293,3.3293,3.3293,3.3293,3.3293,3.3488,3.4256,3.5094,3.6194,3.7412,3.8629,3.9258,3.9688,4.017,4.0524,4.0734,4.0894,4.0894,4.0894,4.0894,4.0894,4.0894,4.084,4.0769,4.0697,4.0607,4.0377,3.9516,3.8832,3.864,3.8585,3.8474,3.8968,3.9842,4.0328,4.0493,4.0655,4.0823,4.0871,4.0894,4.0894,4.0894,4.0918,4.0965,4.0942,4.1039,4.1395,4.1826,4.2603,4.3404,4.4232,4.4915,4.5416,4.545,4.5311,4.5647,4.5847,4.6092,4.6281,4.5952,4.564,4.5479,4.5461,4.5659,4.5852,3.6085,3.54,3.54,3.5287,3.5172,3.4614,3.478,3.5302,3.5464,3.6006,3.6616,3.6554,3.6554,3.6554,3.6585,3.6585,3.6554,3.6662,3.6754,3.6892,3.7028,3.7194,3.7126,3.6776,3.6043,3.5063,3.4482,3.3457,3.2504,3.2757,3.2629,3.2695,3.3208,3.3266,3.3319,3.3513,3.3565,3.3565,3.345,3.3424,3.3398,3.3309,3.3282,3.3266,3.3266,3.3293,3.3309,3.3293,3.3293,3.3293,3.3293,3.3293,3.3293,3.3293,3.3293,3.352,3.4306,3.5045,3.5826,3.6788,3.784,3.889,3.9636,3.9969,4.022,4.0645,4.0847,4.0894,4.0894,4.0894,4.0894,4.0871,4.0823,4.0793,4.0745,4.0697,4.0468,3.9969,3.9315,3.8941,3.8668,3.8502,3.8695,3.9516,4.0187,4.0395,4.0655,4.084,4.0871,4.0894,4.0894,4.0894,4.0894,4.0894,4.0894,4.1067,4.1222,4.1654,4.2327,4.3103,4.3897,4.4527,4.4906,4.5035,4.4949,4.5509,4.5953,4.5927,4.5965,4.6071,4.5931,4.5562,4.5409,4.5518,4.5785,3.5672,3.5367,3.4912,3.4447,3.4075,3.4245,3.4447,3.4861,3.5672,3.6211,3.6492,3.6492,3.6492,3.6492,3.6492,3.6492,3.6492,3.6569,3.6708,3.6862,3.7014,3.7195,3.7079,3.6618,3.5959,3.5118,3.4372,3.3478,3.2542,3.2834,3.2753,3.2861,3.3091,3.316,3.3176,3.3069,3.3058,3.3058,3.3058,3.3058,3.3085,3.3139,3.3139,3.3043,3.3256,3.3229,3.3203,3.3266,3.3266,3.3309,3.3282,3.3282,3.3282,3.3282,3.3293,3.3372,3.4304,3.4889,3.5568,3.6549,3.7725,3.8444,3.9172,3.9636,3.991,4.0549,4.0823,4.0894,4.0894,4.0894,4.0894,4.0894,4.0871,4.0823,4.0799,4.0769,4.0541,4.0112,3.962,3.9129,3.8707,3.8402,3.8707,3.9129,3.9765,4.032,4.0607,4.084,4.0888,4.0894,4.0894,4.0894,4.0894,4.0894,4.0894,4.0946,4.1015,4.1498,4.205,4.2654,4.3293,4.3534,4.388,4.4147,4.4458,4.4741,4.5093,4.5458,4.5558,4.5494,4.5462,4.5347,4.5307,4.5319,4.5612,3.5059,3.4993,3.4279,3.3837,3.3575,3.363,3.3802,3.4177,3.5222,3.6148,3.646,3.632,3.6179,3.6179,3.6148,3.6148,3.6179,3.6383,3.6616,3.68,3.6969,3.7011,3.6814,3.6393,3.5732,3.5224,3.4595,3.3689,3.3156,3.3408,3.3251,3.3076,3.3091,3.3176,3.3096,3.2978,3.2912,3.2912,3.2912,3.2912,3.2924,3.2978,3.3047,3.2924,3.3069,3.3096,3.3069,3.3096,3.3165,3.3165,3.3203,3.3229,3.3256,3.3282,3.3309,3.3514,3.3941,3.462,3.5521,3.6637,3.7621,3.8071,3.8865,3.9348,3.98,4.0427,4.0871,4.0894,4.0894,4.0894,4.0894,4.0894,4.0894,4.0847,4.0847,4.0823,4.0638,4.0311,3.9783,3.9272,3.8897,3.8502,3.8541,3.8924,3.9817,4.037,4.068,4.0864,4.0888,4.0894,4.0894,4.0894,4.0894,4.0894,4.0894,4.0922,4.0974,4.117,4.1671,4.1981,4.2465,4.2741,4.312,4.3569,4.3802,4.3906,4.4087,4.4285,4.4551,4.4779,4.4646,4.4448,4.4803,4.484,4.5258,3.4298,3.4245,3.3561,3.363,3.3973,3.281,3.2704,3.3388,3.4197,3.5175,3.6116,3.5705,3.5432,3.5432,3.54,3.5432,3.5608,3.607,3.6414,3.6476,3.663,3.6517,3.6103,3.5663,3.5221,3.4987,3.4372,3.389,3.3857,3.3745,3.3539,3.3303,3.3187,3.3203,3.3085,3.2951,3.2897,3.2885,3.2885,3.287,3.2843,3.287,3.287,3.2843,3.2924,3.2951,3.2908,3.2989,3.3032,3.3005,3.3085,3.3123,3.3096,3.3203,3.3214,3.3303,3.3914,3.4636,3.5442,3.6767,3.7377,3.7828,3.8717,3.9269,3.9506,4.0162,4.0894,4.0894,4.0894,4.0894,4.0894,4.0894,4.0894,4.0894,4.0894,4.0871,4.0686,4.0385,3.9834,3.9404,3.9049,3.8739,3.8569,3.8789,3.9791,4.0419,4.0752,4.0871,4.0894,4.0894,4.0894,4.0888,4.0888,4.0823,4.084,4.0864,4.0916,4.1078,4.125,4.1519,4.1847,4.2233,4.2612,4.3,4.307,4.3089,4.3056,4.3057,4.3367,4.3594,4.3479,4.344,4.3898,4.4306,4.4577,3.324,3.3547,3.3283,3.3318,3.3492,3.3087,3.2981,3.3318,3.3959,3.4581,3.4912,3.4714,3.4647,3.4681,3.4681,3.4681,3.4828,3.5432,3.58,3.5946,3.6091,3.6131,3.5718,3.509,3.4573,3.4313,3.3868,3.3617,3.3487,3.3591,3.3424,3.3192,3.315,3.315,3.3085,3.2978,3.2843,3.2718,3.2676,3.2676,3.2594,3.2648,3.2691,3.2621,3.2773,3.2816,3.2746,3.2854,3.2908,3.2897,3.2978,3.3032,3.2978,3.3043,3.3058,3.3211,3.3724,3.4774,3.5654,3.6688,3.7192,3.7935,3.8689,3.9322,3.9765,4.0427,4.0799,4.0894,4.0894,4.0894,4.0894,4.0894,4.0894,4.0894,4.0894,4.0894,4.0734,4.0311,3.9851,3.9499,3.9172,3.8574,3.8266,3.8613,3.9532,4.0179,4.0476,4.0799,4.0871,4.0894,4.0894,4.0864,4.084,4.0793,4.0769,4.0769,4.0704,4.0789,4.0848,4.0934,4.1309,4.1677,4.166,4.1791,4.2024,4.2215,4.2157,4.2124,4.2234,4.2338,4.227,4.2511,4.3024,4.3377,4.3646,3.2201,3.2534,3.2548,3.2548,3.2576,3.277,3.2946,3.3262,3.3719,3.4041,3.4245,3.4075,3.3939,3.3939,3.3925,3.3925,3.4007,3.4681,3.5335,3.5441,3.5354,3.5398,3.5136,3.4585,3.4241,3.3893,3.371,3.3497,3.3549,3.3366,3.3198,3.3112,3.3032,3.3032,3.3005,3.2951,3.2897,3.2773,3.2676,3.2578,3.2523,3.2523,3.2496,3.248,3.2578,3.2648,3.2648,3.273,3.2839,3.28,3.2827,3.2881,3.2827,3.2843,3.287,3.3111,3.365,3.4623,3.548,3.6156,3.6927,3.8314,3.8903,3.9428,3.9969,4.0549,4.0799,4.0894,4.0894,4.0894,4.0894,4.0894,4.0894,4.0894,4.0894,4.0894,4.0758,4.036,3.9808,3.9473,3.9049,3.8463,3.81,3.8618,3.9226,3.974,4.0187,4.0524,4.0871,4.0871,4.0894,4.0864,4.0793,4.0745,4.0673,4.0607,4.0583,4.051,4.0558,4.0624,4.07,4.105,4.081,4.0673,4.1094,4.1353,4.1195,4.1187,4.1297,4.127,4.113,4.1531,4.2118,4.2599,4.2999,3.1273,3.1273,3.1273,3.1336,3.1355,3.1739,3.2352,3.3066,3.3101,3.3484,3.4143,3.3388,3.3136,3.3087,3.3122,3.3094,3.3191,3.3824,3.447,3.4824,3.4515,3.4562,3.431,3.3888,3.3317,3.3472,3.3475,3.3214,3.3604,3.3387,3.3129,3.2989,3.2881,3.2881,3.2924,3.2978,3.2908,3.2773,3.2648,3.2578,3.2523,3.2453,3.2425,3.2425,3.2453,3.2496,3.248,3.2523,3.2523,3.2523,3.2551,3.2605,3.266,3.2773,3.2843,3.3041,3.3521,3.4129,3.4998,3.5652,3.6774,3.8144,3.8876,3.9411,4.002,4.059,4.0776,4.0871,4.0894,4.0894,4.0894,4.0894,4.0894,4.0894,4.0894,4.0847,4.0782,4.0368,3.9783,3.9299,3.8843,3.8407,3.8214,3.8562,3.9279,3.9671,4.0162,4.05,4.0776,4.0888,4.0888,4.0871,4.0793,4.0714,4.0624,4.0461,4.0412,4.0345,4.0419,4.0485,4.051,4.0527,4.0551,4.0551,4.051,4.0556,4.0627,4.0493,4.0341,4.0305,4.0487,4.0756,4.1429,4.2211,4.2804,3.1042,3.073,3.1124,3.0845,3.0108,2.9859,3.0543,3.1738,3.185,3.2205,3.2775,3.2574,3.2258,3.185,3.1823,3.1871,3.2124,3.2548,3.3214,3.3432,3.3331,3.3132,3.2792,3.2347,3.1834,3.1892,3.2152,3.254,3.2513,3.2664,3.2873,3.2703,3.2703,3.2773,3.2827,3.2924,3.28,3.273,3.2605,3.2578,3.2496,3.2425,3.2398,3.2398,3.2398,3.2398,3.2425,3.2496,3.2523,3.2551,3.2566,3.2578,3.2605,3.2578,3.2566,3.2691,3.3013,3.3476,3.4631,3.5112,3.6127,3.7794,3.8557,3.9506,4.0137,4.0631,4.0817,4.0864,4.0894,4.0894,4.0894,4.0894,4.0894,4.0894,4.0894,4.0871,4.0782,4.0483,3.991,3.9577,3.9086,3.8767,3.8551,3.8903,3.9568,3.9868,4.0162,4.0451,4.0704,4.0817,4.0704,4.0662,4.0517,4.0345,4.032,4.0204,4.0196,4.0196,4.0129,4.0154,4.0246,4.0288,4.0387,4.0387,4.0337,4.0263,4.0222,4.0113,4.0113,4.0113,4.0255,4.0424,4.0754,4.1605,4.2346,3.0513,3.0398,3.0292,2.9616,2.8621,2.8256,2.886,2.99,3.044,3.0868,3.1164,3.1365,3.1273,3.1023,3.0969,3.0969,3.1039,3.1371,3.1907,3.2302,3.1923,3.1974,3.1582,3.1167,3.094,3.0911,3.1057,3.1506,3.1578,3.1921,3.2203,3.2523,3.2523,3.2578,3.2648,3.2676,3.2605,3.2578,3.2551,3.2523,3.2496,3.2425,3.2398,3.2398,3.2398,3.2398,3.2425,3.2523,3.2523,3.2523,3.2523,3.2523,3.26,3.2669,3.2826,3.3017,3.3432,3.4079,3.4973,3.5157,3.6277,3.7454,3.8362,3.9252,4.0079,4.0673,4.0793,4.0864,4.0888,4.0894,4.0894,4.0894,4.0894,4.0894,4.0894,4.0894,4.0734,4.0573,4.0269,3.9952,3.962,3.9269,3.9269,3.9594,3.9774,3.9927,4.007,4.0303,4.0566,4.0745,4.0468,4.0204,4.0062,3.9885,3.9885,3.9765,3.9516,3.9375,3.9252,3.9348,3.9722,3.9944,3.9927,4.0045,4.0171,4.0138,4.0113,4.0113,4.0113,4.0113,4.0113,4.0214,4.0552,4.1137,4.1809,2.9842,3.0119,2.9037,2.8106,2.7159,2.705,2.7331,2.7837,2.8821,2.9421,2.9667,3.0135,3.0335,3.0179,3.0255,3.0337,3.0323,3.0494,3.0876,3.1349,3.082,3.0743,3.0942,3.0783,3.0176,3.036,3.0615,3.0719,3.0881,3.1218,3.168,3.2259,3.2287,3.2259,3.2259,3.2441,3.2453,3.2453,3.2496,3.2523,3.2508,3.2453,3.2398,3.2398,3.2398,3.2398,3.2398,3.2425,3.2398,3.2425,3.2425,3.241,3.2595,3.2967,3.3229,3.355,3.3887,3.458,3.5194,3.5515,3.6481,3.7521,3.8334,3.9129,3.9935,4.0534,4.0697,4.0864,4.0894,4.0894,4.0894,4.0894,4.0894,4.0894,4.0894,4.0894,4.0823,4.071,4.0573,4.0311,4.0095,3.9791,3.9782,4.0087,4.0187,4.0145,4.0195,4.0402,4.0444,4.0648,4.0419,3.9961,3.974,3.9568,3.9279,3.9076,3.8668,3.8474,3.8463,3.8657,3.9109,3.9312,3.9444,3.9773,4.0121,4.0096,4.0113,4.0113,4.0113,4.0113,4.0113,4.0113,4.04,4.0832,4.1282,2.9733,2.9023,2.7887,2.746,2.749,2.6735,2.6502,2.6628,2.6858,2.7777,2.8918,2.9443,2.9531,2.924,2.9531,2.9666,2.9699,2.976,3.0099,3.0288,2.9931,2.978,2.9896,2.9606,2.9275,2.9265,2.9532,3.0058,3.0435,3.0689,3.0822,3.1043,3.1378,3.1709,3.1851,3.2076,3.2315,3.2398,3.2425,3.2468,3.2453,3.2453,3.2398,3.2398,3.2398,3.2398,3.2398,3.2398,3.2468,3.2523,3.2453,3.2425,3.2428,3.3059,3.3367,3.3537,3.4258,3.4967,3.5473,3.5946,3.6715,3.7585,3.8379,3.9119,3.974,4.0271,4.0607,4.0799,4.0894,4.0894,4.0894,4.0894,4.0894,4.0894,4.0894,4.0894,4.0894,4.0847,4.0823,4.0662,4.05,4.0427,4.0395,4.0444,4.0566,4.0638,4.0686,4.0704,4.051,4.0558,4.051,4.0129,3.962,3.9315,3.8887,3.8418,3.801,3.801,3.8067,3.8266,3.8518,3.8974,3.9365,3.9799,4.0096,4.0113,4.0113,4.0113,4.0113,4.0113,4.0113,4.0113,4.0113,4.0417,4.0849,2.9032,2.8567,2.7475,2.7175,2.731,2.6803,2.6427,2.622,2.6198,2.6487,2.7164,2.7943,2.8363,2.8277,2.8645,2.8984,2.9037,2.9108,2.9197,2.9253,2.9321,2.9069,2.8853,2.8731,2.8752,2.8734,2.8931,2.9421,2.9964,3.0117,3.0147,3.0419,3.0911,3.1175,3.1407,3.1851,3.216,3.2398,3.237,3.2398,3.2398,3.2398,3.2398,3.2398,3.2398,3.2398,3.2398,3.2398,3.2453,3.2496,3.2425,3.2675,3.2936,3.3567,3.4044,3.4475,3.5029,3.5568,3.5905,3.6316,3.6886,3.7754,3.8322,3.8995,4.0037,4.0534,4.068,4.0847,4.0871,4.0894,4.0894,4.0894,4.0894,4.0894,4.0894,4.0894,4.0894,4.0871,4.0847,4.0823,4.071,4.071,4.068,4.068,4.0776,4.0752,4.0864,4.0752,4.0583,4.0461,4.0436,4.0196,3.9636,3.8832,3.8153,3.7738,3.7342,3.7415,3.765,3.7924,3.821,3.8821,3.9348,3.9825,4.0113,4.0113,4.0113,4.0113,4.0113,4.0113,4.0113,4.0113,4.0113,4.0113,4.0434,2.8025,2.8287,2.7416,2.7061,2.7108,2.7108,2.6884,2.6461,2.6255,2.5793,2.5432,2.6411,2.7027,2.7364,2.7822,2.8118,2.84,2.8606,2.8533,2.85,2.8533,2.856,2.8565,2.849,2.8509,2.8587,2.8702,2.8994,2.9376,2.9439,2.9656,3.0147,3.0464,3.0673,3.1131,3.1523,3.1781,3.2104,3.2244,3.2398,3.2398,3.2398,3.2398,3.2398,3.2398,3.2398,3.2398,3.2398,3.2398,3.2398,3.2413,3.2628,3.3167,3.3783,3.446,3.4983,3.5737,3.6153,3.6446,3.6584,3.7293,3.7966,3.8362,3.9076,4.0154,4.0583,4.0728,4.0823,4.0871,4.0894,4.0894,4.0894,4.0894,4.0894,4.0894,4.0894,4.0894,4.0894,4.0894,4.0894,4.0894,4.0894,4.0894,4.0894,4.0888,4.0864,4.0817,4.0655,4.0534,4.0461,4.0387,4.0003,3.948,3.8629,3.7796,3.7238,3.6952,3.6861,3.7088,3.7474,3.7924,3.8518,3.9162,3.9876,4.0113,4.0113,4.0113,4.0113,4.0113,4.0121,4.0113,4.0113,4.0113,4.0113,4.0113,2.724,2.7296,2.7079,2.7229,2.7577,2.761,2.7577,2.7343,2.653,2.606,2.5781,2.5523,2.5779,2.6079,2.7364,2.7842,2.7809,2.8072,2.8216,2.8177,2.8229,2.8249,2.83,2.8333,2.843,2.8541,2.8587,2.867,2.8931,2.8881,2.8817,2.9071,2.958,2.9827,3.0042,3.0615,3.1451,3.1794,3.2132,3.2315,3.2398,3.2398,3.2398,3.2398,3.2398,3.2398,3.2398,3.2398,3.2398,3.2398,3.2428,3.2536,3.3029,3.3781,3.4472,3.5254,3.6028,3.6446,3.6615,3.6906,3.7592,3.8165,3.8613,3.9305,4.0104,4.0534,4.068,4.0847,4.0894,4.0894,4.0894,4.0894,4.0894,4.0894,4.0894,4.0894,4.0894,4.0894,4.0894,4.0894,4.0894,4.0894,4.0894,4.0894,4.0894,4.0888,4.0888,4.0728,4.0558,4.0461,4.0362,3.9901,3.9418,3.8876,3.8266,3.7208,3.6785,3.6616,3.6662,3.7252,3.7751,3.8181,3.8876,3.9799,4.0087,4.0113,4.0113,4.0138,4.0146,4.0146,4.0121,4.0113,4.0113,4.0113,4.0113]}]]